Time,TemperatureF,DewpointF,PressureIn,WindDirection,WindDirectionDegrees,WindSpeedMPH,WindSpeedGustMPH,Humidity,HourlyPrecipIn,Conditions,Clouds,dailyrainin,SoftwareType,DateUTC
2013-03-09 00:00:00,27.7,24.6,30.33,SSE,148,3.0,4.0,88,0.00,,,0.00,VWS V14.01,2013-03-09 06:00:00,
2013-03-09 00:01:00,27.7,24.6,30.33,SSE,162,1.0,3.0,88,0.00,,,0.00,VWS V14.01,2013-03-09 06:01:00,
2013-03-09 00:02:00,27.8,24.7,30.33,South,176,2.0,3.0,88,0.00,,,0.00,VWS V14.01,2013-03-09 06:02:00,
2013-03-09 00:03:00,27.7,24.6,30.33,SSE,160,2.0,3.0,88,0.00,,,0.00,VWS V14.01,2013-03-09 06:03:00,
2013-03-09 00:04:00,27.8,24.7,30.33,South,169,2.0,3.0,88,0.00,,,0.00,VWS V14.01,2013-03-09 06:04:00,
2013-03-09 00:05:00,27.8,24.7,30.33,South,170,2.0,4.0,88,0.00,,,0.00,VWS V14.01,2013-03-09 06:05:00,
2013-03-09 00:06:00,27.8,24.7,30.33,SSE,167,2.0,4.0,88,0.00,,,0.00,VWS V14.01,2013-03-09 06:06:00,
2013-03-09 00:07:00,27.8,24.7,30.33,SSE,166,1.0,2.0,88,0.00,,,0.00,VWS V14.01,2013-03-09 06:07:00,
2013-03-09 00:08:00,27.8,24.7,30.33,South,190,3.0,3.0,88,0.00,,,0.00,VWS V14.01,2013-03-09 06:08:00,
2013-03-09 00:09:00,27.8,24.7,30.33,South,169,5.0,5.0,88,0.00,,,0.00,VWS V14.01,2013-03-09 06:09:00,
2013-03-09 00:10:00,27.8,24.7,30.33,SSW,193,1.0,5.0,88,0.00,,,0.00,VWS V14.01,2013-03-09 06:10:00,
2013-03-09 00:11:00,27.8,24.7,30.33,SSE,150,0.0,3.0,88,0.00,,,0.00,VWS V14.01,2013-03-09 06:11:00,
2013-03-09 00:12:00,27.8,24.7,30.33,SW,217,2.0,5.0,88,0.00,,,0.00,VWS V14.01,2013-03-09 06:12:00,
2013-03-09 00:13:00,27.8,24.7,30.33,SSW,198,2.0,2.0,88,0.00,,,0.00,VWS V14.01,2013-03-09 06:13:00,
2013-03-09 00:14:00,27.8,24.7,30.33,SE,146,2.0,2.0,88,0.00,,,0.00,VWS V14.01,2013-03-09 06:14:00,
2013-03-09 00:15:00,27.8,24.4,30.33,SSE,162,2.0,3.0,87,0.00,,,0.00,VWS V14.01,2013-03-09 06:15:00,
2013-03-09 00:16:00,27.8,24.4,30.33,South,188,1.0,3.0,87,0.00,,,0.00,VWS V14.01,2013-03-09 06:16:00,
2013-03-09 00:17:00,27.8,24.7,30.33,SE,145,2.0,2.0,88,0.00,,,0.00,VWS V14.01,2013-03-09 06:17:00,
2013-03-09 00:18:00,27.7,24.6,30.33,SE,145,1.0,2.0,88,0.00,,,0.00,VWS V14.01,2013-03-09 06:18:00,
2013-03-09 00:19:00,27.7,24.3,30.33,SSE,150,2.0,3.0,87,0.00,,,0.00,VWS V14.01,2013-03-09 06:19:00,
2013-03-09 00:20:00,27.7,24.6,30.33,SSE,152,2.0,3.0,88,0.00,,,0.00,VWS V14.01,2013-03-09 06:20:00,
2013-03-09 00:21:00,27.7,24.6,30.33,SSE,159,1.0,3.0,88,0.00,,,0.00,VWS V14.01,2013-03-09 06:21:00,
2013-03-09 00:22:00,27.7,24.6,30.33,SSE,163,2.0,2.0,88,0.00,,,0.00,VWS V14.01,2013-03-09 06:22:00,
2013-03-09 00:23:00,27.6,24.2,30.33,SSE,159,2.0,3.0,87,0.00,,,0.00,VWS V14.01,2013-03-09 06:23:00,
2013-03-09 00:24:00,27.6,24.2,30.33,SE,136,0.0,3.0,87,0.00,,,0.00,VWS V14.01,2013-03-09 06:24:00,
2013-03-09 00:25:00,27.6,24.2,30.33,SW,229,2.0,4.0,87,0.00,,,0.00,VWS V14.01,2013-03-09 06:25:00,
2013-03-09 00:26:00,27.6,24.2,30.32,SSE,155,1.0,2.0,87,0.00,,,0.00,VWS V14.01,2013-03-09 06:26:00,
2013-03-09 00:27:00,27.5,24.1,30.32,SSE,166,4.0,4.0,87,0.00,,,0.00,VWS V14.01,2013-03-09 06:27:00,
2013-03-09 00:28:00,27.5,24.1,30.32,SE,140,1.0,4.0,87,0.00,,,0.00,VWS V14.01,2013-03-09 06:28:00,
2013-03-09 00:29:00,27.5,24.4,30.32,SSE,152,1.0,3.0,88,0.00,,,0.00,VWS V14.01,2013-03-09 06:29:00,
2013-03-09 00:30:00,27.5,24.4,30.32,SE,141,2.0,2.0,88,0.00,,,0.00,VWS V14.01,2013-03-09 06:30:00,
2013-03-09 00:31:00,27.4,24.3,30.32,SE,132,3.0,3.0,88,0.00,,,0.00,VWS V14.01,2013-03-09 06:31:00,
2013-03-09 00:32:00,27.4,24.3,30.32,SE,146,3.0,3.0,88,0.00,,,0.00,VWS V14.01,2013-03-09 06:32:00,
2013-03-09 00:33:00,27.4,24.3,30.32,South,179,2.0,3.0,88,0.00,,,0.00,VWS V14.01,2013-03-09 06:33:00,
2013-03-09 00:34:00,27.5,24.4,30.32,SSE,160,3.0,3.0,88,0.00,,,0.00,VWS V14.01,2013-03-09 06:34:00,
2013-03-09 00:35:00,27.5,24.4,30.32,SE,135,1.0,3.0,88,0.00,,,0.00,VWS V14.01,2013-03-09 06:35:00,
2013-03-09 00:36:00,27.5,24.4,30.32,SSE,162,2.0,3.0,88,0.00,,,0.00,VWS V14.01,2013-03-09 06:36:00,
2013-03-09 00:37:00,27.5,24.4,30.32,South,176,2.0,2.0,88,0.00,,,0.00,VWS V14.01,2013-03-09 06:37:00,
2013-03-09 00:38:00,27.5,24.4,30.32,ESE,113,1.0,4.0,88,0.00,,,0.00,VWS V14.01,2013-03-09 06:38:00,
2013-03-09 00:39:00,27.5,24.4,30.32,SSE,159,2.0,3.0,88,0.00,,,0.00,VWS V14.01,2013-03-09 06:39:00,
2013-03-09 00:40:00,27.5,24.4,30.32,South,180,2.0,2.0,88,0.00,,,0.00,VWS V14.01,2013-03-09 06:40:00,
2013-03-09 00:41:00,27.5,24.4,30.32,SSE,150,1.0,2.0,88,0.00,,,0.00,VWS V14.01,2013-03-09 06:41:00,
2013-03-09 00:42:00,27.5,24.4,30.32,South,184,1.0,2.0,88,0.00,,,0.00,VWS V14.01,2013-03-09 06:42:00,
2013-03-09 00:43:00,27.5,24.4,30.32,SSE,163,2.0,2.0,88,0.00,,,0.00,VWS V14.01,2013-03-09 06:43:00,
2013-03-09 00:44:00,27.5,24.4,30.32,SE,138,1.0,2.0,88,0.00,,,0.00,VWS V14.01,2013-03-09 06:44:00,
2013-03-09 00:45:00,27.4,24.3,30.32,SSE,165,1.0,3.0,88,0.00,,,0.00,VWS V14.01,2013-03-09 06:45:00,
2013-03-09 00:46:00,27.4,24.3,30.32,South,190,2.0,2.0,88,0.00,,,0.00,VWS V14.01,2013-03-09 06:46:00,
2013-03-09 00:47:00,27.4,24.3,30.32,SE,138,2.0,2.0,88,0.00,,,0.00,VWS V14.01,2013-03-09 06:47:00,
2013-03-09 00:48:00,27.4,24.3,30.32,South,183,1.0,3.0,88,0.00,,,0.00,VWS V14.01,2013-03-09 06:48:00,
2013-03-09 00:49:00,27.4,24.3,30.32,SSW,193,0.0,1.0,88,0.00,,,0.00,VWS V14.01,2013-03-09 06:49:00,
2013-03-09 00:50:00,27.4,24.3,30.32,East,101,2.0,2.0,88,0.00,,,0.00,VWS V14.01,2013-03-09 06:50:00,
2013-03-09 00:51:00,27.5,24.4,30.32,SE,141,3.0,3.0,88,0.00,,,0.00,VWS V14.01,2013-03-09 06:51:00,
2013-03-09 00:52:00,27.5,24.4,30.32,SE,141,1.0,3.0,88,0.00,,,0.00,VWS V14.01,2013-03-09 06:52:00,
2013-03-09 00:53:00,27.5,24.4,30.32,SE,134,3.0,4.0,88,0.00,,,0.00,VWS V14.01,2013-03-09 06:53:00,
2013-03-09 00:54:00,27.6,24.5,30.32,SE,125,3.0,3.0,88,0.00,,,0.00,VWS V14.01,2013-03-09 06:54:00,
2013-03-09 00:55:00,27.7,24.6,30.32,SE,129,3.0,4.0,88,0.00,,,0.00,VWS V14.01,2013-03-09 06:55:00,
2013-03-09 00:56:00,27.7,24.6,30.32,SE,138,0.0,4.0,88,0.00,,,0.00,VWS V14.01,2013-03-09 06:56:00,
2013-03-09 00:57:00,27.7,24.6,30.32,SE,144,2.0,3.0,88,0.00,,,0.00,VWS V14.01,2013-03-09 06:57:00,
2013-03-09 00:58:00,27.7,24.6,30.32,SE,144,3.0,4.0,88,0.00,,,0.00,VWS V14.01,2013-03-09 06:58:00,
2013-03-09 00:59:00,27.7,24.6,30.32,SSE,166,2.0,3.0,88,0.00,,,0.00,VWS V14.01,2013-03-09 06:59:00,
2013-03-09 01:00:00,27.8,24.4,30.32,SSE,149,2.0,4.0,87,0.00,,,0.00,VWS V14.01,2013-03-09 07:00:00,
2013-03-09 01:01:00,27.8,24.4,30.32,SE,128,2.0,3.0,87,0.00,,,0.00,VWS V14.01,2013-03-09 07:01:00,
2013-03-09 01:02:00,27.7,24.3,30.32,SE,135,2.0,3.0,87,0.00,,,0.00,VWS V14.01,2013-03-09 07:02:00,
2013-03-09 01:03:00,27.7,24.3,30.32,ESE,110,0.0,2.0,87,0.00,,,0.00,VWS V14.01,2013-03-09 07:03:00,
2013-03-09 01:04:00,27.7,24.3,30.32,SSE,158,3.0,5.0,87,0.00,,,0.00,VWS V14.01,2013-03-09 07:04:00,
2013-03-09 01:05:00,27.7,24.3,30.32,SSE,153,2.0,4.0,87,0.00,,,0.00,VWS V14.01,2013-03-09 07:05:00,
2013-03-09 01:06:00,27.7,24.3,30.32,SSE,156,1.0,3.0,87,0.00,,,0.00,VWS V14.01,2013-03-09 07:06:00,
2013-03-09 01:07:00,27.7,24.3,30.32,SE,143,3.0,7.0,87,0.00,,,0.00,VWS V14.01,2013-03-09 07:07:00,
2013-03-09 01:08:00,27.7,24.3,30.32,SSE,150,2.0,3.0,87,0.00,,,0.00,VWS V14.01,2013-03-09 07:08:00,
2013-03-09 01:09:00,27.7,24.3,30.32,SSE,164,2.0,3.0,87,0.00,,,0.00,VWS V14.01,2013-03-09 07:09:00,
2013-03-09 01:10:00,27.7,24.3,30.32,SE,136,3.0,3.0,87,0.00,,,0.00,VWS V14.01,2013-03-09 07:10:00,
2013-03-09 01:11:00,27.7,24.3,30.32,SSW,203,2.0,4.0,87,0.00,,,0.00,VWS V14.01,2013-03-09 07:11:00,
2013-03-09 01:12:00,27.7,24.3,30.32,SSE,155,2.0,4.0,87,0.00,,,0.00,VWS V14.01,2013-03-09 07:12:00,
2013-03-09 01:13:00,27.8,24.4,30.32,SE,132,4.0,5.0,87,0.00,,,0.00,VWS V14.01,2013-03-09 07:13:00,
2013-03-09 01:14:00,27.8,24.4,30.32,South,179,4.0,5.0,87,0.00,,,0.00,VWS V14.01,2013-03-09 07:14:00,
2013-03-09 01:15:00,27.8,24.4,30.32,SE,145,5.0,5.0,87,0.00,,,0.00,VWS V14.01,2013-03-09 07:15:00,
2013-03-09 01:16:00,27.8,24.4,30.32,ESE,120,3.0,8.0,87,0.00,,,0.00,VWS V14.01,2013-03-09 07:16:00,
2013-03-09 01:17:00,27.8,24.4,30.32,South,175,3.0,4.0,87,0.00,,,0.00,VWS V14.01,2013-03-09 07:17:00,
2013-03-09 01:18:00,27.8,24.4,30.32,South,188,2.0,3.0,87,0.00,,,0.00,VWS V14.01,2013-03-09 07:18:00,
2013-03-09 01:19:00,27.8,24.4,30.32,SSE,152,2.0,3.0,87,0.00,,,0.00,VWS V14.01,2013-03-09 07:19:00,
2013-03-09 01:20:00,27.8,24.4,30.32,South,169,2.0,3.0,87,0.00,,,0.00,VWS V14.01,2013-03-09 07:20:00,
2013-03-09 01:21:00,27.8,24.4,30.32,SSE,158,1.0,2.0,87,0.00,,,0.00,VWS V14.01,2013-03-09 07:21:00,
2013-03-09 01:22:00,27.8,24.4,30.31,SE,136,2.0,3.0,87,0.00,,,0.00,VWS V14.01,2013-03-09 07:22:00,
2013-03-09 01:23:00,27.8,24.4,30.31,South,186,0.0,3.0,87,0.00,,,0.00,VWS V14.01,2013-03-09 07:23:00,
2013-03-09 01:24:00,27.8,24.4,30.31,SSE,149,2.0,4.0,87,0.00,,,0.00,VWS V14.01,2013-03-09 07:24:00,
2013-03-09 01:25:00,27.8,24.4,30.31,SSW,207,2.0,4.0,87,0.00,,,0.00,VWS V14.01,2013-03-09 07:25:00,
2013-03-09 01:26:00,27.8,24.4,30.31,SSE,151,2.0,3.0,87,0.00,,,0.00,VWS V14.01,2013-03-09 07:26:00,
2013-03-09 01:27:00,27.8,24.4,30.31,SE,143,2.0,4.0,87,0.00,,,0.00,VWS V14.01,2013-03-09 07:27:00,
2013-03-09 01:28:00,27.8,24.4,30.31,SSE,159,4.0,4.0,87,0.00,,,0.00,VWS V14.01,2013-03-09 07:28:00,
2013-03-09 01:29:00,27.8,24.4,30.31,SSE,156,1.0,4.0,87,0.00,,,0.00,VWS V14.01,2013-03-09 07:29:00,
2013-03-09 01:30:00,27.8,24.4,30.31,SSE,167,2.0,2.0,87,0.00,,,0.00,VWS V14.01,2013-03-09 07:30:00,
2013-03-09 01:31:00,27.8,24.4,30.31,South,176,1.0,2.0,87,0.00,,,0.00,VWS V14.01,2013-03-09 07:31:00,
2013-03-09 01:32:00,27.8,24.4,30.31,SSE,158,2.0,3.0,87,0.00,,,0.00,VWS V14.01,2013-03-09 07:32:00,
2013-03-09 01:33:00,27.8,24.4,30.31,SE,125,2.0,3.0,87,0.00,,,0.00,VWS V14.01,2013-03-09 07:33:00,
2013-03-09 01:34:00,27.7,24.3,30.31,SE,127,3.0,3.0,87,0.00,,,0.00,VWS V14.01,2013-03-09 07:34:00,
2013-03-09 01:35:00,27.7,24.3,30.31,SSE,167,0.0,3.0,87,0.00,,,0.00,VWS V14.01,2013-03-09 07:35:00,
2013-03-09 01:36:00,27.7,24.3,30.31,South,186,0.0,3.0,87,0.00,,,0.00,VWS V14.01,2013-03-09 07:36:00,
2013-03-09 01:37:00,27.7,24.3,30.31,SSE,149,1.0,2.0,87,0.00,,,0.00,VWS V14.01,2013-03-09 07:37:00,
2013-03-09 01:38:00,27.7,24.3,30.31,SE,145,0.0,2.0,87,0.00,,,0.00,VWS V14.01,2013-03-09 07:38:00,
2013-03-09 01:39:00,27.7,24.3,30.31,ESE,108,3.0,3.0,87,0.00,,,0.00,VWS V14.01,2013-03-09 07:39:00,
2013-03-09 01:40:00,27.7,24.3,30.30,SSE,156,2.0,3.0,87,0.00,,,0.00,VWS V14.01,2013-03-09 07:40:00,
2013-03-09 01:41:00,27.7,24.3,30.30,South,184,1.0,3.0,87,0.00,,,0.00,VWS V14.01,2013-03-09 07:41:00,
2013-03-09 01:42:00,27.8,24.4,30.30,SE,139,4.0,4.0,87,0.00,,,0.00,VWS V14.01,2013-03-09 07:42:00,
2013-03-09 01:43:00,27.8,24.4,30.30,SSE,164,2.0,4.0,87,0.00,,,0.00,VWS V14.01,2013-03-09 07:43:00,
2013-03-09 01:44:00,27.9,24.5,30.30,SE,129,0.0,3.0,87,0.00,,,0.00,VWS V14.01,2013-03-09 07:44:00,
2013-03-09 01:45:00,27.9,24.5,30.30,SE,143,2.0,3.0,87,0.00,,,0.00,VWS V14.01,2013-03-09 07:45:00,
2013-03-09 01:46:00,28.0,24.6,30.30,SE,139,1.0,3.0,87,0.00,,,0.00,VWS V14.01,2013-03-09 07:46:00,
2013-03-09 01:47:00,28.0,24.6,30.30,SSE,150,1.0,2.0,87,0.00,,,0.00,VWS V14.01,2013-03-09 07:47:00,
2013-03-09 01:48:00,28.0,24.6,30.30,SSE,165,2.0,2.0,87,0.00,,,0.00,VWS V14.01,2013-03-09 07:48:00,
2013-03-09 01:49:00,28.0,24.6,30.30,South,191,2.0,2.0,87,0.00,,,0.00,VWS V14.01,2013-03-09 07:49:00,
2013-03-09 01:50:00,28.0,24.4,30.30,South,174,2.0,2.0,86,0.00,,,0.00,VWS V14.01,2013-03-09 07:50:00,
2013-03-09 01:51:00,28.0,24.4,30.30,SE,145,4.0,6.0,86,0.00,,,0.00,VWS V14.01,2013-03-09 07:51:00,
2013-03-09 01:52:00,28.0,24.4,30.30,SE,143,2.0,4.0,86,0.00,,,0.00,VWS V14.01,2013-03-09 07:52:00,
2013-03-09 01:53:00,28.0,24.4,30.30,South,185,1.0,3.0,86,0.00,,,0.00,VWS V14.01,2013-03-09 07:53:00,
2013-03-09 01:54:00,28.0,24.4,30.30,SE,142,1.0,4.0,86,0.00,,,0.00,VWS V14.01,2013-03-09 07:54:00,
2013-03-09 01:55:00,28.0,24.4,30.30,SE,135,1.0,3.0,86,0.00,,,0.00,VWS V14.01,2013-03-09 07:55:00,
2013-03-09 01:56:00,28.0,24.4,30.30,SSE,149,0.0,1.0,86,0.00,,,0.00,VWS V14.01,2013-03-09 07:56:00,
2013-03-09 01:57:00,28.0,24.4,30.30,SSE,159,2.0,2.0,86,0.00,,,0.00,VWS V14.01,2013-03-09 07:57:00,
2013-03-09 01:58:00,28.0,24.4,30.30,SSE,148,0.0,4.0,86,0.00,,,0.00,VWS V14.01,2013-03-09 07:58:00,
2013-03-09 01:59:00,28.0,24.4,30.30,SSE,148,1.0,2.0,86,0.00,,,0.00,VWS V14.01,2013-03-09 07:59:00,
2013-03-09 02:00:00,28.0,24.4,30.30,SSE,162,2.0,2.0,86,0.00,,,0.00,VWS V14.01,2013-03-09 08:00:00,
2013-03-09 02:01:00,28.0,24.4,30.30,SSE,152,1.0,3.0,86,0.00,,,0.00,VWS V14.01,2013-03-09 08:01:00,
2013-03-09 02:02:00,28.0,24.4,30.30,SSW,197,1.0,2.0,86,0.00,,,0.00,VWS V14.01,2013-03-09 08:02:00,
2013-03-09 02:03:00,28.0,24.6,30.29,SSE,165,2.0,2.0,87,0.00,,,0.00,VWS V14.01,2013-03-09 08:03:00,
2013-03-09 02:04:00,28.0,24.6,30.29,SSE,148,2.0,3.0,87,0.00,,,0.00,VWS V14.01,2013-03-09 08:04:00,
2013-03-09 02:05:00,28.0,24.6,30.29,SSE,154,1.0,4.0,87,0.00,,,0.00,VWS V14.01,2013-03-09 08:05:00,
2013-03-09 02:06:00,28.0,24.6,30.29,ESE,116,1.0,2.0,87,0.00,,,0.00,VWS V14.01,2013-03-09 08:06:00,
2013-03-09 02:07:00,28.0,24.6,30.29,SE,138,1.0,3.0,87,0.00,,,0.00,VWS V14.01,2013-03-09 08:07:00,
2013-03-09 02:08:00,28.0,24.6,30.29,South,173,2.0,3.0,87,0.00,,,0.00,VWS V14.01,2013-03-09 08:08:00,
2013-03-09 02:09:00,28.0,24.6,30.29,SSE,158,0.0,2.0,87,0.00,,,0.00,VWS V14.01,2013-03-09 08:09:00,
2013-03-09 02:10:00,28.0,24.6,30.29,SSE,158,2.0,2.0,87,0.00,,,0.00,VWS V14.01,2013-03-09 08:10:00,
2013-03-09 02:11:00,28.0,24.6,30.29,ESE,111,1.0,2.0,87,0.00,,,0.00,VWS V14.01,2013-03-09 08:11:00,
2013-03-09 02:12:00,28.0,24.6,30.29,SE,138,1.0,2.0,87,0.00,,,0.00,VWS V14.01,2013-03-09 08:12:00,
2013-03-09 02:13:00,28.0,24.6,30.29,SE,132,1.0,2.0,87,0.00,,,0.00,VWS V14.01,2013-03-09 08:13:00,
2013-03-09 02:14:00,28.1,24.7,30.29,SSE,154,0.0,2.0,87,0.00,,,0.00,VWS V14.01,2013-03-09 08:14:00,
2013-03-09 02:15:00,28.1,24.7,30.29,South,169,0.0,1.0,87,0.00,,,0.00,VWS V14.01,2013-03-09 08:15:00,
2013-03-09 02:16:00,28.1,24.7,30.29,SE,136,1.0,1.0,87,0.00,,,0.00,VWS V14.01,2013-03-09 08:16:00,
2013-03-09 02:17:00,28.1,24.7,30.29,SSE,161,1.0,1.0,87,0.00,,,0.00,VWS V14.01,2013-03-09 08:17:00,
2013-03-09 02:18:00,28.1,24.7,30.29,SSE,160,1.0,1.0,87,0.00,,,0.00,VWS V14.01,2013-03-09 08:18:00,
2013-03-09 02:19:00,28.1,24.7,30.29,SSE,155,1.0,2.0,87,0.00,,,0.00,VWS V14.01,2013-03-09 08:19:00,
2013-03-09 02:20:00,28.1,24.7,30.29,SSE,155,0.0,1.0,87,0.00,,,0.00,VWS V14.01,2013-03-09 08:20:00,
2013-03-09 02:21:00,28.1,24.5,30.29,SSE,148,1.0,1.0,86,0.00,,,0.00,VWS V14.01,2013-03-09 08:21:00,
2013-03-09 02:22:00,28.1,24.7,30.29,SSE,158,1.0,2.0,87,0.00,,,0.00,VWS V14.01,2013-03-09 08:22:00,
2013-03-09 02:23:00,28.1,24.7,30.29,SE,143,1.0,2.0,87,0.00,,,0.00,VWS V14.01,2013-03-09 08:23:00,
2013-03-09 02:24:00,28.0,24.6,30.29,SSE,153,0.0,1.0,87,0.00,,,0.00,VWS V14.01,2013-03-09 08:24:00,
2013-03-09 02:25:00,28.0,24.6,30.29,South,179,1.0,2.0,87,0.00,,,0.00,VWS V14.01,2013-03-09 08:25:00,
2013-03-09 02:26:00,28.0,24.6,30.29,SSE,152,0.0,2.0,87,0.00,,,0.00,VWS V14.01,2013-03-09 08:26:00,
2013-03-09 02:27:00,28.0,24.6,30.29,SSE,148,0.0,1.0,87,0.00,,,0.00,VWS V14.01,2013-03-09 08:27:00,
2013-03-09 02:28:00,28.0,24.6,30.29,SSE,156,2.0,2.0,87,0.00,,,0.00,VWS V14.01,2013-03-09 08:28:00,
2013-03-09 02:29:00,28.0,24.6,30.28,SE,131,1.0,3.0,87,0.00,,,0.00,VWS V14.01,2013-03-09 08:29:00,
2013-03-09 02:30:00,28.0,24.6,30.29,SE,128,1.0,1.0,87,0.00,,,0.00,VWS V14.01,2013-03-09 08:30:00,
2013-03-09 02:31:00,28.1,24.7,30.29,SSE,158,0.0,3.0,87,0.00,,,0.00,VWS V14.01,2013-03-09 08:31:00,
2013-03-09 02:32:00,28.1,24.7,30.28,SE,145,1.0,2.0,87,0.00,,,0.00,VWS V14.01,2013-03-09 08:32:00,
2013-03-09 02:33:00,28.1,24.7,30.28,SE,138,2.0,2.0,87,0.00,,,0.00,VWS V14.01,2013-03-09 08:33:00,
2013-03-09 02:34:00,28.2,24.8,30.28,ESE,117,1.0,2.0,87,0.00,,,0.00,VWS V14.01,2013-03-09 08:34:00,
2013-03-09 02:35:00,28.2,24.8,30.28,SSE,159,1.0,2.0,87,0.00,,,0.00,VWS V14.01,2013-03-09 08:35:00,
2013-03-09 02:36:00,28.2,24.8,30.28,SE,125,2.0,2.0,87,0.00,,,0.00,VWS V14.01,2013-03-09 08:36:00,
2013-03-09 02:37:00,28.3,24.9,30.28,SE,146,1.0,2.0,87,0.00,,,0.00,VWS V14.01,2013-03-09 08:37:00,
2013-03-09 02:38:00,28.3,24.9,30.28,ESE,122,2.0,2.0,87,0.00,,,0.00,VWS V14.01,2013-03-09 08:38:00,
2013-03-09 02:39:00,28.4,25.0,30.28,SSW,193,1.0,2.0,87,0.00,,,0.00,VWS V14.01,2013-03-09 08:39:00,
2013-03-09 02:40:00,28.4,25.0,30.28,SE,131,2.0,3.0,87,0.00,,,0.00,VWS V14.01,2013-03-09 08:40:00,
2013-03-09 02:41:00,28.4,25.0,30.28,SE,135,2.0,2.0,87,0.00,,,0.00,VWS V14.01,2013-03-09 08:41:00,
2013-03-09 02:42:00,28.5,25.1,30.27,SE,124,2.0,3.0,87,0.00,,,0.00,VWS V14.01,2013-03-09 08:42:00,
2013-03-09 02:43:00,28.5,24.9,30.27,SE,124,1.0,2.0,86,0.00,,,0.00,VWS V14.01,2013-03-09 08:43:00,
2013-03-09 02:44:00,28.5,24.9,30.27,ESE,121,1.0,2.0,86,0.00,,,0.00,VWS V14.01,2013-03-09 08:44:00,
2013-03-09 02:45:00,28.6,25.0,30.27,ESE,118,3.0,3.0,86,0.00,,,0.00,VWS V14.01,2013-03-09 08:45:00,
2013-03-09 02:46:00,28.6,25.0,30.27,SE,146,1.0,3.0,86,0.00,,,0.00,VWS V14.01,2013-03-09 08:46:00,
2013-03-09 02:47:00,28.6,25.0,30.27,SSE,159,0.0,1.0,86,0.00,,,0.00,VWS V14.01,2013-03-09 08:47:00,
2013-03-09 02:48:00,28.6,25.0,30.27,SSE,160,0.0,1.0,86,0.00,,,0.00,VWS V14.01,2013-03-09 08:48:00,
2013-03-09 02:49:00,28.6,25.0,30.27,SSE,159,0.0,0.0,86,0.00,,,0.00,VWS V14.01,2013-03-09 08:49:00,
2013-03-09 02:50:00,28.6,25.0,30.27,SSE,159,0.0,0.0,86,0.00,,,0.00,VWS V14.01,2013-03-09 08:50:00,
2013-03-09 02:51:00,28.6,25.0,30.27,SSE,165,1.0,1.0,86,0.00,,,0.00,VWS V14.01,2013-03-09 08:51:00,
2013-03-09 02:52:00,28.5,24.9,30.27,SSW,194,2.0,2.0,86,0.00,,,0.00,VWS V14.01,2013-03-09 08:52:00,
2013-03-09 02:53:00,28.5,24.9,30.27,South,184,3.0,3.0,86,0.00,,,0.00,VWS V14.01,2013-03-09 08:53:00,
2013-03-09 02:54:00,28.5,24.9,30.27,SSW,194,1.0,3.0,86,0.00,,,0.00,VWS V14.01,2013-03-09 08:54:00,
2013-03-09 02:55:00,28.5,24.9,30.27,SSW,198,1.0,2.0,86,0.00,,,0.00,VWS V14.01,2013-03-09 08:55:00,
2013-03-09 02:56:00,28.5,24.9,30.27,SE,134,1.0,2.0,86,0.00,,,0.00,VWS V14.01,2013-03-09 08:56:00,
2013-03-09 02:57:00,28.5,24.9,30.27,ESE,103,0.0,1.0,86,0.00,,,0.00,VWS V14.01,2013-03-09 08:57:00,
2013-03-09 02:58:00,28.4,24.8,30.27,SE,139,0.0,0.0,86,0.00,,,0.00,VWS V14.01,2013-03-09 08:58:00,
2013-03-09 02:59:00,28.4,24.8,30.27,SE,143,2.0,3.0,86,0.00,,,0.00,VWS V14.01,2013-03-09 08:59:00,
2013-03-09 03:00:00,28.4,24.8,30.26,SE,143,3.0,3.0,86,0.00,,,0.00,VWS V14.01,2013-03-09 09:00:00,
2013-03-09 03:01:00,28.5,25.1,30.27,SE,127,1.0,3.0,87,0.00,,,0.00,VWS V14.01,2013-03-09 09:01:00,
2013-03-09 03:02:00,28.5,25.1,30.27,SE,127,0.0,1.0,87,0.00,,,0.00,VWS V14.01,2013-03-09 09:02:00,
2013-03-09 03:03:00,28.5,24.9,30.26,ESE,116,1.0,2.0,86,0.00,,,0.00,VWS V14.01,2013-03-09 09:03:00,
2013-03-09 03:04:00,28.5,24.9,30.26,ESE,113,0.0,1.0,86,0.00,,,0.00,VWS V14.01,2013-03-09 09:04:00,
2013-03-09 03:05:00,28.5,24.9,30.26,SSE,155,0.0,1.0,86,0.00,,,0.00,VWS V14.01,2013-03-09 09:05:00,
2013-03-09 03:06:00,28.5,24.9,30.26,South,173,1.0,1.0,86,0.00,,,0.00,VWS V14.01,2013-03-09 09:06:00,
2013-03-09 03:07:00,28.5,24.9,30.26,SSW,195,0.0,1.0,86,0.00,,,0.00,VWS V14.01,2013-03-09 09:07:00,
2013-03-09 03:08:00,28.5,24.9,30.26,SW,222,1.0,1.0,86,0.00,,,0.00,VWS V14.01,2013-03-09 09:08:00,
2013-03-09 03:09:00,28.5,24.9,30.26,SSW,209,0.0,2.0,86,0.00,,,0.00,VWS V14.01,2013-03-09 09:09:00,
2013-03-09 03:10:00,28.5,24.9,30.26,South,179,1.0,1.0,86,0.00,,,0.00,VWS V14.01,2013-03-09 09:10:00,
2013-03-09 03:11:00,28.5,24.9,30.26,SSE,165,0.0,2.0,86,0.00,,,0.00,VWS V14.01,2013-03-09 09:11:00,
2013-03-09 03:12:00,28.5,24.9,30.26,SE,131,2.0,2.0,86,0.00,,,0.00,VWS V14.01,2013-03-09 09:12:00,
2013-03-09 03:13:00,28.5,25.1,30.26,SSE,147,2.0,2.0,87,0.00,,,0.00,VWS V14.01,2013-03-09 09:13:00,
2013-03-09 03:14:00,28.5,25.1,30.26,East,90,3.0,3.0,87,0.00,,,0.00,VWS V14.01,2013-03-09 09:14:00,
2013-03-09 03:15:00,28.6,25.2,30.26,ESE,107,3.0,4.0,87,0.00,,,0.00,VWS V14.01,2013-03-09 09:15:00,
2013-03-09 03:16:00,28.6,25.2,30.25,ESE,109,3.0,4.0,87,0.00,,,0.00,VWS V14.01,2013-03-09 09:16:00,
2013-03-09 03:17:00,28.6,25.2,30.25,SE,124,3.0,3.0,87,0.00,,,0.00,VWS V14.01,2013-03-09 09:17:00,
2013-03-09 03:18:00,28.7,25.3,30.25,ESE,115,2.0,3.0,87,0.00,,,0.00,VWS V14.01,2013-03-09 09:18:00,
2013-03-09 03:19:00,28.7,25.0,30.25,SE,127,3.0,4.0,86,0.00,,,0.00,VWS V14.01,2013-03-09 09:19:00,
2013-03-09 03:20:00,28.7,25.0,30.25,ESE,120,3.0,5.0,86,0.00,,,0.00,VWS V14.01,2013-03-09 09:20:00,
2013-03-09 03:21:00,28.8,25.1,30.25,SE,143,5.0,8.0,86,0.00,,,0.00,VWS V14.01,2013-03-09 09:21:00,
2013-03-09 03:22:00,28.9,25.2,30.25,ESE,113,6.0,6.0,86,0.00,,,0.00,VWS V14.01,2013-03-09 09:22:00,
2013-03-09 03:23:00,28.9,25.2,30.25,SE,130,3.0,6.0,86,0.00,,,0.00,VWS V14.01,2013-03-09 09:23:00,
2013-03-09 03:24:00,29.0,25.3,30.25,South,176,2.0,4.0,86,0.00,,,0.00,VWS V14.01,2013-03-09 09:24:00,
2013-03-09 03:25:00,29.0,25.3,30.25,SSE,153,4.0,4.0,86,0.00,,,0.00,VWS V14.01,2013-03-09 09:25:00,
2013-03-09 03:26:00,29.1,25.4,30.25,SSW,197,3.0,5.0,86,0.00,,,0.00,VWS V14.01,2013-03-09 09:26:00,
2013-03-09 03:27:00,29.1,25.4,30.25,SSE,147,3.0,3.0,86,0.00,,,0.00,VWS V14.01,2013-03-09 09:27:00,
2013-03-09 03:28:00,29.2,25.5,30.25,SSE,148,5.0,5.0,86,0.00,,,0.00,VWS V14.01,2013-03-09 09:28:00,
2013-03-09 03:29:00,29.2,25.5,30.25,SE,143,2.0,5.0,86,0.00,,,0.00,VWS V14.01,2013-03-09 09:29:00,
2013-03-09 03:30:00,29.2,25.5,30.25,South,170,3.0,4.0,86,0.00,,,0.00,VWS V14.01,2013-03-09 09:30:00,
2013-03-09 03:31:00,29.2,25.5,30.25,SSE,154,3.0,6.0,86,0.00,,,0.00,VWS V14.01,2013-03-09 09:31:00,
2013-03-09 03:32:00,29.3,25.4,30.25,SSE,166,4.0,5.0,85,0.00,,,0.00,VWS V14.01,2013-03-09 09:32:00,
2013-03-09 03:33:00,29.3,25.4,30.25,SSE,162,3.0,6.0,85,0.00,,,0.00,VWS V14.01,2013-03-09 09:33:00,
2013-03-09 03:34:00,29.3,25.4,30.25,SSE,154,2.0,3.0,85,0.00,,,0.00,VWS V14.01,2013-03-09 09:34:00,
2013-03-09 03:35:00,29.3,25.4,30.25,SE,141,2.0,5.0,85,0.00,,,0.00,VWS V14.01,2013-03-09 09:35:00,
2013-03-09 03:36:00,29.4,25.5,30.25,SSE,166,3.0,6.0,85,0.00,,,0.00,VWS V14.01,2013-03-09 09:36:00,
2013-03-09 03:37:00,29.4,25.5,30.25,SSE,148,1.0,4.0,85,0.00,,,0.00,VWS V14.01,2013-03-09 09:37:00,
2013-03-09 03:38:00,29.5,25.6,30.25,ESE,112,2.0,3.0,85,0.00,,,0.00,VWS V14.01,2013-03-09 09:38:00,
2013-03-09 03:39:00,29.5,25.6,30.25,SSE,148,3.0,4.0,85,0.00,,,0.00,VWS V14.01,2013-03-09 09:39:00,
2013-03-09 03:40:00,29.5,25.6,30.25,SSE,158,3.0,4.0,85,0.00,,,0.00,VWS V14.01,2013-03-09 09:40:00,
2013-03-09 03:41:00,29.5,25.6,30.25,South,173,3.0,4.0,85,0.00,,,0.00,VWS V14.01,2013-03-09 09:41:00,
2013-03-09 03:42:00,29.6,25.6,30.25,South,170,2.0,3.0,85,0.00,,,0.00,VWS V14.01,2013-03-09 09:42:00,
2013-03-09 03:43:00,29.5,25.6,30.25,South,191,0.0,2.0,85,0.00,,,0.00,VWS V14.01,2013-03-09 09:43:00,
2013-03-09 03:44:00,29.5,25.6,30.25,ESE,114,1.0,3.0,85,0.00,,,0.00,VWS V14.01,2013-03-09 09:44:00,
2013-03-09 03:45:00,29.5,25.6,30.25,SSE,154,2.0,4.0,85,0.00,,,0.00,VWS V14.01,2013-03-09 09:45:00,
2013-03-09 03:46:00,29.5,25.6,30.25,ESE,122,1.0,2.0,85,0.00,,,0.00,VWS V14.01,2013-03-09 09:46:00,
2013-03-09 03:47:00,29.5,25.6,30.25,SSE,165,2.0,3.0,85,0.00,,,0.00,VWS V14.01,2013-03-09 09:47:00,
2013-03-09 03:48:00,29.5,25.6,30.25,SE,145,3.0,4.0,85,0.00,,,0.00,VWS V14.01,2013-03-09 09:48:00,
2013-03-09 03:49:00,29.5,25.6,30.25,ESE,121,3.0,3.0,85,0.00,,,0.00,VWS V14.01,2013-03-09 09:49:00,
2013-03-09 03:50:00,29.6,25.6,30.25,SE,139,3.0,4.0,85,0.00,,,0.00,VWS V14.01,2013-03-09 09:50:00,
2013-03-09 03:51:00,29.6,25.6,30.25,SSE,158,3.0,3.0,85,0.00,,,0.00,VWS V14.01,2013-03-09 09:51:00,
2013-03-09 03:52:00,29.7,25.8,30.25,SE,143,2.0,3.0,85,0.00,,,0.00,VWS V14.01,2013-03-09 09:52:00,
2013-03-09 03:53:00,29.7,25.5,30.25,SE,146,5.0,5.0,84,0.00,,,0.00,VWS V14.01,2013-03-09 09:53:00,
2013-03-09 03:54:00,29.7,25.5,30.24,SE,146,1.0,5.0,84,0.00,,,0.00,VWS V14.01,2013-03-09 09:54:00,
2013-03-09 03:55:00,29.7,25.5,30.25,SSE,150,5.0,5.0,84,0.00,,,0.00,VWS V14.01,2013-03-09 09:55:00,
2013-03-09 03:56:00,29.7,25.5,30.25,South,184,4.0,5.0,84,0.00,,,0.00,VWS V14.01,2013-03-09 09:56:00,
2013-03-09 03:57:00,29.7,25.5,30.25,SSE,148,2.0,5.0,84,0.00,,,0.00,VWS V14.01,2013-03-09 09:57:00,
2013-03-09 03:58:00,29.7,25.5,30.24,SSW,195,3.0,3.0,84,0.00,,,0.00,VWS V14.01,2013-03-09 09:58:00,
2013-03-09 03:59:00,29.7,25.5,30.25,SE,143,2.0,3.0,84,0.00,,,0.00,VWS V14.01,2013-03-09 09:59:00,
2013-03-09 04:00:00,29.8,25.6,30.25,SSE,149,1.0,3.0,84,0.00,,,0.00,VWS V14.01,2013-03-09 10:00:00,
2013-03-09 04:01:00,29.8,25.6,30.25,SW,221,1.0,5.0,84,0.00,,,0.00,VWS V14.01,2013-03-09 10:01:00,
2013-03-09 04:02:00,29.8,25.6,30.25,SSE,162,2.0,2.0,84,0.00,,,0.00,VWS V14.01,2013-03-09 10:02:00,
2013-03-09 04:03:00,29.8,25.6,30.24,South,190,2.0,2.0,84,0.00,,,0.00,VWS V14.01,2013-03-09 10:03:00,
2013-03-09 04:04:00,29.8,25.6,30.24,SSE,155,2.0,3.0,84,0.00,,,0.00,VWS V14.01,2013-03-09 10:04:00,
2013-03-09 04:05:00,29.8,25.6,30.24,SSE,162,4.0,4.0,84,0.00,,,0.00,VWS V14.01,2013-03-09 10:05:00,
2013-03-09 04:06:00,29.8,25.6,30.24,SE,131,3.0,6.0,84,0.00,,,0.00,VWS V14.01,2013-03-09 10:06:00,
2013-03-09 04:07:00,29.9,25.7,30.24,SE,142,3.0,5.0,84,0.00,,,0.00,VWS V14.01,2013-03-09 10:07:00,
2013-03-09 04:08:00,29.9,25.7,30.24,SSE,167,2.0,3.0,84,0.00,,,0.00,VWS V14.01,2013-03-09 10:08:00,
2013-03-09 04:09:00,30.0,25.8,30.24,SE,132,4.0,5.0,84,0.00,,,0.00,VWS V14.01,2013-03-09 10:09:00,
2013-03-09 04:10:00,30.0,25.8,30.24,SE,146,3.0,6.0,84,0.00,,,0.00,VWS V14.01,2013-03-09 10:10:00,
2013-03-09 04:11:00,30.1,25.9,30.24,SSE,164,2.0,5.0,84,0.00,,,0.00,VWS V14.01,2013-03-09 10:11:00,
2013-03-09 04:12:00,30.1,25.9,30.24,SSW,194,2.0,3.0,84,0.00,,,0.00,VWS V14.01,2013-03-09 10:12:00,
2013-03-09 04:13:00,30.2,25.7,30.24,South,181,2.0,4.0,83,0.00,,,0.00,VWS V14.01,2013-03-09 10:13:00,
2013-03-09 04:14:00,30.2,25.7,30.24,South,185,1.0,3.0,83,0.00,,,0.00,VWS V14.01,2013-03-09 10:14:00,
2013-03-09 04:15:00,30.2,25.7,30.24,SSE,156,5.0,6.0,83,0.00,,,0.00,VWS V14.01,2013-03-09 10:15:00,
2013-03-09 04:16:00,30.2,25.7,30.24,SSW,210,3.0,5.0,83,0.00,,,0.00,VWS V14.01,2013-03-09 10:16:00,
2013-03-09 04:17:00,30.2,25.7,30.24,SE,143,1.0,3.0,83,0.00,,,0.00,VWS V14.01,2013-03-09 10:17:00,
2013-03-09 04:18:00,30.3,25.8,30.24,SE,124,2.0,4.0,83,0.00,,,0.00,VWS V14.01,2013-03-09 10:18:00,
2013-03-09 04:19:00,30.3,25.8,30.24,SSE,149,2.0,7.0,83,0.00,,,0.00,VWS V14.01,2013-03-09 10:19:00,
2013-03-09 04:20:00,30.4,25.9,30.24,SSE,147,3.0,7.0,83,0.00,,,0.00,VWS V14.01,2013-03-09 10:20:00,
2013-03-09 04:21:00,30.4,25.9,30.24,South,170,3.0,4.0,83,0.00,,,0.00,VWS V14.01,2013-03-09 10:21:00,
2013-03-09 04:22:00,30.5,26.0,30.24,SE,143,2.0,3.0,83,0.00,,,0.00,VWS V14.01,2013-03-09 10:22:00,
2013-03-09 04:23:00,30.5,26.0,30.24,SE,145,1.0,2.0,83,0.00,,,0.00,VWS V14.01,2013-03-09 10:23:00,
2013-03-09 04:24:00,30.5,26.0,30.24,ESE,111,7.0,7.0,83,0.00,,,0.00,VWS V14.01,2013-03-09 10:24:00,
2013-03-09 04:25:00,30.5,26.0,30.24,SSW,193,6.0,7.0,83,0.00,,,0.00,VWS V14.01,2013-03-09 10:25:00,
2013-03-09 04:26:00,30.5,26.0,30.24,SSE,163,4.0,6.0,83,0.00,,,0.00,VWS V14.01,2013-03-09 10:26:00,
2013-03-09 04:27:00,30.5,26.0,30.24,ESE,107,0.0,4.0,83,0.00,,,0.00,VWS V14.01,2013-03-09 10:27:00,
2013-03-09 04:28:00,30.5,26.0,30.24,South,187,2.0,2.0,83,0.00,,,0.00,VWS V14.01,2013-03-09 10:28:00,
2013-03-09 04:29:00,30.5,26.0,30.25,ESE,122,1.0,3.0,83,0.00,,,0.00,VWS V14.01,2013-03-09 10:29:00,
2013-03-09 04:30:00,30.5,26.0,30.25,SSE,156,2.0,5.0,83,0.00,,,0.00,VWS V14.01,2013-03-09 10:30:00,
2013-03-09 04:31:00,30.5,26.0,30.25,SSW,192,3.0,3.0,83,0.00,,,0.00,VWS V14.01,2013-03-09 10:31:00,
2013-03-09 04:32:00,30.5,26.0,30.25,SSE,152,2.0,3.0,83,0.00,,,0.00,VWS V14.01,2013-03-09 10:32:00,
2013-03-09 04:33:00,30.5,26.0,30.25,SSE,166,4.0,4.0,83,0.00,,,0.00,VWS V14.01,2013-03-09 10:33:00,
2013-03-09 04:34:00,30.5,26.0,30.25,South,179,3.0,5.0,83,0.00,,,0.00,VWS V14.01,2013-03-09 10:34:00,
2013-03-09 04:35:00,30.5,26.0,30.25,South,173,2.0,3.0,83,0.00,,,0.00,VWS V14.01,2013-03-09 10:35:00,
2013-03-09 04:36:00,30.5,26.0,30.25,SSE,150,1.0,3.0,83,0.00,,,0.00,VWS V14.01,2013-03-09 10:36:00,
2013-03-09 04:37:00,30.5,26.0,30.25,SSW,208,2.0,2.0,83,0.00,,,0.00,VWS V14.01,2013-03-09 10:37:00,
2013-03-09 04:38:00,30.5,26.0,30.25,South,186,2.0,3.0,83,0.00,,,0.00,VWS V14.01,2013-03-09 10:38:00,
2013-03-09 04:39:00,30.5,26.0,30.25,ESE,108,1.0,2.0,83,0.00,,,0.00,VWS V14.01,2013-03-09 10:39:00,
2013-03-09 04:40:00,30.5,26.0,30.25,SE,146,4.0,4.0,83,0.00,,,0.00,VWS V14.01,2013-03-09 10:40:00,
2013-03-09 04:41:00,30.5,26.0,30.25,SE,145,3.0,4.0,83,0.00,,,0.00,VWS V14.01,2013-03-09 10:41:00,
2013-03-09 04:42:00,30.5,26.0,30.25,SE,141,3.0,4.0,83,0.00,,,0.00,VWS V14.01,2013-03-09 10:42:00,
2013-03-09 04:43:00,30.6,26.1,30.25,ESE,116,3.0,4.0,83,0.00,,,0.00,VWS V14.01,2013-03-09 10:43:00,
2013-03-09 04:44:00,30.6,26.1,30.25,SE,135,3.0,4.0,83,0.00,,,0.00,VWS V14.01,2013-03-09 10:44:00,
2013-03-09 04:45:00,30.6,26.1,30.24,SE,129,4.0,6.0,83,0.00,,,0.00,VWS V14.01,2013-03-09 10:45:00,
2013-03-09 04:46:00,30.6,26.1,30.25,ESE,118,2.0,4.0,83,0.00,,,0.00,VWS V14.01,2013-03-09 10:46:00,
2013-03-09 04:47:00,30.6,26.1,30.25,SSE,148,2.0,4.0,83,0.00,,,0.00,VWS V14.01,2013-03-09 10:47:00,
2013-03-09 04:48:00,30.6,26.1,30.25,SE,135,3.0,5.0,83,0.00,,,0.00,VWS V14.01,2013-03-09 10:48:00,
2013-03-09 04:49:00,30.7,26.2,30.25,ESE,122,5.0,6.0,83,0.00,,,0.00,VWS V14.01,2013-03-09 10:49:00,
2013-03-09 04:50:00,30.7,25.9,30.25,SSW,197,2.0,5.0,82,0.00,,,0.00,VWS V14.01,2013-03-09 10:50:00,
2013-03-09 04:51:00,30.7,25.9,30.25,East,94,5.0,5.0,82,0.00,,,0.00,VWS V14.01,2013-03-09 10:51:00,
2013-03-09 04:52:00,30.8,26.0,30.25,SSE,155,2.0,5.0,82,0.00,,,0.00,VWS V14.01,2013-03-09 10:52:00,
2013-03-09 04:53:00,30.8,26.0,30.25,SSW,200,1.0,2.0,82,0.00,,,0.00,VWS V14.01,2013-03-09 10:53:00,
2013-03-09 04:54:00,30.8,26.0,30.25,SSE,150,1.0,2.0,82,0.00,,,0.00,VWS V14.01,2013-03-09 10:54:00,
2013-03-09 04:55:00,30.8,26.0,30.25,South,169,1.0,3.0,82,0.00,,,0.00,VWS V14.01,2013-03-09 10:55:00,
2013-03-09 04:56:00,30.8,26.0,30.25,SW,218,3.0,4.0,82,0.00,,,0.00,VWS V14.01,2013-03-09 10:56:00,
2013-03-09 04:57:00,30.8,26.0,30.25,SW,228,3.0,3.0,82,0.00,,,0.00,VWS V14.01,2013-03-09 10:57:00,
2013-03-09 04:58:00,30.8,26.0,30.25,SSE,163,3.0,3.0,82,0.00,,,0.00,VWS V14.01,2013-03-09 10:58:00,
2013-03-09 04:59:00,30.8,26.0,30.25,South,180,1.0,3.0,82,0.00,,,0.00,VWS V14.01,2013-03-09 10:59:00,
2013-03-09 05:00:00,30.8,26.0,30.25,SSW,198,0.0,2.0,82,0.00,,,0.00,VWS V14.01,2013-03-09 11:00:00,
2013-03-09 05:01:00,30.8,26.0,30.25,WSW,238,0.0,1.0,82,0.00,,,0.00,VWS V14.01,2013-03-09 11:01:00,
2013-03-09 05:02:00,30.8,26.0,30.25,SE,132,1.0,1.0,82,0.00,,,0.00,VWS V14.01,2013-03-09 11:02:00,
2013-03-09 05:03:00,30.8,26.0,30.25,SSE,153,1.0,2.0,82,0.00,,,0.00,VWS V14.01,2013-03-09 11:03:00,
2013-03-09 05:04:00,30.8,26.0,30.25,SE,128,1.0,5.0,82,0.00,,,0.00,VWS V14.01,2013-03-09 11:04:00,
2013-03-09 05:05:00,30.8,26.0,30.25,SSW,201,1.0,2.0,82,0.00,,,0.00,VWS V14.01,2013-03-09 11:05:00,
2013-03-09 05:06:00,30.7,25.9,30.25,SW,219,2.0,2.0,82,0.00,,,0.00,VWS V14.01,2013-03-09 11:06:00,
2013-03-09 05:07:00,30.7,26.2,30.25,SSW,195,2.0,5.0,83,0.00,,,0.00,VWS V14.01,2013-03-09 11:07:00,
2013-03-09 05:08:00,30.8,26.0,30.25,SSW,208,2.0,4.0,82,0.00,,,0.00,VWS V14.01,2013-03-09 11:08:00,
2013-03-09 05:09:00,30.8,26.0,30.25,South,186,1.0,5.0,82,0.00,,,0.00,VWS V14.01,2013-03-09 11:09:00,
2013-03-09 05:10:00,30.8,26.0,30.25,SSW,208,4.0,6.0,82,0.00,,,0.00,VWS V14.01,2013-03-09 11:10:00,
2013-03-09 05:11:00,30.8,26.0,30.25,South,184,4.0,6.0,82,0.00,,,0.00,VWS V14.01,2013-03-09 11:11:00,
2013-03-09 05:12:00,30.9,26.1,30.25,SSE,158,6.0,6.0,82,0.00,,,0.00,VWS V14.01,2013-03-09 11:12:00,
2013-03-09 05:13:00,30.9,26.1,30.25,SE,143,5.0,6.0,82,0.00,,,0.00,VWS V14.01,2013-03-09 11:13:00,
2013-03-09 05:14:00,31.0,26.2,30.25,SE,141,2.0,6.0,82,0.00,,,0.00,VWS V14.01,2013-03-09 11:14:00,
2013-03-09 05:15:00,31.0,26.2,30.25,SE,142,3.0,4.0,82,0.00,,,0.00,VWS V14.01,2013-03-09 11:15:00,
2013-03-09 05:16:00,31.0,26.2,30.25,SSE,154,3.0,5.0,82,0.00,,,0.00,VWS V14.01,2013-03-09 11:16:00,
2013-03-09 05:17:00,31.0,26.2,30.25,SSW,196,4.0,6.0,82,0.00,,,0.00,VWS V14.01,2013-03-09 11:17:00,
2013-03-09 05:18:00,31.0,26.2,30.25,ESE,114,4.0,5.0,82,0.00,,,0.00,VWS V14.01,2013-03-09 11:18:00,
2013-03-09 05:19:00,31.1,26.3,30.25,SE,146,1.0,4.0,82,0.00,,,0.00,VWS V14.01,2013-03-09 11:19:00,
2013-03-09 05:20:00,31.1,26.3,30.25,SSW,198,3.0,6.0,82,0.00,,,0.00,VWS V14.01,2013-03-09 11:20:00,
2013-03-09 05:21:00,31.1,26.3,30.25,SSE,155,3.0,3.0,82,0.00,,,0.00,VWS V14.01,2013-03-09 11:21:00,
2013-03-09 05:22:00,31.1,26.3,30.25,SE,136,3.0,5.0,82,0.00,,,0.00,VWS V14.01,2013-03-09 11:22:00,
2013-03-09 05:23:00,31.1,26.3,30.25,SSE,156,3.0,3.0,82,0.00,,,0.00,VWS V14.01,2013-03-09 11:23:00,
2013-03-09 05:24:00,31.1,26.3,30.25,SE,143,5.0,8.0,82,0.00,,,0.00,VWS V14.01,2013-03-09 11:24:00,
2013-03-09 05:25:00,31.2,26.4,30.25,SSE,148,7.0,7.0,82,0.00,,,0.00,VWS V14.01,2013-03-09 11:25:00,
2013-03-09 05:26:00,31.2,26.4,30.25,South,179,4.0,7.0,82,0.00,,,0.00,VWS V14.01,2013-03-09 11:26:00,
2013-03-09 05:27:00,31.2,26.4,30.24,South,173,3.0,5.0,82,0.00,,,0.00,VWS V14.01,2013-03-09 11:27:00,
2013-03-09 05:28:00,31.2,26.4,30.24,SSE,165,5.0,5.0,82,0.00,,,0.00,VWS V14.01,2013-03-09 11:28:00,
2013-03-09 05:29:00,31.2,26.4,30.24,SW,215,0.0,6.0,82,0.00,,,0.00,VWS V14.01,2013-03-09 11:29:00,
2013-03-09 05:30:00,31.2,26.4,30.24,South,186,1.0,4.0,82,0.00,,,0.00,VWS V14.01,2013-03-09 11:30:00,
2013-03-09 05:31:00,31.2,26.4,30.24,SE,140,4.0,4.0,82,0.00,,,0.00,VWS V14.01,2013-03-09 11:31:00,
2013-03-09 05:32:00,31.2,26.4,30.24,SSE,166,3.0,6.0,82,0.00,,,0.00,VWS V14.01,2013-03-09 11:32:00,
2013-03-09 05:33:00,31.2,26.4,30.24,SW,228,1.0,5.0,82,0.00,,,0.00,VWS V14.01,2013-03-09 11:33:00,
2013-03-09 05:34:00,31.2,26.4,30.24,SSE,152,3.0,5.0,82,0.00,,,0.00,VWS V14.01,2013-03-09 11:34:00,
2013-03-09 05:35:00,31.2,26.4,30.24,SE,142,2.0,4.0,82,0.00,,,0.00,VWS V14.01,2013-03-09 11:35:00,
2013-03-09 05:36:00,31.2,26.4,30.24,SSE,165,0.0,3.0,82,0.00,,,0.00,VWS V14.01,2013-03-09 11:36:00,
2013-03-09 05:37:00,31.2,26.4,30.24,SSE,158,5.0,5.0,82,0.00,,,0.00,VWS V14.01,2013-03-09 11:37:00,
2013-03-09 05:38:00,31.2,26.4,30.24,SSE,166,3.0,5.0,82,0.00,,,0.00,VWS V14.01,2013-03-09 11:38:00,
2013-03-09 05:39:00,31.2,26.4,30.24,SE,143,3.0,3.0,82,0.00,,,0.00,VWS V14.01,2013-03-09 11:39:00,
2013-03-09 05:40:00,31.2,26.4,30.24,SSE,162,3.0,5.0,82,0.00,,,0.00,VWS V14.01,2013-03-09 11:40:00,
2013-03-09 05:41:00,31.2,26.4,30.24,South,169,3.0,3.0,82,0.00,,,0.00,VWS V14.01,2013-03-09 11:41:00,
2013-03-09 05:42:00,31.3,26.5,30.24,SSE,160,5.0,6.0,82,0.00,,,0.00,VWS V14.01,2013-03-09 11:42:00,
2013-03-09 05:43:00,31.2,26.4,30.24,SSE,163,1.0,5.0,82,0.00,,,0.00,VWS V14.01,2013-03-09 11:43:00,
2013-03-09 05:44:00,31.3,26.5,30.24,SE,136,1.0,3.0,82,0.00,,,0.00,VWS V14.01,2013-03-09 11:44:00,
2013-03-09 05:45:00,31.3,26.5,30.24,South,169,4.0,6.0,82,0.00,,,0.00,VWS V14.01,2013-03-09 11:45:00,
2013-03-09 05:46:00,31.3,26.5,30.23,South,184,3.0,4.0,82,0.00,,,0.00,VWS V14.01,2013-03-09 11:46:00,
2013-03-09 05:47:00,31.3,26.5,30.23,South,188,2.0,5.0,82,0.00,,,0.00,VWS V14.01,2013-03-09 11:47:00,
2013-03-09 05:48:00,31.3,26.5,30.23,SE,143,4.0,4.0,82,0.00,,,0.00,VWS V14.01,2013-03-09 11:48:00,
2013-03-09 05:49:00,31.3,26.5,30.23,South,186,4.0,5.0,82,0.00,,,0.00,VWS V14.01,2013-03-09 11:49:00,
2013-03-09 05:50:00,31.3,26.5,30.23,SE,134,3.0,5.0,82,0.00,,,0.00,VWS V14.01,2013-03-09 11:50:00,
2013-03-09 05:51:00,31.3,26.5,30.23,SSE,159,2.0,5.0,82,0.00,,,0.00,VWS V14.01,2013-03-09 11:51:00,
2013-03-09 05:52:00,31.3,26.5,30.23,SE,141,2.0,5.0,82,0.00,,,0.00,VWS V14.01,2013-03-09 11:52:00,
2013-03-09 05:53:00,31.4,26.5,30.22,South,172,4.0,6.0,82,0.00,,,0.00,VWS V14.01,2013-03-09 11:53:00,
2013-03-09 05:54:00,31.4,26.5,30.23,SE,131,3.0,6.0,82,0.00,,,0.00,VWS V14.01,2013-03-09 11:54:00,
2013-03-09 05:55:00,31.4,26.5,30.23,East,83,4.0,4.0,82,0.00,,,0.00,VWS V14.01,2013-03-09 11:55:00,
2013-03-09 05:56:00,31.4,26.5,30.22,ESE,107,5.0,7.0,82,0.00,,,0.00,VWS V14.01,2013-03-09 11:56:00,
2013-03-09 05:57:00,31.4,26.5,30.22,South,175,2.0,5.0,82,0.00,,,0.00,VWS V14.01,2013-03-09 11:57:00,
2013-03-09 05:58:00,31.5,26.6,30.23,SSE,148,4.0,5.0,82,0.00,,,0.00,VWS V14.01,2013-03-09 11:58:00,
2013-03-09 05:59:00,31.5,26.6,30.23,SE,130,1.0,5.0,82,0.00,,,0.00,VWS V14.01,2013-03-09 11:59:00,
2013-03-09 06:00:00,31.5,26.4,30.23,WSW,237,2.0,7.0,81,0.00,,,0.00,VWS V14.01,2013-03-09 12:00:00,
2013-03-09 06:01:00,31.5,26.4,30.22,SE,131,6.0,8.0,81,0.00,,,0.00,VWS V14.01,2013-03-09 12:01:00,
2013-03-09 06:02:00,31.6,26.5,30.22,South,170,4.0,7.0,81,0.00,,,0.00,VWS V14.01,2013-03-09 12:02:00,
2013-03-09 06:03:00,31.6,26.5,30.22,SSW,205,2.0,7.0,81,0.00,,,0.00,VWS V14.01,2013-03-09 12:03:00,
2013-03-09 06:04:00,31.6,26.5,30.22,SE,143,6.0,6.0,81,0.00,,,0.00,VWS V14.01,2013-03-09 12:04:00,
2013-03-09 06:05:00,31.6,26.5,30.22,SSE,148,3.0,6.0,81,0.00,,,0.00,VWS V14.01,2013-03-09 12:05:00,
2013-03-09 06:06:00,31.7,26.5,30.22,SSE,155,4.0,5.0,81,0.00,,,0.00,VWS V14.01,2013-03-09 12:06:00,
2013-03-09 06:07:00,31.7,26.5,30.22,SSE,158,5.0,8.0,81,0.00,,,0.00,VWS V14.01,2013-03-09 12:07:00,
2013-03-09 06:08:00,31.7,26.5,30.22,SSE,150,3.0,6.0,81,0.00,,,0.00,VWS V14.01,2013-03-09 12:08:00,
2013-03-09 06:09:00,31.7,26.5,30.22,SSE,159,5.0,7.0,81,0.00,,,0.00,VWS V14.01,2013-03-09 12:09:00,
2013-03-09 06:10:00,31.7,26.5,30.22,SSW,201,2.0,5.0,81,0.00,,,0.00,VWS V14.01,2013-03-09 12:10:00,
2013-03-09 06:11:00,31.7,26.5,30.22,ESE,113,6.0,6.0,81,0.00,,,0.00,VWS V14.01,2013-03-09 12:11:00,
2013-03-09 06:12:00,31.7,26.5,30.22,SE,134,5.0,7.0,81,0.00,,,0.00,VWS V14.01,2013-03-09 12:12:00,
2013-03-09 06:13:00,31.7,26.5,30.22,South,171,3.0,6.0,81,0.00,,,0.00,VWS V14.01,2013-03-09 12:13:00,
2013-03-09 06:14:00,31.7,26.5,30.22,SSE,162,2.0,8.0,81,0.00,,,0.00,VWS V14.01,2013-03-09 12:14:00,
2013-03-09 06:15:00,31.7,26.5,30.22,SSE,158,5.0,5.0,81,0.00,,,0.00,VWS V14.01,2013-03-09 12:15:00,
2013-03-09 06:16:00,31.7,26.5,30.22,SSE,162,3.0,6.0,81,0.00,,,0.00,VWS V14.01,2013-03-09 12:16:00,
2013-03-09 06:17:00,31.7,26.5,30.22,SE,142,3.0,7.0,81,0.00,,,0.00,VWS V14.01,2013-03-09 12:17:00,
2013-03-09 06:18:00,31.7,26.5,30.22,South,191,6.0,6.0,81,0.00,,,0.00,VWS V14.01,2013-03-09 12:18:00,
2013-03-09 06:19:00,31.7,26.5,30.22,East,80,7.0,7.0,81,0.00,,,0.00,VWS V14.01,2013-03-09 12:19:00,
2013-03-09 06:20:00,31.7,26.5,30.22,SE,141,8.0,8.0,81,0.00,,,0.00,VWS V14.01,2013-03-09 12:20:00,
2013-03-09 06:21:00,31.7,26.5,30.22,SSE,158,3.0,9.0,81,0.00,,,0.00,VWS V14.01,2013-03-09 12:21:00,
2013-03-09 06:22:00,31.7,26.5,30.22,SE,139,7.0,7.0,81,0.00,,,0.00,VWS V14.01,2013-03-09 12:22:00,
2013-03-09 06:23:00,31.7,26.5,30.22,SSE,153,3.0,7.0,81,0.00,,,0.00,VWS V14.01,2013-03-09 12:23:00,
2013-03-09 06:24:00,31.8,26.6,30.22,SSE,153,9.0,12.0,81,0.00,,,0.00,VWS V14.01,2013-03-09 12:24:00,
2013-03-09 06:25:00,31.7,26.5,30.21,South,176,3.0,9.0,81,0.00,,,0.00,VWS V14.01,2013-03-09 12:25:00,
2013-03-09 06:26:00,31.8,26.9,30.21,SE,136,6.0,8.0,82,0.00,,,0.00,VWS V14.01,2013-03-09 12:26:00,
2013-03-09 06:27:00,31.8,26.6,30.22,SE,134,6.0,10.0,81,0.00,,,0.00,VWS V14.01,2013-03-09 12:27:00,
2013-03-09 06:28:00,31.8,26.6,30.21,SE,137,3.0,7.0,81,0.00,,,0.00,VWS V14.01,2013-03-09 12:28:00,
2013-03-09 06:29:00,31.8,26.9,30.21,SSW,198,3.0,6.0,82,0.00,,,0.00,VWS V14.01,2013-03-09 12:29:00,
2013-03-09 06:30:00,31.8,26.9,30.22,South,186,2.0,7.0,82,0.00,,,0.00,VWS V14.01,2013-03-09 12:30:00,
2013-03-09 06:31:00,31.8,26.9,30.22,South,171,3.0,6.0,82,0.00,,,0.00,VWS V14.01,2013-03-09 12:31:00,
2013-03-09 06:32:00,31.8,26.9,30.22,SSW,196,7.0,7.0,82,0.00,,,0.00,VWS V14.01,2013-03-09 12:32:00,
2013-03-09 06:33:00,31.8,26.9,30.22,SSW,203,2.0,7.0,82,0.00,,,0.00,VWS V14.01,2013-03-09 12:33:00,
2013-03-09 06:34:00,31.8,26.9,30.22,South,179,2.0,7.0,82,0.00,,,0.00,VWS V14.01,2013-03-09 12:34:00,
2013-03-09 06:35:00,31.8,26.9,30.22,East,97,2.0,7.0,82,0.00,,,0.00,VWS V14.01,2013-03-09 12:35:00,
2013-03-09 06:36:00,31.8,26.9,30.22,South,181,4.0,5.0,82,0.00,,,0.00,VWS V14.01,2013-03-09 12:36:00,
2013-03-09 06:37:00,31.8,26.9,30.22,SSE,167,4.0,6.0,82,0.00,,,0.00,VWS V14.01,2013-03-09 12:37:00,
2013-03-09 06:38:00,31.8,26.9,30.22,South,176,4.0,7.0,82,0.00,,,0.00,VWS V14.01,2013-03-09 12:38:00,
2013-03-09 06:39:00,31.9,27.0,30.22,SSW,193,4.0,5.0,82,0.00,,,0.00,VWS V14.01,2013-03-09 12:39:00,
2013-03-09 06:40:00,31.9,27.0,30.22,SE,143,2.0,11.0,82,0.00,,,0.00,VWS V14.01,2013-03-09 12:40:00,
2013-03-09 06:41:00,31.9,27.0,30.22,SSE,150,1.0,4.0,82,0.00,,,0.00,VWS V14.01,2013-03-09 12:41:00,
2013-03-09 06:42:00,31.9,27.0,30.22,SSW,205,2.0,6.0,82,0.00,,,0.00,VWS V14.01,2013-03-09 12:42:00,
2013-03-09 06:43:00,31.9,27.0,30.22,SE,124,1.0,5.0,82,0.00,,,0.00,VWS V14.01,2013-03-09 12:43:00,
2013-03-09 06:44:00,31.9,27.0,30.22,SSW,197,4.0,4.0,82,0.00,,,0.00,VWS V14.01,2013-03-09 12:44:00,
2013-03-09 06:45:00,31.9,27.0,30.21,South,177,3.0,4.0,82,0.00,,,0.00,VWS V14.01,2013-03-09 12:45:00,
2013-03-09 06:46:00,31.9,27.0,30.22,South,187,4.0,5.0,82,0.00,,,0.00,VWS V14.01,2013-03-09 12:46:00,
2013-03-09 06:47:00,31.9,27.0,30.22,South,180,7.0,7.0,82,0.00,,,0.00,VWS V14.01,2013-03-09 12:47:00,
2013-03-09 06:48:00,31.9,27.0,30.22,South,179,3.0,7.0,82,0.00,,,0.00,VWS V14.01,2013-03-09 12:48:00,
2013-03-09 06:49:00,32.0,27.1,30.22,West,271,3.0,6.0,82,0.00,,,0.00,VWS V14.01,2013-03-09 12:49:00,
2013-03-09 06:50:00,32.0,27.1,30.22,SE,136,4.0,6.0,82,0.00,,,0.00,VWS V14.01,2013-03-09 12:50:00,
2013-03-09 06:51:00,32.0,27.1,30.22,SSE,152,3.0,7.0,82,0.00,,,0.00,VWS V14.01,2013-03-09 12:51:00,
2013-03-09 06:52:00,32.0,27.1,30.22,South,174,4.0,6.0,82,0.00,,,0.00,VWS V14.01,2013-03-09 12:52:00,
2013-03-09 06:53:00,32.0,27.1,30.22,SSW,211,5.0,6.0,82,0.00,,,0.00,VWS V14.01,2013-03-09 12:53:00,
2013-03-09 06:54:00,32.1,27.2,30.22,SSW,198,2.0,5.0,82,0.00,,,0.00,VWS V14.01,2013-03-09 12:54:00,
2013-03-09 06:55:00,32.1,27.2,30.22,SE,141,2.0,3.0,82,0.00,,,0.00,VWS V14.01,2013-03-09 12:55:00,
2013-03-09 06:56:00,32.1,27.2,30.22,SSW,201,5.0,7.0,82,0.00,,,0.00,VWS V14.01,2013-03-09 12:56:00,
2013-03-09 06:57:00,32.1,27.2,30.22,South,187,2.0,5.0,82,0.00,,,0.00,VWS V14.01,2013-03-09 12:57:00,
2013-03-09 06:58:00,32.2,27.3,30.22,ESE,106,2.0,4.0,82,0.00,,,0.00,VWS V14.01,2013-03-09 12:58:00,
2013-03-09 06:59:00,32.2,27.3,30.22,SSW,197,3.0,4.0,82,0.00,,,0.00,VWS V14.01,2013-03-09 12:59:00,
2013-03-09 07:00:00,32.2,27.3,30.22,North,6,2.0,6.0,82,0.00,,,0.00,VWS V14.01,2013-03-09 13:00:00,
2013-03-09 07:01:00,32.2,27.3,30.21,SSE,154,3.0,4.0,82,0.00,,,0.00,VWS V14.01,2013-03-09 13:01:00,
2013-03-09 07:02:00,32.3,27.4,30.21,SSW,195,1.0,3.0,82,0.00,,,0.00,VWS V14.01,2013-03-09 13:02:00,
2013-03-09 07:03:00,32.3,27.4,30.21,South,186,3.0,5.0,82,0.00,,,0.00,VWS V14.01,2013-03-09 13:03:00,
2013-03-09 07:04:00,32.3,27.4,30.22,South,188,3.0,3.0,82,0.00,,,0.00,VWS V14.01,2013-03-09 13:04:00,
2013-03-09 07:05:00,32.3,27.4,30.22,SSE,152,2.0,3.0,82,0.00,,,0.00,VWS V14.01,2013-03-09 13:05:00,
2013-03-09 07:06:00,32.3,27.4,30.21,South,190,3.0,4.0,82,0.00,,,0.00,VWS V14.01,2013-03-09 13:06:00,
2013-03-09 07:07:00,32.4,27.5,30.22,ESE,107,4.0,4.0,82,0.00,,,0.00,VWS V14.01,2013-03-09 13:07:00,
2013-03-09 07:08:00,32.4,27.2,30.21,SSW,200,4.0,7.0,81,0.00,,,0.00,VWS V14.01,2013-03-09 13:08:00,
2013-03-09 07:09:00,32.4,27.2,30.21,SSE,152,5.0,7.0,81,0.00,,,0.00,VWS V14.01,2013-03-09 13:09:00,
2013-03-09 07:10:00,32.4,27.2,30.21,SSE,150,5.0,7.0,81,0.00,,,0.00,VWS V14.01,2013-03-09 13:10:00,
2013-03-09 07:11:00,32.5,27.3,30.21,SSE,158,4.0,5.0,81,0.00,,,0.00,VWS V14.01,2013-03-09 13:11:00,
2013-03-09 07:12:00,32.5,27.3,30.21,SSE,153,3.0,4.0,81,0.00,,,0.00,VWS V14.01,2013-03-09 13:12:00,
2013-03-09 07:13:00,32.5,27.3,30.21,SSE,160,3.0,5.0,81,0.00,,,0.00,VWS V14.01,2013-03-09 13:13:00,
2013-03-09 07:14:00,32.5,27.3,30.21,SE,146,5.0,7.0,81,0.00,,,0.00,VWS V14.01,2013-03-09 13:14:00,
2013-03-09 07:15:00,32.6,27.4,30.21,SE,129,5.0,5.0,81,0.00,,,0.00,VWS V14.01,2013-03-09 13:15:00,
2013-03-09 07:16:00,32.6,27.4,30.21,South,173,2.0,5.0,81,0.00,,,0.00,VWS V14.01,2013-03-09 13:16:00,
2013-03-09 07:17:00,32.6,27.4,30.21,SSW,207,3.0,5.0,81,0.00,,,0.00,VWS V14.01,2013-03-09 13:17:00,
2013-03-09 07:18:00,32.7,27.5,30.21,SSE,160,2.0,4.0,81,0.00,,,0.00,VWS V14.01,2013-03-09 13:18:00,
2013-03-09 07:19:00,32.7,27.5,30.21,ESE,106,3.0,4.0,81,0.00,,,0.00,VWS V14.01,2013-03-09 13:19:00,
2013-03-09 07:20:00,32.7,27.5,30.21,SE,143,2.0,3.0,81,0.00,,,0.00,VWS V14.01,2013-03-09 13:20:00,
2013-03-09 07:21:00,32.8,27.6,30.21,ESE,108,3.0,4.0,81,0.00,,,0.00,VWS V14.01,2013-03-09 13:21:00,
2013-03-09 07:22:00,32.8,27.6,30.21,SE,125,3.0,5.0,81,0.00,,,0.00,VWS V14.01,2013-03-09 13:22:00,
2013-03-09 07:23:00,32.8,27.6,30.21,ESE,103,5.0,7.0,81,0.00,,,0.00,VWS V14.01,2013-03-09 13:23:00,
2013-03-09 07:24:00,32.8,27.6,30.21,SSE,156,4.0,5.0,81,0.00,,,0.00,VWS V14.01,2013-03-09 13:24:00,
2013-03-09 07:25:00,32.9,27.7,30.21,SSE,156,4.0,6.0,81,0.00,,,0.00,VWS V14.01,2013-03-09 13:25:00,
2013-03-09 07:26:00,32.9,27.7,30.20,ESE,121,5.0,5.0,81,0.00,,,0.00,VWS V14.01,2013-03-09 13:26:00,
2013-03-09 07:27:00,32.9,27.7,30.20,SSE,162,4.0,8.0,81,0.00,,,0.00,VWS V14.01,2013-03-09 13:27:00,
2013-03-09 07:28:00,32.9,27.7,30.20,ESE,114,4.0,7.0,81,0.00,,,0.00,VWS V14.01,2013-03-09 13:28:00,
2013-03-09 07:29:00,33.0,27.8,30.20,SE,139,8.0,9.0,81,0.00,,,0.00,VWS V14.01,2013-03-09 13:29:00,
2013-03-09 07:30:00,33.0,27.8,30.20,SE,134,4.0,8.0,81,0.00,,,0.00,VWS V14.01,2013-03-09 13:30:00,
2013-03-09 07:31:00,33.0,27.8,30.20,SSE,152,3.0,5.0,81,0.00,,,0.00,VWS V14.01,2013-03-09 13:31:00,
2013-03-09 07:32:00,33.1,27.9,30.21,South,191,2.0,5.0,81,0.00,,,0.00,VWS V14.01,2013-03-09 13:32:00,
2013-03-09 07:33:00,33.1,27.9,30.21,SSE,160,1.0,8.0,81,0.00,,,0.00,VWS V14.01,2013-03-09 13:33:00,
2013-03-09 07:34:00,33.1,27.9,30.21,SSW,212,4.0,6.0,81,0.00,,,0.00,VWS V14.01,2013-03-09 13:34:00,
2013-03-09 07:35:00,33.1,27.6,30.21,SSW,198,7.0,7.0,80,0.00,,,0.00,VWS V14.01,2013-03-09 13:35:00,
2013-03-09 07:36:00,33.2,27.7,30.21,South,187,4.0,7.0,80,0.00,,,0.00,VWS V14.01,2013-03-09 13:36:00,
2013-03-09 07:37:00,33.2,27.7,30.21,SE,129,7.0,10.0,80,0.00,,,0.00,VWS V14.01,2013-03-09 13:37:00,
2013-03-09 07:38:00,33.2,27.7,30.21,South,183,7.0,8.0,80,0.00,,,0.00,VWS V14.01,2013-03-09 13:38:00,
2013-03-09 07:39:00,33.3,27.8,30.21,SW,217,5.0,7.0,80,0.00,,,0.00,VWS V14.01,2013-03-09 13:39:00,
2013-03-09 07:40:00,33.3,27.8,30.21,SSE,148,7.0,8.0,80,0.00,,,0.00,VWS V14.01,2013-03-09 13:40:00,
2013-03-09 07:41:00,33.3,27.8,30.21,ESE,121,3.0,8.0,80,0.00,,,0.00,VWS V14.01,2013-03-09 13:41:00,
2013-03-09 07:42:00,33.4,27.9,30.21,SSE,166,4.0,4.0,80,0.00,,,0.00,VWS V14.01,2013-03-09 13:42:00,
2013-03-09 07:43:00,33.4,27.9,30.21,ESE,117,1.0,5.0,80,0.00,,,0.00,VWS V14.01,2013-03-09 13:43:00,
2013-03-09 07:44:00,33.5,28.0,30.21,SSE,162,5.0,6.0,80,0.00,,,0.00,VWS V14.01,2013-03-09 13:44:00,
2013-03-09 07:45:00,33.5,28.0,30.21,South,183,6.0,6.0,80,0.00,,,0.00,VWS V14.01,2013-03-09 13:45:00,
2013-03-09 07:46:00,33.5,28.0,30.21,SSE,156,3.0,6.0,80,0.00,,,0.00,VWS V14.01,2013-03-09 13:46:00,
2013-03-09 07:47:00,33.6,28.1,30.21,SSE,158,7.0,8.0,80,0.00,,,0.00,VWS V14.01,2013-03-09 13:47:00,
2013-03-09 07:48:00,33.6,28.1,30.21,ESE,102,4.0,7.0,80,0.00,,,0.00,VWS V14.01,2013-03-09 13:48:00,
2013-03-09 07:49:00,33.6,28.1,30.21,South,174,4.0,7.0,80,0.00,,,0.00,VWS V14.01,2013-03-09 13:49:00,
2013-03-09 07:50:00,33.6,28.1,30.21,South,170,5.0,5.0,80,0.00,,,0.00,VWS V14.01,2013-03-09 13:50:00,
2013-03-09 07:51:00,33.7,28.2,30.21,SSE,150,5.0,8.0,80,0.00,,,0.00,VWS V14.01,2013-03-09 13:51:00,
2013-03-09 07:52:00,33.7,28.2,30.21,ESE,120,3.0,7.0,80,0.00,,,0.00,VWS V14.01,2013-03-09 13:52:00,
2013-03-09 07:53:00,33.7,28.2,30.21,South,183,5.0,8.0,80,0.00,,,0.00,VWS V14.01,2013-03-09 13:53:00,
2013-03-09 07:54:00,33.7,27.9,30.21,SSW,195,5.0,6.0,79,0.00,,,0.00,VWS V14.01,2013-03-09 13:54:00,
2013-03-09 07:55:00,33.7,28.2,30.21,South,186,6.0,7.0,80,0.00,,,0.00,VWS V14.01,2013-03-09 13:55:00,
2013-03-09 07:56:00,33.7,27.9,30.21,South,177,4.0,8.0,79,0.00,,,0.00,VWS V14.01,2013-03-09 13:56:00,
2013-03-09 07:57:00,33.8,28.0,30.21,South,170,6.0,6.0,79,0.00,,,0.00,VWS V14.01,2013-03-09 13:57:00,
2013-03-09 07:58:00,33.9,28.4,30.21,South,170,3.0,6.0,80,0.00,,,0.00,VWS V14.01,2013-03-09 13:58:00,
2013-03-09 07:59:00,33.8,28.3,30.21,SSE,162,4.0,9.0,80,0.00,,,0.00,VWS V14.01,2013-03-09 13:59:00,
2013-03-09 08:00:00,33.8,28.0,30.21,SSE,153,5.0,7.0,79,0.00,,,0.00,VWS V14.01,2013-03-09 14:00:00,
2013-03-09 08:01:00,33.8,28.0,30.21,SSE,161,7.0,10.0,79,0.00,,,0.00,VWS V14.01,2013-03-09 14:01:00,
2013-03-09 08:02:00,33.9,28.1,30.21,SSE,160,4.0,11.0,79,0.00,,,0.00,VWS V14.01,2013-03-09 14:02:00,
2013-03-09 08:03:00,33.9,28.1,30.21,SSE,166,4.0,10.0,79,0.00,,,0.00,VWS V14.01,2013-03-09 14:03:00,
2013-03-09 08:04:00,33.9,28.1,30.21,South,172,3.0,5.0,79,0.00,,,0.00,VWS V14.01,2013-03-09 14:04:00,
2013-03-09 08:05:00,33.9,28.1,30.21,East,96,1.0,5.0,79,0.00,,,0.00,VWS V14.01,2013-03-09 14:05:00,
2013-03-09 08:06:00,33.9,28.1,30.21,South,177,5.0,7.0,79,0.00,,,0.00,VWS V14.01,2013-03-09 14:06:00,
2013-03-09 08:07:00,33.9,28.1,30.21,SE,143,4.0,9.0,79,0.00,,,0.00,VWS V14.01,2013-03-09 14:07:00,
2013-03-09 08:08:00,33.9,28.1,30.21,ENE,70,6.0,6.0,79,0.00,,,0.00,VWS V14.01,2013-03-09 14:08:00,
2013-03-09 08:09:00,34.0,28.2,30.21,SSW,192,6.0,7.0,79,0.00,,,0.00,VWS V14.01,2013-03-09 14:09:00,
2013-03-09 08:10:00,34.0,28.2,30.21,SW,224,4.0,8.0,79,0.00,,,0.00,VWS V14.01,2013-03-09 14:10:00,
2013-03-09 08:11:00,34.0,28.2,30.21,SE,146,3.0,4.0,79,0.00,,,0.00,VWS V14.01,2013-03-09 14:11:00,
2013-03-09 08:12:00,34.0,28.2,30.21,SE,131,5.0,6.0,79,0.00,,,0.00,VWS V14.01,2013-03-09 14:12:00,
2013-03-09 08:13:00,34.0,28.2,30.21,South,179,3.0,7.0,79,0.00,,,0.00,VWS V14.01,2013-03-09 14:13:00,
2013-03-09 08:14:00,34.0,28.2,30.21,SSE,162,2.0,5.0,79,0.00,,,0.00,VWS V14.01,2013-03-09 14:14:00,
2013-03-09 08:15:00,34.0,28.2,30.21,ESE,117,5.0,5.0,79,0.00,,,0.00,VWS V14.01,2013-03-09 14:15:00,
2013-03-09 08:16:00,34.1,28.3,30.21,SSE,165,5.0,6.0,79,0.00,,,0.00,VWS V14.01,2013-03-09 14:16:00,
2013-03-09 08:17:00,34.1,28.3,30.21,SSE,148,2.0,5.0,79,0.00,,,0.00,VWS V14.01,2013-03-09 14:17:00,
2013-03-09 08:18:00,34.1,28.3,30.21,SE,139,3.0,8.0,79,0.00,,,0.00,VWS V14.01,2013-03-09 14:18:00,
2013-03-09 08:19:00,34.2,28.4,30.21,SSW,193,3.0,6.0,79,0.00,,,0.00,VWS V14.01,2013-03-09 14:19:00,
2013-03-09 08:20:00,34.2,28.4,30.21,SE,139,4.0,5.0,79,0.00,,,0.00,VWS V14.01,2013-03-09 14:20:00,
2013-03-09 08:21:00,34.3,28.5,30.21,SW,221,3.0,5.0,79,0.00,,,0.00,VWS V14.01,2013-03-09 14:21:00,
2013-03-09 08:22:00,34.3,28.5,30.21,SSW,194,4.0,4.0,79,0.00,,,0.00,VWS V14.01,2013-03-09 14:22:00,
2013-03-09 08:23:00,34.3,28.5,30.21,SSE,163,3.0,4.0,79,0.00,,,0.00,VWS V14.01,2013-03-09 14:23:00,
2013-03-09 08:24:00,34.4,28.6,30.21,South,170,2.0,4.0,79,0.00,,,0.00,VWS V14.01,2013-03-09 14:24:00,
2013-03-09 08:25:00,34.5,28.7,30.21,SSW,192,3.0,4.0,79,0.00,,,0.00,VWS V14.01,2013-03-09 14:25:00,
2013-03-09 08:26:00,34.5,28.7,30.21,SE,146,3.0,3.0,79,0.00,,,0.00,VWS V14.01,2013-03-09 14:26:00,
2013-03-09 08:27:00,34.6,28.8,30.21,South,174,1.0,3.0,79,0.00,,,0.00,VWS V14.01,2013-03-09 14:27:00,
2013-03-09 08:28:00,34.6,28.8,30.21,South,187,3.0,5.0,79,0.00,,,0.00,VWS V14.01,2013-03-09 14:28:00,
2013-03-09 08:29:00,34.7,28.9,30.21,SE,146,4.0,4.0,79,0.00,,,0.00,VWS V14.01,2013-03-09 14:29:00,
2013-03-09 08:30:00,34.7,28.6,30.21,SSE,152,5.0,6.0,78,0.00,,,0.00,VWS V14.01,2013-03-09 14:30:00,
2013-03-09 08:31:00,34.8,28.6,30.21,ESE,106,4.0,6.0,78,0.00,,,0.00,VWS V14.01,2013-03-09 14:31:00,
2013-03-09 08:32:00,34.8,28.6,30.21,SSE,167,3.0,7.0,78,0.00,,,0.00,VWS V14.01,2013-03-09 14:32:00,
2013-03-09 08:33:00,34.8,28.6,30.21,SE,139,4.0,6.0,78,0.00,,,0.00,VWS V14.01,2013-03-09 14:33:00,
2013-03-09 08:34:00,34.8,28.6,30.20,South,188,4.0,8.0,78,0.00,,,0.00,VWS V14.01,2013-03-09 14:34:00,
2013-03-09 08:35:00,34.8,28.6,30.20,East,82,2.0,6.0,78,0.00,,,0.00,VWS V14.01,2013-03-09 14:35:00,
2013-03-09 08:36:00,34.9,28.8,30.20,SSW,207,4.0,7.0,78,0.00,,,0.00,VWS V14.01,2013-03-09 14:36:00,
2013-03-09 08:37:00,34.9,28.8,30.20,NW,325,5.0,7.0,78,0.00,,,0.00,VWS V14.01,2013-03-09 14:37:00,
2013-03-09 08:38:00,34.9,28.8,30.20,SSW,198,3.0,6.0,78,0.00,,,0.00,VWS V14.01,2013-03-09 14:38:00,
2013-03-09 08:39:00,34.9,28.8,30.20,SE,142,3.0,6.0,78,0.00,,,0.00,VWS V14.01,2013-03-09 14:39:00,
2013-03-09 08:40:00,34.9,29.1,30.20,SE,127,3.0,8.0,79,0.00,,,0.00,VWS V14.01,2013-03-09 14:40:00,
2013-03-09 08:41:00,34.9,29.1,30.20,SE,139,5.0,7.0,79,0.00,,,0.00,VWS V14.01,2013-03-09 14:41:00,
2013-03-09 08:42:00,34.9,29.1,30.20,SE,134,2.0,5.0,79,0.00,,,0.00,VWS V14.01,2013-03-09 14:42:00,
2013-03-09 08:43:00,34.9,29.1,30.20,East,93,6.0,6.0,79,0.00,,,0.00,VWS V14.01,2013-03-09 14:43:00,
2013-03-09 08:44:00,34.9,29.1,30.20,ENE,74,4.0,6.0,79,0.00,,,0.00,VWS V14.01,2013-03-09 14:44:00,
2013-03-09 08:45:00,34.9,29.1,30.20,SE,138,4.0,5.0,79,0.00,,,0.00,VWS V14.01,2013-03-09 14:45:00,
2013-03-09 08:46:00,34.9,29.1,30.20,ESE,118,2.0,5.0,79,0.00,,,0.00,VWS V14.01,2013-03-09 14:46:00,
2013-03-09 08:47:00,34.9,29.4,30.20,SSW,200,2.0,6.0,80,0.00,,,0.00,VWS V14.01,2013-03-09 14:47:00,
2013-03-09 08:48:00,34.9,29.4,30.20,SSE,153,4.0,8.0,80,0.00,,,0.00,VWS V14.01,2013-03-09 14:48:00,
2013-03-09 08:49:00,34.9,29.4,30.20,SSE,166,3.0,8.0,80,0.00,,,0.00,VWS V14.01,2013-03-09 14:49:00,
2013-03-09 08:50:00,34.9,29.1,30.20,SE,146,6.0,6.0,79,0.00,,,0.00,VWS V14.01,2013-03-09 14:50:00,
2013-03-09 08:51:00,34.9,29.4,30.20,SSE,162,4.0,7.0,80,0.00,,,0.00,VWS V14.01,2013-03-09 14:51:00,
2013-03-09 08:52:00,35.0,29.5,30.20,SSE,149,8.0,8.0,80,0.00,,,0.00,VWS V14.01,2013-03-09 14:52:00,
2013-03-09 08:53:00,34.9,29.4,30.19,South,187,3.0,9.0,80,0.00,,,0.00,VWS V14.01,2013-03-09 14:53:00,
2013-03-09 08:54:00,34.9,29.4,30.20,SSW,194,1.0,6.0,80,0.00,,,0.00,VWS V14.01,2013-03-09 14:54:00,
2013-03-09 08:55:00,34.9,29.4,30.20,South,190,3.0,4.0,80,0.00,,,0.00,VWS V14.01,2013-03-09 14:55:00,
2013-03-09 08:56:00,34.9,29.7,30.20,South,181,3.0,5.0,81,0.00,,,0.00,VWS V14.01,2013-03-09 14:56:00,
2013-03-09 08:57:00,35.0,29.8,30.20,SE,125,4.0,4.0,81,0.00,,,0.00,VWS V14.01,2013-03-09 14:57:00,
2013-03-09 08:58:00,34.9,29.7,30.19,SSE,167,4.0,4.0,81,0.00,,,0.00,VWS V14.01,2013-03-09 14:58:00,
2013-03-09 08:59:00,34.9,29.7,30.20,SSE,155,4.0,6.0,81,0.00,,,0.00,VWS V14.01,2013-03-09 14:59:00,
2013-03-09 09:00:00,34.9,29.7,30.20,SSE,152,3.0,7.0,81,0.00,,,0.00,VWS V14.01,2013-03-09 15:00:00,
2013-03-09 09:01:00,34.9,30.0,30.20,SSE,165,2.0,5.0,82,0.01,,,0.01,VWS V14.01,2013-03-09 15:01:00,
2013-03-09 09:02:00,34.9,30.0,30.19,SSW,210,2.0,3.0,82,0.01,,,0.01,VWS V14.01,2013-03-09 15:02:00,
2013-03-09 09:03:00,35.0,30.1,30.19,SE,146,3.0,3.0,82,0.01,,,0.01,VWS V14.01,2013-03-09 15:03:00,
2013-03-09 09:04:00,35.0,30.1,30.19,SSE,159,1.0,4.0,82,0.01,,,0.01,VWS V14.01,2013-03-09 15:04:00,
2013-03-09 09:05:00,35.0,30.1,30.19,SSE,160,1.0,3.0,82,0.01,,,0.01,VWS V14.01,2013-03-09 15:05:00,
2013-03-09 09:06:00,35.0,30.4,30.19,South,173,2.0,4.0,83,0.01,,,0.01,VWS V14.01,2013-03-09 15:06:00,
2013-03-09 09:07:00,35.0,30.4,30.19,South,181,5.0,7.0,83,0.01,,,0.01,VWS V14.01,2013-03-09 15:07:00,
2013-03-09 09:08:00,34.9,30.3,30.19,SSE,158,3.0,5.0,83,0.01,,,0.01,VWS V14.01,2013-03-09 15:08:00,
2013-03-09 09:09:00,35.0,30.4,30.19,SSE,149,4.0,5.0,83,0.01,,,0.01,VWS V14.01,2013-03-09 15:09:00,
2013-03-09 09:10:00,35.0,30.4,30.19,SE,146,1.0,5.0,83,0.01,,,0.01,VWS V14.01,2013-03-09 15:10:00,
2013-03-09 09:11:00,35.0,30.4,30.19,East,96,2.0,3.0,83,0.02,,,0.02,VWS V14.01,2013-03-09 15:11:00,
2013-03-09 09:12:00,35.0,30.7,30.19,SSW,212,2.0,4.0,84,0.02,,,0.02,VWS V14.01,2013-03-09 15:12:00,
2013-03-09 09:13:00,35.0,30.7,30.19,ESE,110,1.0,3.0,84,0.02,,,0.02,VWS V14.01,2013-03-09 15:13:00,
2013-03-09 09:14:00,35.1,30.8,30.19,SE,139,0.0,2.0,84,0.02,,,0.02,VWS V14.01,2013-03-09 15:14:00,
2013-03-09 09:15:00,35.2,31.1,30.19,SSW,197,5.0,5.0,85,0.02,,,0.02,VWS V14.01,2013-03-09 15:15:00,
2013-03-09 09:16:00,35.2,30.9,30.19,SSW,200,1.0,5.0,84,0.02,,,0.02,VWS V14.01,2013-03-09 15:16:00,
2013-03-09 09:17:00,35.3,31.2,30.19,SSE,156,3.0,4.0,85,0.02,,,0.02,VWS V14.01,2013-03-09 15:17:00,
2013-03-09 09:18:00,35.3,31.0,30.19,WSW,239,1.0,3.0,84,0.02,,,0.02,VWS V14.01,2013-03-09 15:18:00,
2013-03-09 09:19:00,35.4,31.4,30.18,SSE,148,1.0,3.0,85,0.02,,,0.02,VWS V14.01,2013-03-09 15:19:00,
2013-03-09 09:20:00,35.4,31.4,30.18,ESE,121,1.0,3.0,85,0.02,,,0.02,VWS V14.01,2013-03-09 15:20:00,
2013-03-09 09:21:00,35.4,31.4,30.18,SE,128,2.0,4.0,85,0.02,,,0.02,VWS V14.01,2013-03-09 15:21:00,
2013-03-09 09:22:00,35.5,31.5,30.18,SSE,159,3.0,4.0,85,0.02,,,0.02,VWS V14.01,2013-03-09 15:22:00,
2013-03-09 09:23:00,35.4,31.4,30.18,SE,142,4.0,5.0,85,0.02,,,0.02,VWS V14.01,2013-03-09 15:23:00,
2013-03-09 09:24:00,35.4,31.4,30.18,ESE,107,4.0,4.0,85,0.02,,,0.02,VWS V14.01,2013-03-09 15:24:00,
2013-03-09 09:25:00,35.4,31.4,30.18,South,181,2.0,4.0,85,0.02,,,0.02,VWS V14.01,2013-03-09 15:25:00,
2013-03-09 09:26:00,35.4,31.4,30.18,SSE,148,4.0,4.0,85,0.04,,,0.04,VWS V14.01,2013-03-09 15:26:00,
2013-03-09 09:27:00,35.4,31.4,30.18,SE,128,3.0,4.0,85,0.04,,,0.04,VWS V14.01,2013-03-09 15:27:00,
2013-03-09 09:28:00,35.4,31.4,30.18,SE,126,4.0,5.0,85,0.04,,,0.04,VWS V14.01,2013-03-09 15:28:00,
2013-03-09 09:29:00,35.3,31.0,30.17,ESE,118,3.0,5.0,84,0.04,,,0.04,VWS V14.01,2013-03-09 15:29:00,
2013-03-09 09:30:00,35.3,31.0,30.17,ESE,107,5.0,7.0,84,0.04,,,0.04,VWS V14.01,2013-03-09 15:30:00,
2013-03-09 09:31:00,35.2,30.9,30.17,ESE,107,2.0,7.0,84,0.04,,,0.04,VWS V14.01,2013-03-09 15:31:00,
2013-03-09 09:32:00,35.2,31.1,30.17,SE,134,4.0,7.0,85,0.04,,,0.04,VWS V14.01,2013-03-09 15:32:00,
2013-03-09 09:33:00,35.1,31.0,30.17,SSE,150,4.0,6.0,85,0.04,,,0.04,VWS V14.01,2013-03-09 15:33:00,
2013-03-09 09:34:00,35.1,31.0,30.17,ESE,112,6.0,8.0,85,0.04,,,0.04,VWS V14.01,2013-03-09 15:34:00,
2013-03-09 09:35:00,35.1,31.0,30.17,SE,141,6.0,7.0,85,0.04,,,0.04,VWS V14.01,2013-03-09 15:35:00,
2013-03-09 09:36:00,35.0,31.0,30.17,ESE,120,4.0,8.0,85,0.04,,,0.04,VWS V14.01,2013-03-09 15:36:00,
2013-03-09 09:37:00,35.0,31.0,30.17,SE,125,4.0,6.0,85,0.04,,,0.04,VWS V14.01,2013-03-09 15:37:00,
2013-03-09 09:38:00,35.0,31.2,30.16,ESE,114,5.0,6.0,86,0.04,,,0.04,VWS V14.01,2013-03-09 15:38:00,
2013-03-09 09:39:00,35.0,31.2,30.16,SE,142,6.0,8.0,86,0.04,,,0.04,VWS V14.01,2013-03-09 15:39:00,
2013-03-09 09:40:00,35.0,31.0,30.16,SE,125,8.0,8.0,85,0.04,,,0.04,VWS V14.01,2013-03-09 15:40:00,
2013-03-09 09:41:00,34.9,30.9,30.16,ESE,110,5.0,8.0,85,0.04,,,0.04,VWS V14.01,2013-03-09 15:41:00,
2013-03-09 09:42:00,34.9,31.1,30.16,SE,131,7.0,7.0,86,0.05,,,0.05,VWS V14.01,2013-03-09 15:42:00,
2013-03-09 09:43:00,34.8,31.0,30.15,ESE,123,6.0,9.0,86,0.05,,,0.05,VWS V14.01,2013-03-09 15:43:00,
2013-03-09 09:44:00,34.7,31.0,30.15,East,87,9.0,10.0,86,0.05,,,0.05,VWS V14.01,2013-03-09 15:44:00,
2013-03-09 09:45:00,34.6,30.9,30.15,SE,129,8.0,11.0,86,0.05,,,0.05,VWS V14.01,2013-03-09 15:45:00,
2013-03-09 09:46:00,34.6,31.1,30.15,SE,128,5.0,8.0,87,0.05,,,0.05,VWS V14.01,2013-03-09 15:46:00,
2013-03-09 09:47:00,34.6,31.1,30.16,SE,136,8.0,8.0,87,0.05,,,0.05,VWS V14.01,2013-03-09 15:47:00,
2013-03-09 09:48:00,34.6,31.1,30.15,NE,41,1.0,9.0,87,0.05,,,0.05,VWS V14.01,2013-03-09 15:48:00,
2013-03-09 09:49:00,34.6,31.1,30.15,SE,129,2.0,4.0,87,0.05,,,0.05,VWS V14.01,2013-03-09 15:49:00,
2013-03-09 09:50:00,34.7,31.2,30.16,SE,132,4.0,6.0,87,0.05,,,0.05,VWS V14.01,2013-03-09 15:50:00,
2013-03-09 09:51:00,34.7,31.2,30.16,SSW,195,2.0,5.0,87,0.05,,,0.05,VWS V14.01,2013-03-09 15:51:00,
2013-03-09 09:52:00,34.7,31.5,30.16,South,190,2.0,7.0,88,0.05,,,0.05,VWS V14.01,2013-03-09 15:52:00,
2013-03-09 09:53:00,34.8,31.6,30.16,South,177,2.0,4.0,88,0.05,,,0.05,VWS V14.01,2013-03-09 15:53:00,
2013-03-09 09:54:00,34.8,31.6,30.16,SSE,155,5.0,6.0,88,0.05,,,0.05,VWS V14.01,2013-03-09 15:54:00,
2013-03-09 09:55:00,34.9,31.7,30.16,SSE,160,1.0,5.0,88,0.05,,,0.05,VWS V14.01,2013-03-09 15:55:00,
2013-03-09 09:56:00,34.9,31.7,30.16,South,184,5.0,5.0,88,0.05,,,0.05,VWS V14.01,2013-03-09 15:56:00,
2013-03-09 09:57:00,34.9,31.7,30.16,SSE,167,5.0,5.0,88,0.06,,,0.06,VWS V14.01,2013-03-09 15:57:00,
2013-03-09 09:58:00,35.0,31.8,30.16,SE,132,7.0,7.0,88,0.06,,,0.06,VWS V14.01,2013-03-09 15:58:00,
2013-03-09 09:59:00,35.0,31.5,30.15,South,186,5.0,9.0,87,0.06,,,0.06,VWS V14.01,2013-03-09 15:59:00,
2013-03-09 10:00:00,35.0,31.5,30.15,SSE,167,3.0,6.0,87,0.06,,,0.06,VWS V14.01,2013-03-09 16:00:00,
2013-03-09 10:01:00,35.1,31.6,30.15,South,186,1.0,5.0,87,0.06,,,0.06,VWS V14.01,2013-03-09 16:01:00,
2013-03-09 10:02:00,35.2,32.0,30.16,SSE,150,4.0,5.0,88,0.05,,,0.06,VWS V14.01,2013-03-09 16:02:00,
2013-03-09 10:03:00,35.2,32.0,30.16,ENE,70,3.0,6.0,88,0.05,,,0.06,VWS V14.01,2013-03-09 16:03:00,
2013-03-09 10:04:00,35.3,32.1,30.16,South,184,6.0,8.0,88,0.05,,,0.06,VWS V14.01,2013-03-09 16:04:00,
2013-03-09 10:05:00,35.4,32.2,30.16,ESE,107,4.0,6.0,88,0.05,,,0.06,VWS V14.01,2013-03-09 16:05:00,
2013-03-09 10:06:00,35.5,32.3,30.15,SSE,155,6.0,8.0,88,0.05,,,0.06,VWS V14.01,2013-03-09 16:06:00,
2013-03-09 10:07:00,35.6,32.4,30.15,East,89,3.0,6.0,88,0.05,,,0.06,VWS V14.01,2013-03-09 16:07:00,
2013-03-09 10:08:00,35.7,32.5,30.15,SE,135,3.0,5.0,88,0.05,,,0.06,VWS V14.01,2013-03-09 16:08:00,
2013-03-09 10:09:00,36.0,32.8,30.15,SE,139,5.0,6.0,88,0.05,,,0.06,VWS V14.01,2013-03-09 16:09:00,
2013-03-09 10:10:00,36.1,32.9,30.15,South,170,4.0,5.0,88,0.05,,,0.06,VWS V14.01,2013-03-09 16:10:00,
2013-03-09 10:11:00,36.3,32.8,30.15,South,182,6.0,7.0,87,0.05,,,0.06,VWS V14.01,2013-03-09 16:11:00,
2013-03-09 10:12:00,36.5,33.3,30.15,SSE,155,7.0,8.0,88,0.04,,,0.06,VWS V14.01,2013-03-09 16:12:00,
2013-03-09 10:13:00,36.5,33.0,30.14,SE,129,6.0,8.0,87,0.04,,,0.06,VWS V14.01,2013-03-09 16:13:00,
2013-03-09 10:14:00,36.7,33.2,30.14,SE,129,4.0,7.0,87,0.04,,,0.06,VWS V14.01,2013-03-09 16:14:00,
2013-03-09 10:15:00,36.8,33.0,30.14,SE,125,4.0,8.0,86,0.04,,,0.06,VWS V14.01,2013-03-09 16:15:00,
2013-03-09 10:16:00,36.8,33.0,30.14,SE,134,5.0,6.0,86,0.04,,,0.06,VWS V14.01,2013-03-09 16:16:00,
2013-03-09 10:17:00,36.9,33.1,30.14,SSE,153,4.0,6.0,86,0.04,,,0.06,VWS V14.01,2013-03-09 16:17:00,
2013-03-09 10:18:00,37.0,33.5,30.14,SE,142,2.0,4.0,87,0.04,,,0.06,VWS V14.01,2013-03-09 16:18:00,
2013-03-09 10:19:00,37.2,33.7,30.14,SE,135,6.0,6.0,87,0.04,,,0.06,VWS V14.01,2013-03-09 16:19:00,
2013-03-09 10:20:00,37.3,33.5,30.13,SSE,152,4.0,8.0,86,0.04,,,0.06,VWS V14.01,2013-03-09 16:20:00,
2013-03-09 10:21:00,37.3,33.2,30.13,ESE,120,8.0,10.0,85,0.04,,,0.06,VWS V14.01,2013-03-09 16:21:00,
2013-03-09 10:22:00,37.3,33.2,30.13,SSE,152,6.0,10.0,85,0.04,,,0.06,VWS V14.01,2013-03-09 16:22:00,
2013-03-09 10:23:00,37.3,33.2,30.13,SSE,166,8.0,10.0,85,0.04,,,0.06,VWS V14.01,2013-03-09 16:23:00,
2013-03-09 10:24:00,37.3,33.2,30.13,SE,124,9.0,12.0,85,0.04,,,0.06,VWS V14.01,2013-03-09 16:24:00,
2013-03-09 10:25:00,37.2,33.1,30.13,ESE,122,12.0,12.0,85,0.04,,,0.06,VWS V14.01,2013-03-09 16:25:00,
2013-03-09 10:26:00,37.2,33.1,30.13,East,100,3.0,12.0,85,0.04,,,0.06,VWS V14.01,2013-03-09 16:26:00,
2013-03-09 10:27:00,37.2,33.1,30.13,SE,134,6.0,11.0,85,0.02,,,0.06,VWS V14.01,2013-03-09 16:27:00,
2013-03-09 10:28:00,37.2,32.8,30.13,SSE,158,7.0,10.0,84,0.02,,,0.06,VWS V14.01,2013-03-09 16:28:00,
2013-03-09 10:29:00,37.2,33.1,30.12,ESE,117,5.0,8.0,85,0.02,,,0.06,VWS V14.01,2013-03-09 16:29:00,
2013-03-09 10:30:00,37.1,33.0,30.12,East,89,8.0,11.0,85,0.02,,,0.06,VWS V14.01,2013-03-09 16:30:00,
2013-03-09 10:31:00,37.0,32.6,30.12,SE,139,5.0,8.0,84,0.02,,,0.06,VWS V14.01,2013-03-09 16:31:00,
2013-03-09 10:32:00,37.1,33.0,30.12,SE,132,5.0,9.0,85,0.02,,,0.06,VWS V14.01,2013-03-09 16:32:00,
2013-03-09 10:33:00,37.2,33.4,30.12,SSE,150,4.0,6.0,86,0.02,,,0.06,VWS V14.01,2013-03-09 16:33:00,
2013-03-09 10:34:00,37.2,33.1,30.12,ESE,113,6.0,9.0,85,0.02,,,0.06,VWS V14.01,2013-03-09 16:34:00,
2013-03-09 10:35:00,37.2,33.1,30.12,SE,139,8.0,9.0,85,0.02,,,0.06,VWS V14.01,2013-03-09 16:35:00,
2013-03-09 10:36:00,37.2,33.1,30.12,WSW,239,5.0,8.0,85,0.02,,,0.06,VWS V14.01,2013-03-09 16:36:00,
2013-03-09 10:37:00,37.3,33.2,30.12,East,92,2.0,5.0,85,0.02,,,0.06,VWS V14.01,2013-03-09 16:37:00,
2013-03-09 10:38:00,37.5,33.7,30.12,SE,128,6.0,7.0,86,0.02,,,0.06,VWS V14.01,2013-03-09 16:38:00,
2013-03-09 10:39:00,37.5,33.4,30.12,East,98,12.0,12.0,85,0.02,,,0.06,VWS V14.01,2013-03-09 16:39:00,
2013-03-09 10:40:00,37.6,33.5,30.12,South,181,5.0,13.0,85,0.02,,,0.06,VWS V14.01,2013-03-09 16:40:00,
2013-03-09 10:41:00,37.7,33.3,30.12,ESE,111,8.0,10.0,84,0.02,,,0.06,VWS V14.01,2013-03-09 16:41:00,
2013-03-09 10:42:00,37.8,33.7,30.11,SE,138,2.0,8.0,85,0.02,,,0.06,VWS V14.01,2013-03-09 16:42:00,
2013-03-09 10:43:00,37.9,33.8,30.11,SSE,163,4.0,8.0,85,0.01,,,0.06,VWS V14.01,2013-03-09 16:43:00,
2013-03-09 10:44:00,37.9,33.5,30.11,SSE,148,9.0,9.0,84,0.01,,,0.06,VWS V14.01,2013-03-09 16:44:00,
2013-03-09 10:45:00,38.0,33.6,30.11,ESE,105,3.0,9.0,84,0.01,,,0.06,VWS V14.01,2013-03-09 16:45:00,
2013-03-09 10:46:00,38.0,33.6,30.11,SW,229,7.0,8.0,84,0.01,,,0.06,VWS V14.01,2013-03-09 16:46:00,
2013-03-09 10:47:00,38.1,33.7,30.11,SE,124,5.0,7.0,84,0.01,,,0.06,VWS V14.01,2013-03-09 16:47:00,
2013-03-09 10:48:00,38.1,33.7,30.10,ESE,117,6.0,8.0,84,0.01,,,0.06,VWS V14.01,2013-03-09 16:48:00,
2013-03-09 10:49:00,38.1,33.4,30.10,ESE,122,6.0,9.0,83,0.01,,,0.06,VWS V14.01,2013-03-09 16:49:00,
2013-03-09 10:50:00,38.0,33.3,30.10,West,259,4.0,8.0,83,0.01,,,0.06,VWS V14.01,2013-03-09 16:50:00,
2013-03-09 10:51:00,38.1,33.4,30.10,SSW,206,3.0,4.0,83,0.01,,,0.06,VWS V14.01,2013-03-09 16:51:00,
2013-03-09 10:52:00,38.1,33.4,30.10,SE,127,6.0,11.0,83,0.01,,,0.06,VWS V14.01,2013-03-09 16:52:00,
2013-03-09 10:53:00,38.3,33.6,30.10,SW,218,4.0,7.0,83,0.01,,,0.06,VWS V14.01,2013-03-09 16:53:00,
2013-03-09 10:54:00,38.4,33.7,30.10,SSW,207,6.0,7.0,83,0.01,,,0.06,VWS V14.01,2013-03-09 16:54:00,
2013-03-09 10:55:00,38.5,33.8,30.10,SSE,167,2.0,6.0,83,0.01,,,0.06,VWS V14.01,2013-03-09 16:55:00,
2013-03-09 10:56:00,38.6,33.6,30.10,ESE,109,5.0,7.0,82,0.01,,,0.06,VWS V14.01,2013-03-09 16:56:00,
2013-03-09 10:57:00,38.8,33.8,30.10,SSW,194,2.0,6.0,82,0.01,,,0.06,VWS V14.01,2013-03-09 16:57:00,
2013-03-09 10:58:00,38.9,33.9,30.10,SE,146,2.0,11.0,82,0.00,,,0.06,VWS V14.01,2013-03-09 16:58:00,
2013-03-09 10:59:00,39.0,33.7,30.10,South,172,5.0,9.0,81,0.00,,,0.06,VWS V14.01,2013-03-09 16:59:00,
2013-03-09 11:00:00,39.1,33.8,30.10,SSE,152,8.0,8.0,81,0.00,,,0.06,VWS V14.01,2013-03-09 17:00:00,
2013-03-09 11:01:00,39.1,33.8,30.10,SE,128,7.0,10.0,81,0.00,,,0.06,VWS V14.01,2013-03-09 17:01:00,
2013-03-09 11:02:00,39.1,33.8,30.09,SSW,204,4.0,8.0,81,0.00,,,0.06,VWS V14.01,2013-03-09 17:02:00,
2013-03-09 11:03:00,39.2,33.9,30.09,South,171,6.0,8.0,81,0.00,,,0.06,VWS V14.01,2013-03-09 17:03:00,
2013-03-09 11:04:00,39.3,34.0,30.09,South,169,5.0,7.0,81,0.00,,,0.06,VWS V14.01,2013-03-09 17:04:00,
2013-03-09 11:05:00,39.3,34.0,30.09,South,186,4.0,8.0,81,0.00,,,0.06,VWS V14.01,2013-03-09 17:05:00,
2013-03-09 11:06:00,39.4,33.8,30.09,SSW,194,5.0,7.0,80,0.00,,,0.06,VWS V14.01,2013-03-09 17:06:00,
2013-03-09 11:07:00,39.4,33.4,30.09,SE,143,9.0,13.0,79,0.00,,,0.06,VWS V14.01,2013-03-09 17:07:00,
2013-03-09 11:08:00,39.4,33.4,30.09,SSE,154,6.0,11.0,79,0.00,,,0.06,VWS V14.01,2013-03-09 17:08:00,
2013-03-09 11:09:00,39.5,33.8,30.09,SE,145,9.0,9.0,80,0.00,,,0.06,VWS V14.01,2013-03-09 17:09:00,
2013-03-09 11:10:00,39.5,33.5,30.09,ENE,75,3.0,9.0,79,0.00,,,0.06,VWS V14.01,2013-03-09 17:10:00,
2013-03-09 11:11:00,39.7,33.7,30.09,South,190,5.0,6.0,79,0.00,,,0.06,VWS V14.01,2013-03-09 17:11:00,
2013-03-09 11:12:00,39.8,33.8,30.09,SSE,165,5.0,7.0,79,0.00,,,0.06,VWS V14.01,2013-03-09 17:12:00,
2013-03-09 11:13:00,40.0,34.0,30.09,SSE,154,5.0,5.0,79,0.00,,,0.06,VWS V14.01,2013-03-09 17:13:00,
2013-03-09 11:14:00,40.1,34.1,30.09,ESE,122,6.0,10.0,79,0.00,,,0.06,VWS V14.01,2013-03-09 17:14:00,
2013-03-09 11:15:00,40.2,33.9,30.09,SSW,204,6.0,8.0,78,0.00,,,0.06,VWS V14.01,2013-03-09 17:15:00,
2013-03-09 11:16:00,40.3,34.0,30.09,SSE,160,5.0,10.0,78,0.00,,,0.06,VWS V14.01,2013-03-09 17:16:00,
2013-03-09 11:17:00,40.3,34.0,30.10,SSE,160,5.0,8.0,78,0.00,,,0.06,VWS V14.01,2013-03-09 17:17:00,
2013-03-09 11:18:00,40.4,34.1,30.10,SE,136,9.0,10.0,78,0.00,,,0.06,VWS V14.01,2013-03-09 17:18:00,
2013-03-09 11:19:00,40.4,33.8,30.10,South,183,7.0,9.0,77,0.00,,,0.06,VWS V14.01,2013-03-09 17:19:00,
2013-03-09 11:20:00,40.4,33.8,30.09,ESE,118,5.0,11.0,77,0.00,,,0.06,VWS V14.01,2013-03-09 17:20:00,
2013-03-09 11:21:00,40.4,33.8,30.09,SSW,193,11.0,11.0,77,0.00,,,0.06,VWS V14.01,2013-03-09 17:21:00,
2013-03-09 11:22:00,40.4,33.8,30.09,SE,128,6.0,11.0,77,0.00,,,0.06,VWS V14.01,2013-03-09 17:22:00,
2013-03-09 11:23:00,40.5,33.9,30.09,ESE,103,7.0,11.0,77,0.00,,,0.06,VWS V14.01,2013-03-09 17:23:00,
2013-03-09 11:24:00,40.5,33.9,30.09,SSW,207,1.0,7.0,77,0.00,,,0.06,VWS V14.01,2013-03-09 17:24:00,
2013-03-09 11:25:00,40.5,33.9,30.09,SE,138,7.0,9.0,77,0.00,,,0.06,VWS V14.01,2013-03-09 17:25:00,
2013-03-09 11:26:00,40.4,33.8,30.09,South,173,3.0,7.0,77,0.00,,,0.06,VWS V14.01,2013-03-09 17:26:00,
2013-03-09 11:27:00,40.5,33.9,30.09,SSW,196,5.0,11.0,77,0.00,,,0.06,VWS V14.01,2013-03-09 17:27:00,
2013-03-09 11:28:00,40.6,34.0,30.09,SSE,156,7.0,10.0,77,0.00,,,0.06,VWS V14.01,2013-03-09 17:28:00,
2013-03-09 11:29:00,40.6,34.0,30.09,ENE,78,7.0,9.0,77,0.00,,,0.06,VWS V14.01,2013-03-09 17:29:00,
2013-03-09 11:30:00,40.7,34.1,30.09,SSE,156,8.0,8.0,77,0.00,,,0.06,VWS V14.01,2013-03-09 17:30:00,
2013-03-09 11:31:00,40.7,34.1,30.09,SSE,155,8.0,8.0,77,0.00,,,0.06,VWS V14.01,2013-03-09 17:31:00,
2013-03-09 11:32:00,40.8,33.8,30.09,ESE,117,9.0,9.0,76,0.00,,,0.06,VWS V14.01,2013-03-09 17:32:00,
2013-03-09 11:33:00,40.8,33.8,30.09,SE,124,5.0,9.0,76,0.00,,,0.06,VWS V14.01,2013-03-09 17:33:00,
2013-03-09 11:34:00,40.7,33.7,30.09,SSE,154,3.0,10.0,76,0.00,,,0.06,VWS V14.01,2013-03-09 17:34:00,
2013-03-09 11:35:00,40.6,34.0,30.10,SSE,160,6.0,8.0,77,0.00,,,0.06,VWS V14.01,2013-03-09 17:35:00,
2013-03-09 11:36:00,40.6,34.0,30.10,SSE,148,6.0,8.0,77,0.00,,,0.06,VWS V14.01,2013-03-09 17:36:00,
2013-03-09 11:37:00,40.5,33.9,30.10,SE,124,7.0,7.0,77,0.00,,,0.06,VWS V14.01,2013-03-09 17:37:00,
2013-03-09 11:38:00,40.3,33.7,30.09,SE,135,6.0,9.0,77,0.00,,,0.06,VWS V14.01,2013-03-09 17:38:00,
2013-03-09 11:39:00,40.1,33.5,30.09,SSE,149,5.0,10.0,77,0.00,,,0.06,VWS V14.01,2013-03-09 17:39:00,
2013-03-09 11:40:00,39.8,33.5,30.10,SE,127,4.0,7.0,78,0.00,,,0.06,VWS V14.01,2013-03-09 17:40:00,
2013-03-09 11:41:00,39.7,33.4,30.09,SSE,149,6.0,8.0,78,0.00,,,0.06,VWS V14.01,2013-03-09 17:41:00,
2013-03-09 11:42:00,39.6,33.6,30.09,SSE,156,4.0,6.0,79,0.00,,,0.06,VWS V14.01,2013-03-09 17:42:00,
2013-03-09 11:43:00,39.6,33.6,30.09,SE,146,4.0,8.0,79,0.00,,,0.06,VWS V14.01,2013-03-09 17:43:00,
2013-03-09 11:44:00,39.7,33.7,30.09,SE,133,5.0,7.0,79,0.00,,,0.06,VWS V14.01,2013-03-09 17:44:00,
2013-03-09 11:45:00,39.6,33.6,30.09,ESE,102,5.0,10.0,79,0.00,,,0.06,VWS V14.01,2013-03-09 17:45:00,
2013-03-09 11:46:00,39.6,33.6,30.09,South,172,10.0,11.0,79,0.00,,,0.06,VWS V14.01,2013-03-09 17:46:00,
2013-03-09 11:47:00,39.7,33.7,30.09,SSE,158,8.0,10.0,79,0.00,,,0.06,VWS V14.01,2013-03-09 17:47:00,
2013-03-09 11:48:00,39.7,33.4,30.09,SE,135,9.0,11.0,78,0.00,,,0.06,VWS V14.01,2013-03-09 17:48:00,
2013-03-09 11:49:00,39.7,33.4,30.08,ESE,110,6.0,9.0,78,0.00,,,0.06,VWS V14.01,2013-03-09 17:49:00,
2013-03-09 11:50:00,39.5,33.2,30.08,ESE,120,7.0,11.0,78,0.00,,,0.06,VWS V14.01,2013-03-09 17:50:00,
2013-03-09 11:51:00,39.5,33.2,30.08,ESE,121,8.0,8.0,78,0.00,,,0.06,VWS V14.01,2013-03-09 17:51:00,
2013-03-09 11:52:00,39.5,33.2,30.08,ESE,111,7.0,8.0,78,0.00,,,0.06,VWS V14.01,2013-03-09 17:52:00,
2013-03-09 11:53:00,39.4,33.4,30.08,ESE,121,8.0,11.0,79,0.00,,,0.06,VWS V14.01,2013-03-09 17:53:00,
2013-03-09 11:54:00,39.2,32.9,30.08,SE,138,5.0,13.0,78,0.00,,,0.06,VWS V14.01,2013-03-09 17:54:00,
2013-03-09 11:55:00,39.1,33.2,30.08,ESE,114,10.0,10.0,79,0.00,,,0.06,VWS V14.01,2013-03-09 17:55:00,
2013-03-09 11:56:00,38.9,33.0,30.08,ESE,105,8.0,11.0,79,0.00,,,0.06,VWS V14.01,2013-03-09 17:56:00,
2013-03-09 11:57:00,38.9,33.0,30.08,SSE,161,5.0,10.0,79,0.00,,,0.06,VWS V14.01,2013-03-09 17:57:00,
2013-03-09 11:58:00,38.9,33.0,30.08,SSE,160,5.0,6.0,79,0.00,,,0.06,VWS V14.01,2013-03-09 17:58:00,
2013-03-09 11:59:00,38.9,33.3,30.08,ESE,121,11.0,11.0,80,0.00,,,0.06,VWS V14.01,2013-03-09 17:59:00,
2013-03-09 12:00:00,39.0,33.4,30.08,ESE,102,6.0,11.0,80,0.00,,,0.06,VWS V14.01,2013-03-09 18:00:00,
2013-03-09 12:01:00,39.1,33.5,30.07,SE,139,4.0,8.0,80,0.00,,,0.06,VWS V14.01,2013-03-09 18:01:00,
2013-03-09 12:02:00,39.2,33.2,30.07,South,179,3.0,7.0,79,0.00,,,0.06,VWS V14.01,2013-03-09 18:02:00,
2013-03-09 12:03:00,39.3,33.3,30.07,SSE,151,6.0,11.0,79,0.00,,,0.06,VWS V14.01,2013-03-09 18:03:00,
2013-03-09 12:04:00,39.4,33.1,30.07,SSE,165,9.0,9.0,78,0.00,,,0.06,VWS V14.01,2013-03-09 18:04:00,
2013-03-09 12:05:00,39.5,33.5,30.07,SSE,149,9.0,11.0,79,0.00,,,0.06,VWS V14.01,2013-03-09 18:05:00,
2013-03-09 12:06:00,39.5,33.2,30.07,SE,125,5.0,9.0,78,0.00,,,0.06,VWS V14.01,2013-03-09 18:06:00,
2013-03-09 12:07:00,39.6,33.3,30.07,South,169,9.0,10.0,78,0.00,,,0.06,VWS V14.01,2013-03-09 18:07:00,
2013-03-09 12:08:00,39.6,33.0,30.07,SSE,160,3.0,9.0,77,0.00,,,0.06,VWS V14.01,2013-03-09 18:08:00,
2013-03-09 12:09:00,39.7,33.4,30.07,SSE,155,6.0,10.0,78,0.00,,,0.06,VWS V14.01,2013-03-09 18:09:00,
2013-03-09 12:10:00,39.8,33.2,30.07,South,169,4.0,6.0,77,0.00,,,0.06,VWS V14.01,2013-03-09 18:10:00,
2013-03-09 12:11:00,39.8,33.2,30.07,SSW,197,7.0,7.0,77,0.00,,,0.06,VWS V14.01,2013-03-09 18:11:00,
2013-03-09 12:12:00,39.8,33.2,30.07,South,170,6.0,7.0,77,0.00,,,0.06,VWS V14.01,2013-03-09 18:12:00,
2013-03-09 12:13:00,39.9,33.3,30.06,South,174,2.0,8.0,77,0.00,,,0.06,VWS V14.01,2013-03-09 18:13:00,
2013-03-09 12:14:00,40.0,33.4,30.06,SE,145,6.0,6.0,77,0.00,,,0.06,VWS V14.01,2013-03-09 18:14:00,
2013-03-09 12:15:00,40.0,33.4,30.06,South,188,7.0,7.0,77,0.00,,,0.06,VWS V14.01,2013-03-09 18:15:00,
2013-03-09 12:16:00,40.1,33.5,30.07,SSW,194,6.0,7.0,77,0.00,,,0.06,VWS V14.01,2013-03-09 18:16:00,
2013-03-09 12:17:00,40.0,33.1,30.06,SE,142,7.0,9.0,76,0.00,,,0.06,VWS V14.01,2013-03-09 18:17:00,
2013-03-09 12:18:00,40.0,33.1,30.07,South,190,4.0,9.0,76,0.00,,,0.06,VWS V14.01,2013-03-09 18:18:00,
2013-03-09 12:19:00,39.9,33.0,30.07,SE,124,9.0,11.0,76,0.00,,,0.06,VWS V14.01,2013-03-09 18:19:00,
2013-03-09 12:20:00,39.7,32.8,30.06,SE,135,11.0,12.0,76,0.00,,,0.06,VWS V14.01,2013-03-09 18:20:00,
2013-03-09 12:21:00,39.5,32.6,30.07,SE,131,6.0,12.0,76,0.00,,,0.06,VWS V14.01,2013-03-09 18:21:00,
2013-03-09 12:22:00,39.3,32.4,30.07,SW,221,6.0,11.0,76,0.00,,,0.06,VWS V14.01,2013-03-09 18:22:00,
2013-03-09 12:23:00,39.2,32.6,30.07,ESE,111,3.0,8.0,77,0.00,,,0.06,VWS V14.01,2013-03-09 18:23:00,
2013-03-09 12:24:00,39.2,32.6,30.07,SE,136,10.0,11.0,77,0.00,,,0.06,VWS V14.01,2013-03-09 18:24:00,
2013-03-09 12:25:00,39.2,32.6,30.07,SE,127,1.0,10.0,77,0.00,,,0.06,VWS V14.01,2013-03-09 18:25:00,
2013-03-09 12:26:00,39.3,33.0,30.07,SW,214,5.0,7.0,78,0.00,,,0.06,VWS V14.01,2013-03-09 18:26:00,
2013-03-09 12:27:00,39.4,32.8,30.07,SSE,162,5.0,9.0,77,0.00,,,0.06,VWS V14.01,2013-03-09 18:27:00,
2013-03-09 12:28:00,39.4,32.8,30.07,ESE,121,2.0,8.0,77,0.00,,,0.06,VWS V14.01,2013-03-09 18:28:00,
2013-03-09 12:29:00,39.5,32.9,30.07,South,191,3.0,6.0,77,0.00,,,0.06,VWS V14.01,2013-03-09 18:29:00,
2013-03-09 12:30:00,39.6,33.0,30.07,SE,138,5.0,9.0,77,0.00,,,0.06,VWS V14.01,2013-03-09 18:30:00,
2013-03-09 12:31:00,39.6,32.7,30.07,SSE,151,9.0,12.0,76,0.00,,,0.06,VWS V14.01,2013-03-09 18:31:00,
2013-03-09 12:32:00,39.5,32.6,30.07,SE,141,9.0,9.0,76,0.00,,,0.06,VWS V14.01,2013-03-09 18:32:00,
2013-03-09 12:33:00,39.5,32.6,30.07,South,176,7.0,9.0,76,0.00,,,0.06,VWS V14.01,2013-03-09 18:33:00,
2013-03-09 12:34:00,39.5,32.6,30.07,SSE,153,6.0,8.0,76,0.00,,,0.06,VWS V14.01,2013-03-09 18:34:00,
2013-03-09 12:35:00,39.5,32.9,30.07,South,186,6.0,9.0,77,0.00,,,0.06,VWS V14.01,2013-03-09 18:35:00,
2013-03-09 12:36:00,39.5,32.9,30.07,SSE,165,8.0,10.0,77,0.00,,,0.06,VWS V14.01,2013-03-09 18:36:00,
2013-03-09 12:37:00,39.5,32.6,30.06,SE,140,7.0,11.0,76,0.00,,,0.06,VWS V14.01,2013-03-09 18:37:00,
2013-03-09 12:38:00,39.5,32.6,30.07,SW,214,5.0,9.0,76,0.00,,,0.06,VWS V14.01,2013-03-09 18:38:00,
2013-03-09 12:39:00,39.4,32.5,30.06,South,177,3.0,5.0,76,0.00,,,0.06,VWS V14.01,2013-03-09 18:39:00,
2013-03-09 12:40:00,39.5,32.9,30.06,South,174,2.0,5.0,77,0.00,,,0.06,VWS V14.01,2013-03-09 18:40:00,
2013-03-09 12:41:00,39.5,32.9,30.06,ESE,118,8.0,11.0,77,0.00,,,0.06,VWS V14.01,2013-03-09 18:41:00,
2013-03-09 12:42:00,39.4,32.5,30.06,SSE,159,6.0,9.0,76,0.00,,,0.06,VWS V14.01,2013-03-09 18:42:00,
2013-03-09 12:43:00,39.4,32.8,30.06,ENE,66,7.0,7.0,77,0.00,,,0.06,VWS V14.01,2013-03-09 18:43:00,
2013-03-09 12:44:00,39.3,32.7,30.06,SE,131,5.0,9.0,77,0.00,,,0.06,VWS V14.01,2013-03-09 18:44:00,
2013-03-09 12:45:00,39.3,32.7,30.06,SE,127,6.0,6.0,77,0.00,,,0.06,VWS V14.01,2013-03-09 18:45:00,
2013-03-09 12:46:00,39.3,32.7,30.06,SE,136,7.0,9.0,77,0.00,,,0.06,VWS V14.01,2013-03-09 18:46:00,
2013-03-09 12:47:00,39.2,32.6,30.06,SSE,150,4.0,10.0,77,0.00,,,0.06,VWS V14.01,2013-03-09 18:47:00,
2013-03-09 12:48:00,39.2,32.6,30.06,ESE,112,7.0,9.0,77,0.00,,,0.06,VWS V14.01,2013-03-09 18:48:00,
2013-03-09 12:49:00,39.1,32.5,30.05,ESE,114,11.0,11.0,77,0.00,,,0.06,VWS V14.01,2013-03-09 18:49:00,
2013-03-09 12:50:00,39.1,32.5,30.05,SSE,155,6.0,11.0,77,0.00,,,0.06,VWS V14.01,2013-03-09 18:50:00,
2013-03-09 12:51:00,39.0,32.4,30.05,SE,146,3.0,8.0,77,0.00,,,0.06,VWS V14.01,2013-03-09 18:51:00,
2013-03-09 12:52:00,38.9,32.3,30.05,ESE,110,4.0,10.0,77,0.00,,,0.06,VWS V14.01,2013-03-09 18:52:00,
2013-03-09 12:53:00,38.9,32.3,30.05,SE,144,6.0,10.0,77,0.00,,,0.06,VWS V14.01,2013-03-09 18:53:00,
2013-03-09 12:54:00,38.9,32.3,30.05,SE,131,6.0,10.0,77,0.00,,,0.06,VWS V14.01,2013-03-09 18:54:00,
2013-03-09 12:55:00,38.9,32.6,30.05,ESE,108,9.0,10.0,78,0.00,,,0.06,VWS V14.01,2013-03-09 18:55:00,
2013-03-09 12:56:00,38.9,32.6,30.05,SE,130,8.0,9.0,78,0.00,,,0.06,VWS V14.01,2013-03-09 18:56:00,
2013-03-09 12:57:00,38.9,32.3,30.05,SSE,156,4.0,9.0,77,0.00,,,0.06,VWS V14.01,2013-03-09 18:57:00,
2013-03-09 12:58:00,39.0,32.7,30.05,East,96,6.0,8.0,78,0.00,,,0.06,VWS V14.01,2013-03-09 18:58:00,
2013-03-09 12:59:00,39.0,32.4,30.05,SE,125,9.0,9.0,77,0.00,,,0.06,VWS V14.01,2013-03-09 18:59:00,
2013-03-09 13:00:00,39.0,32.4,30.05,SSE,167,7.0,9.0,77,0.00,,,0.06,VWS V14.01,2013-03-09 19:00:00,
2013-03-09 13:01:00,39.0,32.4,30.05,SE,128,6.0,11.0,77,0.00,,,0.06,VWS V14.01,2013-03-09 19:01:00,
2013-03-09 13:02:00,38.9,32.3,30.05,East,100,8.0,12.0,77,0.00,,,0.06,VWS V14.01,2013-03-09 19:02:00,
2013-03-09 13:03:00,38.8,32.2,30.05,SSE,149,5.0,8.0,77,0.00,,,0.06,VWS V14.01,2013-03-09 19:03:00,
2013-03-09 13:04:00,38.8,32.5,30.05,SSE,148,4.0,7.0,78,0.00,,,0.06,VWS V14.01,2013-03-09 19:04:00,
2013-03-09 13:05:00,38.8,32.2,30.05,ESE,105,11.0,13.0,77,0.00,,,0.06,VWS V14.01,2013-03-09 19:05:00,
2013-03-09 13:06:00,38.7,32.4,30.04,SE,135,4.0,11.0,78,0.00,,,0.06,VWS V14.01,2013-03-09 19:06:00,
2013-03-09 13:07:00,38.8,32.5,30.04,SW,231,5.0,8.0,78,0.00,,,0.06,VWS V14.01,2013-03-09 19:07:00,
2013-03-09 13:08:00,38.8,32.5,30.04,SSE,166,6.0,11.0,78,0.00,,,0.06,VWS V14.01,2013-03-09 19:08:00,
2013-03-09 13:09:00,38.8,32.5,30.04,SW,227,4.0,10.0,78,0.00,,,0.06,VWS V14.01,2013-03-09 19:09:00,
2013-03-09 13:10:00,38.8,32.5,30.04,SSE,161,10.0,10.0,78,0.00,,,0.06,VWS V14.01,2013-03-09 19:10:00,
2013-03-09 13:11:00,38.8,32.2,30.04,SE,141,3.0,10.0,77,0.00,,,0.06,VWS V14.01,2013-03-09 19:11:00,
2013-03-09 13:12:00,38.8,32.2,30.04,ESE,122,7.0,11.0,77,0.00,,,0.06,VWS V14.01,2013-03-09 19:12:00,
2013-03-09 13:13:00,38.9,32.3,30.04,SSE,160,7.0,8.0,77,0.00,,,0.06,VWS V14.01,2013-03-09 19:13:00,
2013-03-09 13:14:00,38.8,32.2,30.04,SE,143,8.0,8.0,77,0.00,,,0.06,VWS V14.01,2013-03-09 19:14:00,
2013-03-09 13:15:00,38.8,32.5,30.04,ESE,112,3.0,8.0,78,0.00,,,0.06,VWS V14.01,2013-03-09 19:15:00,
2013-03-09 13:16:00,38.9,32.6,30.04,SSE,161,4.0,6.0,78,0.00,,,0.06,VWS V14.01,2013-03-09 19:16:00,
2013-03-09 13:17:00,38.9,32.6,30.04,SSW,198,7.0,10.0,78,0.00,,,0.06,VWS V14.01,2013-03-09 19:17:00,
2013-03-09 13:18:00,39.0,32.4,30.04,ESE,103,7.0,9.0,77,0.00,,,0.06,VWS V14.01,2013-03-09 19:18:00,
2013-03-09 13:19:00,39.0,32.4,30.04,SE,143,5.0,9.0,77,0.00,,,0.06,VWS V14.01,2013-03-09 19:19:00,
2013-03-09 13:20:00,39.0,32.4,30.04,SE,131,6.0,9.0,77,0.00,,,0.06,VWS V14.01,2013-03-09 19:20:00,
2013-03-09 13:21:00,39.0,32.4,30.04,SW,225,2.0,7.0,77,0.00,,,0.06,VWS V14.01,2013-03-09 19:21:00,
2013-03-09 13:22:00,39.1,32.5,30.04,SSE,167,8.0,8.0,77,0.00,,,0.06,VWS V14.01,2013-03-09 19:22:00,
2013-03-09 13:23:00,39.1,32.5,30.04,SSE,147,5.0,8.0,77,0.00,,,0.06,VWS V14.01,2013-03-09 19:23:00,
2013-03-09 13:24:00,39.1,32.5,30.04,SE,125,5.0,7.0,77,0.00,,,0.06,VWS V14.01,2013-03-09 19:24:00,
2013-03-09 13:25:00,39.1,32.5,30.04,East,82,5.0,9.0,77,0.00,,,0.06,VWS V14.01,2013-03-09 19:25:00,
2013-03-09 13:26:00,39.2,32.6,30.03,South,186,6.0,8.0,77,0.00,,,0.06,VWS V14.01,2013-03-09 19:26:00,
2013-03-09 13:27:00,39.2,32.6,30.04,South,169,3.0,7.0,77,0.00,,,0.06,VWS V14.01,2013-03-09 19:27:00,
2013-03-09 13:28:00,39.2,32.6,30.03,SSE,153,5.0,8.0,77,0.00,,,0.06,VWS V14.01,2013-03-09 19:28:00,
2013-03-09 13:29:00,39.3,32.7,30.03,South,184,4.0,6.0,77,0.00,,,0.06,VWS V14.01,2013-03-09 19:29:00,
2013-03-09 13:30:00,39.3,32.7,30.03,SE,136,3.0,4.0,77,0.00,,,0.06,VWS V14.01,2013-03-09 19:30:00,
2013-03-09 13:31:00,39.5,32.9,30.03,SSW,208,2.0,7.0,77,0.00,,,0.06,VWS V14.01,2013-03-09 19:31:00,
2013-03-09 13:32:00,39.5,32.9,30.03,SSW,201,2.0,7.0,77,0.00,,,0.06,VWS V14.01,2013-03-09 19:32:00,
2013-03-09 13:33:00,39.6,32.7,30.03,SSW,212,6.0,7.0,76,0.00,,,0.06,VWS V14.01,2013-03-09 19:33:00,
2013-03-09 13:34:00,39.7,32.8,30.03,SE,145,5.0,12.0,76,0.00,,,0.06,VWS V14.01,2013-03-09 19:34:00,
2013-03-09 13:35:00,39.7,32.4,30.03,SE,145,4.0,7.0,75,0.00,,,0.06,VWS V14.01,2013-03-09 19:35:00,
2013-03-09 13:36:00,39.7,32.4,30.03,East,100,5.0,11.0,75,0.00,,,0.06,VWS V14.01,2013-03-09 19:36:00,
2013-03-09 13:37:00,39.8,32.5,30.03,SSW,207,6.0,8.0,75,0.00,,,0.06,VWS V14.01,2013-03-09 19:37:00,
2013-03-09 13:38:00,39.8,32.5,30.03,SSE,149,8.0,10.0,75,0.00,,,0.06,VWS V14.01,2013-03-09 19:38:00,
2013-03-09 13:39:00,39.8,32.2,30.03,South,176,8.0,8.0,74,0.00,,,0.06,VWS V14.01,2013-03-09 19:39:00,
2013-03-09 13:40:00,39.8,32.2,30.03,South,177,4.0,8.0,74,0.00,,,0.06,VWS V14.01,2013-03-09 19:40:00,
2013-03-09 13:41:00,39.9,32.6,30.03,SSW,210,4.0,5.0,75,0.00,,,0.06,VWS V14.01,2013-03-09 19:41:00,
2013-03-09 13:42:00,39.9,32.6,30.03,SSW,207,4.0,4.0,75,0.00,,,0.06,VWS V14.01,2013-03-09 19:42:00,
2013-03-09 13:43:00,40.0,32.4,30.03,ESE,106,3.0,9.0,74,0.00,,,0.06,VWS V14.01,2013-03-09 19:43:00,
2013-03-09 13:44:00,40.0,32.4,30.03,SE,139,5.0,6.0,74,0.00,,,0.06,VWS V14.01,2013-03-09 19:44:00,
2013-03-09 13:45:00,40.1,32.5,30.02,SSW,202,4.0,8.0,74,0.00,,,0.06,VWS V14.01,2013-03-09 19:45:00,
2013-03-09 13:46:00,40.1,32.5,30.02,SE,141,1.0,6.0,74,0.00,,,0.06,VWS V14.01,2013-03-09 19:46:00,
2013-03-09 13:47:00,40.1,32.5,30.02,SE,143,5.0,9.0,74,0.00,,,0.06,VWS V14.01,2013-03-09 19:47:00,
2013-03-09 13:48:00,40.1,32.5,30.02,SW,233,6.0,7.0,74,0.00,,,0.06,VWS V14.01,2013-03-09 19:48:00,
2013-03-09 13:49:00,40.2,32.6,30.02,SE,146,6.0,7.0,74,0.00,,,0.06,VWS V14.01,2013-03-09 19:49:00,
2013-03-09 13:50:00,40.2,32.6,30.02,SE,125,5.0,6.0,74,0.00,,,0.06,VWS V14.01,2013-03-09 19:50:00,
2013-03-09 13:51:00,40.2,32.6,30.02,SE,137,5.0,5.0,74,0.00,,,0.06,VWS V14.01,2013-03-09 19:51:00,
2013-03-09 13:52:00,40.3,32.7,30.02,SSE,159,4.0,7.0,74,0.00,,,0.06,VWS V14.01,2013-03-09 19:52:00,
2013-03-09 13:53:00,40.3,32.7,30.02,SE,138,2.0,5.0,74,0.00,,,0.06,VWS V14.01,2013-03-09 19:53:00,
2013-03-09 13:54:00,40.3,32.7,30.02,SSE,165,5.0,10.0,74,0.00,,,0.06,VWS V14.01,2013-03-09 19:54:00,
2013-03-09 13:55:00,40.3,32.3,30.02,East,88,4.0,8.0,73,0.00,,,0.06,VWS V14.01,2013-03-09 19:55:00,
2013-03-09 13:56:00,40.2,32.2,30.02,ESE,122,7.0,8.0,73,0.00,,,0.06,VWS V14.01,2013-03-09 19:56:00,
2013-03-09 13:57:00,40.2,32.6,30.02,SE,143,4.0,7.0,74,0.00,,,0.06,VWS V14.01,2013-03-09 19:57:00,
2013-03-09 13:58:00,40.2,32.6,30.02,East,97,9.0,9.0,74,0.00,,,0.06,VWS V14.01,2013-03-09 19:58:00,
2013-03-09 13:59:00,40.1,32.2,30.02,South,186,5.0,9.0,73,0.00,,,0.06,VWS V14.01,2013-03-09 19:59:00,
2013-03-09 14:00:00,40.1,32.5,30.01,SSW,195,6.0,7.0,74,0.00,,,0.06,VWS V14.01,2013-03-09 20:00:00,
2013-03-09 14:01:00,40.1,32.5,30.01,SE,127,8.0,11.0,74,0.00,,,0.06,VWS V14.01,2013-03-09 20:01:00,
2013-03-09 14:02:00,40.0,32.4,30.01,South,177,6.0,8.0,74,0.00,,,0.06,VWS V14.01,2013-03-09 20:02:00,
2013-03-09 14:03:00,40.0,32.4,30.01,ESE,114,9.0,10.0,74,0.00,,,0.06,VWS V14.01,2013-03-09 20:03:00,
2013-03-09 14:04:00,39.9,32.3,30.01,SE,131,8.0,11.0,74,0.00,,,0.06,VWS V14.01,2013-03-09 20:04:00,
2013-03-09 14:05:00,39.9,32.3,30.01,SSE,166,9.0,10.0,74,0.00,,,0.06,VWS V14.01,2013-03-09 20:05:00,
2013-03-09 14:06:00,39.8,32.2,30.01,SSE,149,6.0,9.0,74,0.00,,,0.06,VWS V14.01,2013-03-09 20:06:00,
2013-03-09 14:07:00,39.8,32.2,30.01,SE,128,6.0,9.0,74,0.00,,,0.06,VWS V14.01,2013-03-09 20:07:00,
2013-03-09 14:08:00,39.8,32.2,30.01,SE,144,4.0,8.0,74,0.00,,,0.06,VWS V14.01,2013-03-09 20:08:00,
2013-03-09 14:09:00,39.9,32.3,30.01,SE,144,5.0,8.0,74,0.00,,,0.06,VWS V14.01,2013-03-09 20:09:00,
2013-03-09 14:10:00,39.9,32.3,30.01,SE,134,8.0,9.0,74,0.00,,,0.06,VWS V14.01,2013-03-09 20:10:00,
2013-03-09 14:11:00,39.8,32.2,30.00,SE,136,6.0,12.0,74,0.00,,,0.06,VWS V14.01,2013-03-09 20:11:00,
2013-03-09 14:12:00,39.9,32.3,30.00,SSE,148,7.0,10.0,74,0.00,,,0.06,VWS V14.01,2013-03-09 20:12:00,
2013-03-09 14:13:00,39.8,32.2,30.00,SE,134,6.0,13.0,74,0.00,,,0.06,VWS V14.01,2013-03-09 20:13:00,
2013-03-09 14:14:00,39.8,32.2,30.00,ESE,104,12.0,15.0,74,0.00,,,0.06,VWS V14.01,2013-03-09 20:14:00,
2013-03-09 14:15:00,39.7,32.1,30.00,South,184,6.0,13.0,74,0.00,,,0.06,VWS V14.01,2013-03-09 20:15:00,
2013-03-09 14:16:00,39.7,32.1,30.00,SSE,154,11.0,11.0,74,0.00,,,0.06,VWS V14.01,2013-03-09 20:16:00,
2013-03-09 14:17:00,39.7,32.1,30.00,ESE,120,10.0,13.0,74,0.00,,,0.06,VWS V14.01,2013-03-09 20:17:00,
2013-03-09 14:18:00,39.7,32.1,30.00,SSE,159,7.0,12.0,74,0.00,,,0.06,VWS V14.01,2013-03-09 20:18:00,
2013-03-09 14:19:00,39.6,32.0,30.00,ENE,70,9.0,12.0,74,0.00,,,0.06,VWS V14.01,2013-03-09 20:19:00,
2013-03-09 14:20:00,39.6,32.0,30.00,SE,131,6.0,13.0,74,0.00,,,0.06,VWS V14.01,2013-03-09 20:20:00,
2013-03-09 14:21:00,39.6,32.0,30.00,ESE,114,8.0,11.0,74,0.00,,,0.06,VWS V14.01,2013-03-09 20:21:00,
2013-03-09 14:22:00,39.5,32.2,29.99,ESE,122,3.0,8.0,75,0.00,,,0.06,VWS V14.01,2013-03-09 20:22:00,
2013-03-09 14:23:00,39.5,32.2,29.99,SSW,204,4.0,7.0,75,0.00,,,0.06,VWS V14.01,2013-03-09 20:23:00,
2013-03-09 14:24:00,39.6,32.3,29.99,SE,132,6.0,10.0,75,0.00,,,0.06,VWS V14.01,2013-03-09 20:24:00,
2013-03-09 14:25:00,39.6,32.3,29.99,SE,124,8.0,10.0,75,0.00,,,0.06,VWS V14.01,2013-03-09 20:25:00,
2013-03-09 14:26:00,39.6,32.3,29.99,ESE,122,5.0,9.0,75,0.00,,,0.06,VWS V14.01,2013-03-09 20:26:00,
2013-03-09 14:27:00,39.6,32.3,29.99,SE,134,6.0,7.0,75,0.00,,,0.06,VWS V14.01,2013-03-09 20:27:00,
2013-03-09 14:28:00,39.6,32.3,29.99,East,84,10.0,11.0,75,0.00,,,0.06,VWS V14.01,2013-03-09 20:28:00,
2013-03-09 14:29:00,39.6,32.3,29.99,SE,129,6.0,10.0,75,0.00,,,0.06,VWS V14.01,2013-03-09 20:29:00,
2013-03-09 14:30:00,39.6,32.3,29.99,SSW,198,5.0,6.0,75,0.00,,,0.06,VWS V14.01,2013-03-09 20:30:00,
2013-03-09 14:31:00,39.7,32.4,30.00,SSE,165,2.0,8.0,75,0.00,,,0.06,VWS V14.01,2013-03-09 20:31:00,
2013-03-09 14:32:00,39.7,32.4,30.00,East,99,4.0,6.0,75,0.00,,,0.06,VWS V14.01,2013-03-09 20:32:00,
2013-03-09 14:33:00,39.7,32.4,29.99,SSW,198,10.0,13.0,75,0.00,,,0.06,VWS V14.01,2013-03-09 20:33:00,
2013-03-09 14:34:00,39.7,32.1,30.00,SSW,205,4.0,12.0,74,0.00,,,0.06,VWS V14.01,2013-03-09 20:34:00,
2013-03-09 14:35:00,39.7,32.4,30.00,ESE,117,2.0,6.0,75,0.00,,,0.06,VWS V14.01,2013-03-09 20:35:00,
2013-03-09 14:36:00,39.7,32.4,30.00,WSW,253,4.0,8.0,75,0.00,,,0.06,VWS V14.01,2013-03-09 20:36:00,
2013-03-09 14:37:00,39.7,32.4,29.99,SE,134,6.0,10.0,75,0.00,,,0.06,VWS V14.01,2013-03-09 20:37:00,
2013-03-09 14:38:00,39.6,32.3,29.99,SW,230,3.0,6.0,75,0.00,,,0.06,VWS V14.01,2013-03-09 20:38:00,
2013-03-09 14:39:00,39.6,32.3,30.00,South,185,8.0,8.0,75,0.00,,,0.06,VWS V14.01,2013-03-09 20:39:00,
2013-03-09 14:40:00,39.6,32.3,30.00,South,182,6.0,10.0,75,0.00,,,0.06,VWS V14.01,2013-03-09 20:40:00,
2013-03-09 14:41:00,39.6,32.3,30.00,ESE,119,4.0,7.0,75,0.00,,,0.06,VWS V14.01,2013-03-09 20:41:00,
2013-03-09 14:42:00,39.5,32.2,30.00,South,173,5.0,9.0,75,0.00,,,0.06,VWS V14.01,2013-03-09 20:42:00,
2013-03-09 14:43:00,39.5,32.2,30.00,ESE,107,12.0,12.0,75,0.00,,,0.06,VWS V14.01,2013-03-09 20:43:00,
2013-03-09 14:44:00,39.5,32.2,30.00,ESE,118,5.0,12.0,75,0.00,,,0.06,VWS V14.01,2013-03-09 20:44:00,
2013-03-09 14:45:00,39.5,32.2,30.00,SE,136,3.0,6.0,75,0.00,,,0.06,VWS V14.01,2013-03-09 20:45:00,
2013-03-09 14:46:00,39.5,32.2,30.00,SE,145,2.0,6.0,75,0.00,,,0.06,VWS V14.01,2013-03-09 20:46:00,
2013-03-09 14:47:00,39.4,32.2,30.00,SE,138,7.0,9.0,75,0.00,,,0.06,VWS V14.01,2013-03-09 20:47:00,
2013-03-09 14:48:00,39.4,32.2,30.00,South,184,4.0,8.0,75,0.00,,,0.06,VWS V14.01,2013-03-09 20:48:00,
2013-03-09 14:49:00,39.4,32.2,30.00,SSW,194,7.0,7.0,75,0.00,,,0.06,VWS V14.01,2013-03-09 20:49:00,
2013-03-09 14:50:00,39.4,32.2,30.00,SSW,195,5.0,7.0,75,0.00,,,0.06,VWS V14.01,2013-03-09 20:50:00,
2013-03-09 14:51:00,39.4,32.2,30.00,SE,143,7.0,8.0,75,0.00,,,0.06,VWS V14.01,2013-03-09 20:51:00,
2013-03-09 14:52:00,39.4,32.2,29.99,SE,124,6.0,9.0,75,0.00,,,0.06,VWS V14.01,2013-03-09 20:52:00,
2013-03-09 14:53:00,39.3,32.0,29.99,ESE,110,7.0,7.0,75,0.00,,,0.06,VWS V14.01,2013-03-09 20:53:00,
2013-03-09 14:54:00,39.3,32.0,29.99,SE,138,5.0,8.0,75,0.00,,,0.06,VWS V14.01,2013-03-09 20:54:00,
2013-03-09 14:55:00,39.3,32.0,29.99,South,179,5.0,9.0,75,0.00,,,0.06,VWS V14.01,2013-03-09 20:55:00,
2013-03-09 14:56:00,39.3,32.4,29.99,SSE,150,7.0,9.0,76,0.00,,,0.06,VWS V14.01,2013-03-09 20:56:00,
2013-03-09 14:57:00,39.2,32.3,29.99,SE,138,8.0,8.0,76,0.00,,,0.06,VWS V14.01,2013-03-09 20:57:00,
2013-03-09 14:58:00,39.1,31.9,29.99,SE,143,6.0,10.0,75,0.00,,,0.06,VWS V14.01,2013-03-09 20:58:00,
2013-03-09 14:59:00,39.1,32.2,29.99,SE,146,4.0,7.0,76,0.00,,,0.06,VWS V14.01,2013-03-09 20:59:00,
2013-03-09 15:00:00,39.1,32.2,29.99,SE,135,5.0,5.0,76,0.00,,,0.06,VWS V14.01,2013-03-09 21:00:00,
2013-03-09 15:01:00,39.1,32.2,29.99,South,176,4.0,6.0,76,0.00,,,0.06,VWS V14.01,2013-03-09 21:01:00,
2013-03-09 15:02:00,39.1,32.2,29.99,SE,128,5.0,8.0,76,0.00,,,0.06,VWS V14.01,2013-03-09 21:02:00,
2013-03-09 15:03:00,39.1,32.2,29.98,SSE,155,4.0,8.0,76,0.00,,,0.06,VWS V14.01,2013-03-09 21:03:00,
2013-03-09 15:04:00,39.1,32.2,29.99,East,84,5.0,10.0,76,0.00,,,0.06,VWS V14.01,2013-03-09 21:04:00,
2013-03-09 15:05:00,39.0,32.1,29.99,ESE,103,6.0,9.0,76,0.00,,,0.06,VWS V14.01,2013-03-09 21:05:00,
2013-03-09 15:06:00,39.0,32.1,29.98,SSW,195,4.0,9.0,76,0.00,,,0.06,VWS V14.01,2013-03-09 21:06:00,
2013-03-09 15:07:00,39.0,32.1,29.98,SE,129,5.0,10.0,76,0.00,,,0.06,VWS V14.01,2013-03-09 21:07:00,
2013-03-09 15:08:00,38.9,32.0,29.98,SSE,158,3.0,6.0,76,0.00,,,0.06,VWS V14.01,2013-03-09 21:08:00,
2013-03-09 15:09:00,38.9,32.0,29.98,ESE,113,6.0,6.0,76,0.00,,,0.06,VWS V14.01,2013-03-09 21:09:00,
2013-03-09 15:10:00,38.9,32.0,29.98,SSW,200,7.0,10.0,76,0.00,,,0.06,VWS V14.01,2013-03-09 21:10:00,
2013-03-09 15:11:00,38.8,31.9,29.98,ESE,113,7.0,10.0,76,0.00,,,0.06,VWS V14.01,2013-03-09 21:11:00,
2013-03-09 15:12:00,38.8,31.9,29.98,SE,128,5.0,7.0,76,0.00,,,0.06,VWS V14.01,2013-03-09 21:12:00,
2013-03-09 15:13:00,38.8,32.2,29.98,ESE,118,6.0,6.0,77,0.00,,,0.06,VWS V14.01,2013-03-09 21:13:00,
2013-03-09 15:14:00,38.7,32.1,29.98,ESE,112,5.0,6.0,77,0.00,,,0.06,VWS V14.01,2013-03-09 21:14:00,
2013-03-09 15:15:00,38.7,32.1,29.97,ESE,111,4.0,6.0,77,0.00,,,0.06,VWS V14.01,2013-03-09 21:15:00,
2013-03-09 15:16:00,38.7,32.1,29.97,SE,127,5.0,5.0,77,0.00,,,0.06,VWS V14.01,2013-03-09 21:16:00,
2013-03-09 15:17:00,38.6,32.0,29.97,ESE,113,10.0,10.0,77,0.00,,,0.06,VWS V14.01,2013-03-09 21:17:00,
2013-03-09 15:18:00,38.5,31.9,29.97,ESE,103,5.0,10.0,77,0.00,,,0.06,VWS V14.01,2013-03-09 21:18:00,
2013-03-09 15:19:00,38.5,32.2,29.97,SE,135,6.0,8.0,78,0.00,,,0.06,VWS V14.01,2013-03-09 21:19:00,
2013-03-09 15:20:00,38.4,32.2,29.97,WSW,239,5.0,10.0,78,0.00,,,0.06,VWS V14.01,2013-03-09 21:20:00,
2013-03-09 15:21:00,38.4,32.2,29.97,East,97,6.0,10.0,78,0.00,,,0.06,VWS V14.01,2013-03-09 21:21:00,
2013-03-09 15:22:00,38.3,32.0,29.97,SE,143,7.0,8.0,78,0.00,,,0.06,VWS V14.01,2013-03-09 21:22:00,
2013-03-09 15:23:00,38.2,32.0,29.97,East,101,2.0,9.0,78,0.00,,,0.06,VWS V14.01,2013-03-09 21:23:00,
2013-03-09 15:24:00,38.2,32.0,29.97,SE,134,2.0,9.0,78,0.00,,,0.06,VWS V14.01,2013-03-09 21:24:00,
2013-03-09 15:25:00,38.1,32.2,29.98,SE,145,3.0,5.0,79,0.00,,,0.06,VWS V14.01,2013-03-09 21:25:00,
2013-03-09 15:26:00,38.1,32.2,29.97,ESE,121,4.0,6.0,79,0.00,,,0.06,VWS V14.01,2013-03-09 21:26:00,
2013-03-09 15:27:00,38.1,32.2,29.97,SSE,152,3.0,6.0,79,0.00,,,0.06,VWS V14.01,2013-03-09 21:27:00,
2013-03-09 15:28:00,38.0,32.1,29.97,SE,135,6.0,9.0,79,0.00,,,0.06,VWS V14.01,2013-03-09 21:28:00,
2013-03-09 15:29:00,38.0,32.1,29.97,SE,146,8.0,8.0,79,0.00,,,0.06,VWS V14.01,2013-03-09 21:29:00,
2013-03-09 15:30:00,37.9,32.0,29.97,SW,225,4.0,8.0,79,0.00,,,0.06,VWS V14.01,2013-03-09 21:30:00,
2013-03-09 15:31:00,37.9,32.0,29.97,ESE,123,5.0,6.0,79,0.00,,,0.06,VWS V14.01,2013-03-09 21:31:00,
2013-03-09 15:32:00,37.8,31.9,29.97,SE,127,7.0,8.0,79,0.00,,,0.06,VWS V14.01,2013-03-09 21:32:00,
2013-03-09 15:33:00,37.7,31.8,29.97,SE,139,6.0,9.0,79,0.00,,,0.06,VWS V14.01,2013-03-09 21:33:00,
2013-03-09 15:34:00,37.7,31.8,29.97,SE,128,10.0,11.0,79,0.00,,,0.06,VWS V14.01,2013-03-09 21:34:00,
2013-03-09 15:35:00,37.6,31.7,29.97,SSE,147,3.0,10.0,79,0.00,,,0.06,VWS V14.01,2013-03-09 21:35:00,
2013-03-09 15:36:00,37.6,32.0,29.97,SSE,167,4.0,5.0,80,0.00,,,0.06,VWS V14.01,2013-03-09 21:36:00,
2013-03-09 15:37:00,37.5,32.2,29.97,South,173,5.0,6.0,81,0.00,,,0.06,VWS V14.01,2013-03-09 21:37:00,
2013-03-09 15:38:00,37.5,32.2,29.97,ESE,107,4.0,5.0,81,0.00,,,0.06,VWS V14.01,2013-03-09 21:38:00,
2013-03-09 15:39:00,37.5,32.2,29.97,South,173,4.0,7.0,81,0.00,,,0.06,VWS V14.01,2013-03-09 21:39:00,
2013-03-09 15:40:00,37.4,32.1,29.97,SE,143,7.0,9.0,81,0.00,,,0.06,VWS V14.01,2013-03-09 21:40:00,
2013-03-09 15:41:00,37.3,32.0,29.97,East,100,8.0,10.0,81,0.00,,,0.06,VWS V14.01,2013-03-09 21:41:00,
2013-03-09 15:42:00,37.3,32.0,29.97,SE,144,5.0,9.0,81,0.00,,,0.06,VWS V14.01,2013-03-09 21:42:00,
2013-03-09 15:43:00,37.3,32.0,29.97,East,80,4.0,8.0,81,0.00,,,0.06,VWS V14.01,2013-03-09 21:43:00,
2013-03-09 15:44:00,37.3,32.0,29.97,SE,136,5.0,7.0,81,0.00,,,0.06,VWS V14.01,2013-03-09 21:44:00,
2013-03-09 15:45:00,37.2,31.9,29.97,ESE,118,3.0,8.0,81,0.00,,,0.06,VWS V14.01,2013-03-09 21:45:00,
2013-03-09 15:46:00,37.2,31.9,29.97,SE,135,5.0,7.0,81,0.00,,,0.06,VWS V14.01,2013-03-09 21:46:00,
2013-03-09 15:47:00,37.2,31.9,29.96,WSW,246,5.0,6.0,81,0.00,,,0.06,VWS V14.01,2013-03-09 21:47:00,
2013-03-09 15:48:00,37.2,31.9,29.96,ESE,107,4.0,6.0,81,0.00,,,0.06,VWS V14.01,2013-03-09 21:48:00,
2013-03-09 15:49:00,37.1,31.8,29.96,SSE,149,6.0,6.0,81,0.00,,,0.06,VWS V14.01,2013-03-09 21:49:00,
2013-03-09 15:50:00,37.1,31.8,29.96,SE,136,4.0,7.0,81,0.00,,,0.06,VWS V14.01,2013-03-09 21:50:00,
2013-03-09 15:51:00,37.1,31.8,29.96,ESE,113,7.0,8.0,81,0.00,,,0.06,VWS V14.01,2013-03-09 21:51:00,
2013-03-09 15:52:00,37.1,31.8,29.96,ESE,117,4.0,8.0,81,0.00,,,0.06,VWS V14.01,2013-03-09 21:52:00,
2013-03-09 15:53:00,37.0,31.7,29.96,ESE,114,8.0,8.0,81,0.00,,,0.06,VWS V14.01,2013-03-09 21:53:00,
2013-03-09 15:54:00,37.0,32.0,29.96,ESE,123,5.0,8.0,82,0.00,,,0.06,VWS V14.01,2013-03-09 21:54:00,
2013-03-09 15:55:00,37.0,32.0,29.96,SE,143,3.0,7.0,82,0.00,,,0.06,VWS V14.01,2013-03-09 21:55:00,
2013-03-09 15:56:00,36.9,31.9,29.96,SE,135,7.0,7.0,82,0.00,,,0.06,VWS V14.01,2013-03-09 21:56:00,
2013-03-09 15:57:00,36.9,31.9,29.96,ESE,123,6.0,9.0,82,0.00,,,0.06,VWS V14.01,2013-03-09 21:57:00,
2013-03-09 15:58:00,36.9,31.9,29.96,ESE,122,3.0,6.0,82,0.00,,,0.06,VWS V14.01,2013-03-09 21:58:00,
2013-03-09 15:59:00,36.9,31.9,29.96,ESE,122,5.0,8.0,82,0.00,,,0.06,VWS V14.01,2013-03-09 21:59:00,
2013-03-09 16:00:00,36.8,31.8,29.96,SE,139,4.0,5.0,82,0.00,,,0.06,VWS V14.01,2013-03-09 22:00:00,
2013-03-09 16:01:00,36.8,32.1,29.96,ESE,120,7.0,9.0,83,0.00,,,0.06,VWS V14.01,2013-03-09 22:01:00,
2013-03-09 16:02:00,36.8,31.8,29.96,SSE,149,4.0,7.0,82,0.00,,,0.06,VWS V14.01,2013-03-09 22:02:00,
2013-03-09 16:03:00,36.8,32.1,29.96,ESE,120,5.0,5.0,83,0.00,,,0.06,VWS V14.01,2013-03-09 22:03:00,
2013-03-09 16:04:00,36.8,31.8,29.96,SE,146,4.0,5.0,82,0.00,,,0.06,VWS V14.01,2013-03-09 22:04:00,
2013-03-09 16:05:00,36.8,32.1,29.97,SSE,159,6.0,9.0,83,0.00,,,0.06,VWS V14.01,2013-03-09 22:05:00,
2013-03-09 16:06:00,36.7,32.0,29.96,SE,132,5.0,7.0,83,0.00,,,0.06,VWS V14.01,2013-03-09 22:06:00,
2013-03-09 16:07:00,36.7,32.0,29.97,SE,127,4.0,5.0,83,0.00,,,0.06,VWS V14.01,2013-03-09 22:07:00,
2013-03-09 16:08:00,36.7,32.0,29.97,ESE,121,3.0,4.0,83,0.00,,,0.06,VWS V14.01,2013-03-09 22:08:00,
2013-03-09 16:09:00,36.7,32.0,29.97,SSE,156,3.0,4.0,83,0.00,,,0.06,VWS V14.01,2013-03-09 22:09:00,
2013-03-09 16:10:00,36.7,32.0,29.97,SSE,155,4.0,4.0,83,0.00,,,0.06,VWS V14.01,2013-03-09 22:10:00,
2013-03-09 16:11:00,36.7,32.0,29.97,ESE,117,4.0,4.0,83,0.00,,,0.06,VWS V14.01,2013-03-09 22:11:00,
2013-03-09 16:12:00,36.6,31.9,29.96,SE,133,2.0,5.0,83,0.00,,,0.06,VWS V14.01,2013-03-09 22:12:00,
2013-03-09 16:13:00,36.6,31.9,29.97,SE,146,4.0,5.0,83,0.00,,,0.06,VWS V14.01,2013-03-09 22:13:00,
2013-03-09 16:14:00,36.6,31.9,29.96,SSE,165,2.0,7.0,83,0.00,,,0.06,VWS V14.01,2013-03-09 22:14:00,
2013-03-09 16:15:00,36.6,31.9,29.96,ENE,77,4.0,8.0,83,0.00,,,0.06,VWS V14.01,2013-03-09 22:15:00,
2013-03-09 16:16:00,36.6,31.9,29.96,East,100,3.0,5.0,83,0.00,,,0.06,VWS V14.01,2013-03-09 22:16:00,
2013-03-09 16:17:00,36.5,31.8,29.96,SE,132,5.0,6.0,83,0.00,,,0.06,VWS V14.01,2013-03-09 22:17:00,
2013-03-09 16:18:00,36.5,32.1,29.96,ESE,107,4.0,6.0,84,0.00,,,0.06,VWS V14.01,2013-03-09 22:18:00,
2013-03-09 16:19:00,36.5,32.1,29.96,SSW,193,2.0,7.0,84,0.00,,,0.06,VWS V14.01,2013-03-09 22:19:00,
2013-03-09 16:20:00,36.4,32.0,29.96,SE,139,3.0,4.0,84,0.01,,,0.07,VWS V14.01,2013-03-09 22:20:00,
2013-03-09 16:21:00,36.4,32.0,29.96,ESE,118,4.0,5.0,84,0.01,,,0.07,VWS V14.01,2013-03-09 22:21:00,
2013-03-09 16:22:00,36.4,32.0,29.96,East,100,4.0,6.0,84,0.01,,,0.07,VWS V14.01,2013-03-09 22:22:00,
2013-03-09 16:23:00,36.3,32.2,29.96,SE,146,5.0,5.0,85,0.01,,,0.07,VWS V14.01,2013-03-09 22:23:00,
2013-03-09 16:24:00,36.3,32.2,29.96,SSE,167,4.0,6.0,85,0.01,,,0.07,VWS V14.01,2013-03-09 22:24:00,
2013-03-09 16:25:00,36.3,32.2,29.96,SE,145,6.0,7.0,85,0.01,,,0.07,VWS V14.01,2013-03-09 22:25:00,
2013-03-09 16:26:00,36.2,32.1,29.96,SE,124,7.0,9.0,85,0.01,,,0.07,VWS V14.01,2013-03-09 22:26:00,
2013-03-09 16:27:00,36.2,32.1,29.96,ESE,116,5.0,7.0,85,0.01,,,0.07,VWS V14.01,2013-03-09 22:27:00,
2013-03-09 16:28:00,36.1,32.0,29.96,SE,124,8.0,8.0,85,0.01,,,0.07,VWS V14.01,2013-03-09 22:28:00,
2013-03-09 16:29:00,36.1,32.0,29.95,ESE,117,11.0,11.0,85,0.01,,,0.07,VWS V14.01,2013-03-09 22:29:00,
2013-03-09 16:30:00,36.1,32.0,29.95,SE,134,4.0,11.0,85,0.01,,,0.07,VWS V14.01,2013-03-09 22:30:00,
2013-03-09 16:31:00,36.0,32.2,29.96,SE,146,5.0,6.0,86,0.01,,,0.07,VWS V14.01,2013-03-09 22:31:00,
2013-03-09 16:32:00,36.0,32.2,29.95,SSE,155,3.0,5.0,86,0.01,,,0.07,VWS V14.01,2013-03-09 22:32:00,
2013-03-09 16:33:00,36.0,32.2,29.95,ESE,123,7.0,7.0,86,0.01,,,0.07,VWS V14.01,2013-03-09 22:33:00,
2013-03-09 16:34:00,36.0,32.2,29.95,South,169,6.0,7.0,86,0.01,,,0.07,VWS V14.01,2013-03-09 22:34:00,
2013-03-09 16:35:00,35.9,32.1,29.96,South,173,4.0,7.0,86,0.01,,,0.07,VWS V14.01,2013-03-09 22:35:00,
2013-03-09 16:36:00,35.9,32.1,29.95,SSE,153,3.0,4.0,86,0.01,,,0.07,VWS V14.01,2013-03-09 22:36:00,
2013-03-09 16:37:00,35.9,32.1,29.95,SE,132,3.0,4.0,86,0.01,,,0.07,VWS V14.01,2013-03-09 22:37:00,
2013-03-09 16:38:00,35.9,32.4,29.95,SE,128,4.0,4.0,87,0.01,,,0.07,VWS V14.01,2013-03-09 22:38:00,
2013-03-09 16:39:00,35.9,32.4,29.95,ESE,110,4.0,4.0,87,0.01,,,0.07,VWS V14.01,2013-03-09 22:39:00,
2013-03-09 16:40:00,35.8,32.3,29.95,SE,132,5.0,7.0,87,0.01,,,0.07,VWS V14.01,2013-03-09 22:40:00,
2013-03-09 16:41:00,35.8,32.3,29.95,SE,139,5.0,5.0,87,0.01,,,0.07,VWS V14.01,2013-03-09 22:41:00,
2013-03-09 16:42:00,35.8,32.3,29.95,ESE,108,4.0,5.0,87,0.01,,,0.07,VWS V14.01,2013-03-09 22:42:00,
2013-03-09 16:43:00,35.7,32.2,29.95,SSE,152,5.0,6.0,87,0.01,,,0.07,VWS V14.01,2013-03-09 22:43:00,
2013-03-09 16:44:00,35.7,32.2,29.95,SE,137,3.0,6.0,87,0.01,,,0.07,VWS V14.01,2013-03-09 22:44:00,
2013-03-09 16:45:00,35.7,32.2,29.95,SE,146,3.0,6.0,87,0.01,,,0.07,VWS V14.01,2013-03-09 22:45:00,
2013-03-09 16:46:00,35.7,32.2,29.95,SE,143,4.0,8.0,87,0.01,,,0.07,VWS V14.01,2013-03-09 22:46:00,
2013-03-09 16:47:00,35.7,32.2,29.95,South,184,3.0,6.0,87,0.01,,,0.07,VWS V14.01,2013-03-09 22:47:00,
2013-03-09 16:48:00,35.7,32.2,29.95,SE,138,8.0,9.0,87,0.01,,,0.07,VWS V14.01,2013-03-09 22:48:00,
2013-03-09 16:49:00,35.6,32.1,29.94,ESE,121,6.0,8.0,87,0.01,,,0.07,VWS V14.01,2013-03-09 22:49:00,
2013-03-09 16:50:00,35.6,32.1,29.95,SE,134,3.0,7.0,87,0.01,,,0.07,VWS V14.01,2013-03-09 22:50:00,
2013-03-09 16:51:00,35.6,32.1,29.94,SSE,155,5.0,8.0,87,0.01,,,0.07,VWS V14.01,2013-03-09 22:51:00,
2013-03-09 16:52:00,35.6,32.1,29.94,SSE,148,4.0,6.0,87,0.01,,,0.07,VWS V14.01,2013-03-09 22:52:00,
2013-03-09 16:53:00,35.6,32.1,29.94,SE,128,5.0,10.0,87,0.01,,,0.07,VWS V14.01,2013-03-09 22:53:00,
2013-03-09 16:54:00,35.6,32.1,29.94,SSE,160,3.0,8.0,87,0.01,,,0.07,VWS V14.01,2013-03-09 22:54:00,
2013-03-09 16:55:00,35.6,32.1,29.94,SSW,205,4.0,6.0,87,0.01,,,0.07,VWS V14.01,2013-03-09 22:55:00,
2013-03-09 16:56:00,35.6,32.1,29.94,ESE,120,4.0,6.0,87,0.01,,,0.07,VWS V14.01,2013-03-09 22:56:00,
2013-03-09 16:57:00,35.6,32.1,29.94,SSE,155,5.0,8.0,87,0.01,,,0.07,VWS V14.01,2013-03-09 22:57:00,
2013-03-09 16:58:00,35.6,32.1,29.94,SE,143,6.0,10.0,87,0.01,,,0.07,VWS V14.01,2013-03-09 22:58:00,
2013-03-09 16:59:00,35.6,32.1,29.94,ESE,113,8.0,8.0,87,0.01,,,0.07,VWS V14.01,2013-03-09 22:59:00,
2013-03-09 17:00:00,35.6,32.1,29.94,SE,128,6.0,9.0,87,0.01,,,0.07,VWS V14.01,2013-03-09 23:00:00,
2013-03-09 17:01:00,35.6,32.1,29.94,SSE,160,4.0,6.0,87,0.01,,,0.07,VWS V14.01,2013-03-09 23:01:00,
2013-03-09 17:02:00,35.6,32.1,29.94,SSE,163,2.0,7.0,87,0.01,,,0.07,VWS V14.01,2013-03-09 23:02:00,
2013-03-09 17:03:00,35.6,32.1,29.94,ESE,121,7.0,9.0,87,0.01,,,0.07,VWS V14.01,2013-03-09 23:03:00,
2013-03-09 17:04:00,35.6,32.1,29.94,SSE,149,6.0,7.0,87,0.01,,,0.07,VWS V14.01,2013-03-09 23:04:00,
2013-03-09 17:05:00,35.6,32.1,29.94,ESE,123,4.0,6.0,87,0.01,,,0.07,VWS V14.01,2013-03-09 23:05:00,
2013-03-09 17:06:00,35.6,32.1,29.94,SE,142,3.0,7.0,87,0.01,,,0.07,VWS V14.01,2013-03-09 23:06:00,
2013-03-09 17:07:00,35.5,32.0,29.94,ESE,122,4.0,8.0,87,0.01,,,0.07,VWS V14.01,2013-03-09 23:07:00,
2013-03-09 17:08:00,35.5,32.0,29.94,East,100,7.0,7.0,87,0.01,,,0.07,VWS V14.01,2013-03-09 23:08:00,
2013-03-09 17:09:00,35.5,32.0,29.94,SE,139,7.0,8.0,87,0.01,,,0.07,VWS V14.01,2013-03-09 23:09:00,
2013-03-09 17:10:00,35.5,32.0,29.94,ESE,113,4.0,8.0,87,0.01,,,0.07,VWS V14.01,2013-03-09 23:10:00,
2013-03-09 17:11:00,35.5,32.0,29.93,ESE,110,5.0,7.0,87,0.01,,,0.07,VWS V14.01,2013-03-09 23:11:00,
2013-03-09 17:12:00,35.5,32.0,29.93,East,97,5.0,7.0,87,0.01,,,0.07,VWS V14.01,2013-03-09 23:12:00,
2013-03-09 17:13:00,35.5,32.0,29.93,ESE,113,7.0,8.0,87,0.01,,,0.07,VWS V14.01,2013-03-09 23:13:00,
2013-03-09 17:14:00,35.5,32.0,29.93,SSE,167,4.0,7.0,87,0.01,,,0.07,VWS V14.01,2013-03-09 23:14:00,
2013-03-09 17:15:00,35.5,32.0,29.93,SE,141,3.0,5.0,87,0.01,,,0.07,VWS V14.01,2013-03-09 23:15:00,
2013-03-09 17:16:00,35.5,32.0,29.94,SE,127,7.0,9.0,87,0.01,,,0.07,VWS V14.01,2013-03-09 23:16:00,
2013-03-09 17:17:00,35.5,32.0,29.93,SE,145,3.0,7.0,87,0.01,,,0.07,VWS V14.01,2013-03-09 23:17:00,
2013-03-09 17:18:00,35.6,32.1,29.93,SE,136,5.0,6.0,87,0.01,,,0.07,VWS V14.01,2013-03-09 23:18:00,
2013-03-09 17:19:00,35.6,32.1,29.93,ESE,113,7.0,8.0,87,0.01,,,0.07,VWS V14.01,2013-03-09 23:19:00,
2013-03-09 17:20:00,35.6,32.1,29.93,SSE,153,3.0,7.0,87,0.01,,,0.07,VWS V14.01,2013-03-09 23:20:00,
2013-03-09 17:21:00,35.6,32.1,29.93,ESE,114,6.0,12.0,87,0.00,,,0.07,VWS V14.01,2013-03-09 23:21:00,
2013-03-09 17:22:00,35.6,32.1,29.93,SE,129,6.0,8.0,87,0.00,,,0.07,VWS V14.01,2013-03-09 23:22:00,
2013-03-09 17:23:00,35.6,32.1,29.93,ESE,108,6.0,10.0,87,0.00,,,0.07,VWS V14.01,2013-03-09 23:23:00,
2013-03-09 17:24:00,35.6,32.1,29.93,SE,139,7.0,9.0,87,0.00,,,0.07,VWS V14.01,2013-03-09 23:24:00,
2013-03-09 17:25:00,35.6,32.1,29.93,SSE,152,7.0,10.0,87,0.00,,,0.07,VWS V14.01,2013-03-09 23:25:00,
2013-03-09 17:26:00,35.6,32.1,29.93,East,83,5.0,11.0,87,0.00,,,0.07,VWS V14.01,2013-03-09 23:26:00,
2013-03-09 17:27:00,35.7,32.2,29.93,SE,139,3.0,6.0,87,0.00,,,0.07,VWS V14.01,2013-03-09 23:27:00,
2013-03-09 17:28:00,35.6,32.1,29.93,SE,142,7.0,7.0,87,0.00,,,0.07,VWS V14.01,2013-03-09 23:28:00,
2013-03-09 17:29:00,35.7,32.2,29.93,SE,139,4.0,7.0,87,0.00,,,0.07,VWS V14.01,2013-03-09 23:29:00,
2013-03-09 17:30:00,35.7,32.2,29.93,SE,135,6.0,9.0,87,0.00,,,0.07,VWS V14.01,2013-03-09 23:30:00,
2013-03-09 17:31:00,35.7,32.2,29.93,East,98,6.0,11.0,87,0.00,,,0.07,VWS V14.01,2013-03-09 23:31:00,
2013-03-09 17:32:00,35.7,32.2,29.93,SSE,155,4.0,6.0,87,0.00,,,0.07,VWS V14.01,2013-03-09 23:32:00,
2013-03-09 17:33:00,35.7,32.2,29.93,SE,142,6.0,8.0,87,0.00,,,0.07,VWS V14.01,2013-03-09 23:33:00,
2013-03-09 17:34:00,35.7,32.2,29.93,SE,138,5.0,9.0,87,0.00,,,0.07,VWS V14.01,2013-03-09 23:34:00,
2013-03-09 17:35:00,35.7,32.2,29.93,SE,134,3.0,7.0,87,0.00,,,0.07,VWS V14.01,2013-03-09 23:35:00,
2013-03-09 17:36:00,35.7,32.2,29.93,SE,131,4.0,5.0,87,0.00,,,0.07,VWS V14.01,2013-03-09 23:36:00,
2013-03-09 17:37:00,35.7,32.2,29.93,SE,141,5.0,7.0,87,0.00,,,0.07,VWS V14.01,2013-03-09 23:37:00,
2013-03-09 17:38:00,35.7,32.2,29.93,SE,129,3.0,6.0,87,0.00,,,0.07,VWS V14.01,2013-03-09 23:38:00,
2013-03-09 17:39:00,35.7,32.2,29.93,SSE,155,9.0,11.0,87,0.00,,,0.07,VWS V14.01,2013-03-09 23:39:00,
2013-03-09 17:40:00,35.7,32.2,29.93,ESE,110,6.0,10.0,87,0.00,,,0.07,VWS V14.01,2013-03-09 23:40:00,
2013-03-09 17:41:00,35.8,32.3,29.92,SSE,160,5.0,9.0,87,0.00,,,0.07,VWS V14.01,2013-03-09 23:41:00,
2013-03-09 17:42:00,35.8,32.3,29.92,SE,128,6.0,7.0,87,0.00,,,0.07,VWS V14.01,2013-03-09 23:42:00,
2013-03-09 17:43:00,35.8,32.3,29.93,SE,132,3.0,6.0,87,0.00,,,0.07,VWS V14.01,2013-03-09 23:43:00,
2013-03-09 17:44:00,35.8,32.3,29.93,SE,143,5.0,5.0,87,0.00,,,0.07,VWS V14.01,2013-03-09 23:44:00,
2013-03-09 17:45:00,35.8,32.3,29.93,SSE,148,5.0,5.0,87,0.00,,,0.07,VWS V14.01,2013-03-09 23:45:00,
2013-03-09 17:46:00,35.8,32.3,29.93,SE,142,4.0,7.0,87,0.00,,,0.07,VWS V14.01,2013-03-09 23:46:00,
2013-03-09 17:47:00,35.8,32.3,29.93,South,183,4.0,8.0,87,0.00,,,0.07,VWS V14.01,2013-03-09 23:47:00,
2013-03-09 17:48:00,35.8,32.3,29.93,South,172,4.0,5.0,87,0.00,,,0.07,VWS V14.01,2013-03-09 23:48:00,
2013-03-09 17:49:00,35.8,32.3,29.92,ESE,108,4.0,7.0,87,0.00,,,0.07,VWS V14.01,2013-03-09 23:49:00,
2013-03-09 17:50:00,35.8,32.3,29.92,ESE,117,7.0,9.0,87,0.00,,,0.07,VWS V14.01,2013-03-09 23:50:00,
2013-03-09 17:51:00,35.8,32.3,29.92,ESE,108,7.0,10.0,87,0.00,,,0.07,VWS V14.01,2013-03-09 23:51:00,
2013-03-09 17:52:00,35.8,32.3,29.92,SSW,195,3.0,8.0,87,0.00,,,0.07,VWS V14.01,2013-03-09 23:52:00,
2013-03-09 17:53:00,35.8,32.3,29.93,SE,128,6.0,8.0,87,0.00,,,0.07,VWS V14.01,2013-03-09 23:53:00,
2013-03-09 17:54:00,35.8,32.3,29.93,South,176,5.0,8.0,87,0.01,,,0.08,VWS V14.01,2013-03-09 23:54:00,
2013-03-09 17:55:00,35.8,32.3,29.93,SE,136,9.0,9.0,87,0.01,,,0.08,VWS V14.01,2013-03-09 23:55:00,
2013-03-09 17:56:00,35.8,32.3,29.93,SE,125,8.0,9.0,87,0.01,,,0.08,VWS V14.01,2013-03-09 23:56:00,
2013-03-09 17:57:00,35.8,32.3,29.93,SE,129,5.0,8.0,87,0.01,,,0.08,VWS V14.01,2013-03-09 23:57:00,
2013-03-09 17:58:00,35.8,32.3,29.93,SE,139,5.0,8.0,87,0.02,,,0.09,VWS V14.01,2013-03-09 23:58:00,
2013-03-09 17:59:00,35.8,32.3,29.93,ESE,120,7.0,10.0,87,0.02,,,0.09,VWS V14.01,2013-03-09 23:59:00,
2013-03-09 18:00:00,35.8,32.3,29.92,SE,125,7.0,8.0,87,0.02,,,0.09,VWS V14.01,2013-03-10 00:00:00,
2013-03-09 18:01:00,35.8,32.3,29.92,South,171,3.0,7.0,87,0.03,,,0.10,VWS V14.01,2013-03-10 00:01:00,
2013-03-09 18:02:00,35.7,32.2,29.92,SSE,155,4.0,6.0,87,0.03,,,0.10,VWS V14.01,2013-03-10 00:02:00,
2013-03-09 18:03:00,35.7,32.5,29.92,SE,129,4.0,5.0,88,0.03,,,0.10,VWS V14.01,2013-03-10 00:03:00,
2013-03-09 18:04:00,35.7,32.5,29.92,ESE,115,4.0,5.0,88,0.03,,,0.10,VWS V14.01,2013-03-10 00:04:00,
2013-03-09 18:05:00,35.7,32.5,29.92,South,187,5.0,5.0,88,0.03,,,0.10,VWS V14.01,2013-03-10 00:05:00,
2013-03-09 18:06:00,35.7,32.5,29.92,SSE,157,5.0,6.0,88,0.03,,,0.10,VWS V14.01,2013-03-10 00:06:00,
2013-03-09 18:07:00,35.6,32.4,29.92,SE,133,6.0,9.0,88,0.05,,,0.12,VWS V14.01,2013-03-10 00:07:00,
2013-03-09 18:08:00,35.6,32.4,29.92,SSE,155,5.0,8.0,88,0.05,,,0.12,VWS V14.01,2013-03-10 00:08:00,
2013-03-09 18:09:00,35.6,32.4,29.92,ESE,111,4.0,7.0,88,0.05,,,0.12,VWS V14.01,2013-03-10 00:09:00,
2013-03-09 18:10:00,35.6,32.4,29.92,ESE,113,4.0,4.0,88,0.05,,,0.12,VWS V14.01,2013-03-10 00:10:00,
2013-03-09 18:11:00,35.6,32.4,29.92,ESE,113,3.0,7.0,88,0.05,,,0.12,VWS V14.01,2013-03-10 00:11:00,
2013-03-09 18:12:00,35.6,32.4,29.93,SE,138,7.0,7.0,88,0.05,,,0.12,VWS V14.01,2013-03-10 00:12:00,
2013-03-09 18:13:00,35.6,32.4,29.93,WNW,290,4.0,8.0,88,0.05,,,0.12,VWS V14.01,2013-03-10 00:13:00,
2013-03-09 18:14:00,35.5,32.3,29.93,SSE,155,3.0,4.0,88,0.05,,,0.12,VWS V14.01,2013-03-10 00:14:00,
2013-03-09 18:15:00,35.5,32.6,29.93,SSW,198,2.0,4.0,89,0.05,,,0.12,VWS V14.01,2013-03-10 00:15:00,
2013-03-09 18:16:00,35.5,32.6,29.93,ESE,122,3.0,4.0,89,0.05,,,0.12,VWS V14.01,2013-03-10 00:16:00,
2013-03-09 18:17:00,35.5,32.6,29.93,West,260,4.0,6.0,89,0.05,,,0.12,VWS V14.01,2013-03-10 00:17:00,
2013-03-09 18:18:00,35.5,32.6,29.93,SSE,149,6.0,9.0,89,0.05,,,0.12,VWS V14.01,2013-03-10 00:18:00,
2013-03-09 18:19:00,35.5,32.6,29.93,SE,139,5.0,8.0,89,0.05,,,0.12,VWS V14.01,2013-03-10 00:19:00,
2013-03-09 18:20:00,35.5,32.6,29.93,SSE,153,2.0,5.0,89,0.05,,,0.12,VWS V14.01,2013-03-10 00:20:00,
2013-03-09 18:21:00,35.5,32.6,29.93,SSW,203,5.0,6.0,89,0.05,,,0.12,VWS V14.01,2013-03-10 00:21:00,
2013-03-09 18:22:00,35.5,32.6,29.93,SE,129,5.0,5.0,89,0.06,,,0.13,VWS V14.01,2013-03-10 00:22:00,
2013-03-09 18:23:00,35.5,32.6,29.93,SE,145,6.0,9.0,89,0.06,,,0.13,VWS V14.01,2013-03-10 00:23:00,
2013-03-09 18:24:00,35.5,32.6,29.93,SE,143,6.0,9.0,89,0.06,,,0.13,VWS V14.01,2013-03-10 00:24:00,
2013-03-09 18:25:00,35.5,32.6,29.94,SE,143,7.0,7.0,89,0.06,,,0.13,VWS V14.01,2013-03-10 00:25:00,
2013-03-09 18:26:00,35.5,32.6,29.93,ESE,121,8.0,9.0,89,0.06,,,0.13,VWS V14.01,2013-03-10 00:26:00,
2013-03-09 18:27:00,35.5,32.6,29.93,SE,139,7.0,8.0,89,0.06,,,0.13,VWS V14.01,2013-03-10 00:27:00,
2013-03-09 18:28:00,35.5,32.6,29.93,SSE,165,3.0,7.0,89,0.06,,,0.13,VWS V14.01,2013-03-10 00:28:00,
2013-03-09 18:29:00,35.5,32.6,29.93,South,177,6.0,7.0,89,0.06,,,0.13,VWS V14.01,2013-03-10 00:29:00,
2013-03-09 18:30:00,35.5,32.6,29.93,SE,125,8.0,10.0,89,0.06,,,0.13,VWS V14.01,2013-03-10 00:30:00,
2013-03-09 18:31:00,35.5,32.6,29.92,South,173,6.0,8.0,89,0.06,,,0.13,VWS V14.01,2013-03-10 00:31:00,
2013-03-09 18:32:00,35.5,32.6,29.92,SE,134,6.0,9.0,89,0.06,,,0.13,VWS V14.01,2013-03-10 00:32:00,
2013-03-09 18:33:00,35.5,32.6,29.92,ESE,117,5.0,10.0,89,0.06,,,0.13,VWS V14.01,2013-03-10 00:33:00,
2013-03-09 18:34:00,35.5,32.6,29.92,SSE,149,4.0,9.0,89,0.06,,,0.13,VWS V14.01,2013-03-10 00:34:00,
2013-03-09 18:35:00,35.5,32.6,29.92,ESE,117,4.0,7.0,89,0.06,,,0.13,VWS V14.01,2013-03-10 00:35:00,
2013-03-09 18:36:00,35.5,32.6,29.92,SSE,148,2.0,6.0,89,0.06,,,0.13,VWS V14.01,2013-03-10 00:36:00,
2013-03-09 18:37:00,35.5,32.6,29.92,SSE,168,3.0,9.0,89,0.06,,,0.13,VWS V14.01,2013-03-10 00:37:00,
2013-03-09 18:38:00,35.5,32.6,29.92,SSE,147,4.0,5.0,89,0.06,,,0.13,VWS V14.01,2013-03-10 00:38:00,
2013-03-09 18:39:00,35.5,32.9,29.92,ESE,121,3.0,6.0,90,0.06,,,0.13,VWS V14.01,2013-03-10 00:39:00,
2013-03-09 18:40:00,35.5,32.9,29.92,SSW,194,2.0,6.0,90,0.06,,,0.13,VWS V14.01,2013-03-10 00:40:00,
2013-03-09 18:41:00,35.5,32.9,29.93,SW,214,5.0,8.0,90,0.06,,,0.13,VWS V14.01,2013-03-10 00:41:00,
2013-03-09 18:42:00,35.5,32.9,29.93,SE,141,4.0,6.0,90,0.06,,,0.13,VWS V14.01,2013-03-10 00:42:00,
2013-03-09 18:43:00,35.5,32.9,29.93,ESE,117,2.0,5.0,90,0.06,,,0.13,VWS V14.01,2013-03-10 00:43:00,
2013-03-09 18:44:00,35.5,32.9,29.93,South,188,5.0,9.0,90,0.06,,,0.13,VWS V14.01,2013-03-10 00:44:00,
2013-03-09 18:45:00,35.5,32.9,29.93,SE,131,5.0,9.0,90,0.06,,,0.13,VWS V14.01,2013-03-10 00:45:00,
2013-03-09 18:46:00,35.5,32.9,29.93,SSE,167,4.0,6.0,90,0.06,,,0.13,VWS V14.01,2013-03-10 00:46:00,
2013-03-09 18:47:00,35.5,32.9,29.93,SSE,167,4.0,5.0,90,0.06,,,0.13,VWS V14.01,2013-03-10 00:47:00,
2013-03-09 18:48:00,35.5,32.9,29.94,South,171,4.0,7.0,90,0.06,,,0.13,VWS V14.01,2013-03-10 00:48:00,
2013-03-09 18:49:00,35.5,32.9,29.94,SSE,155,5.0,6.0,90,0.06,,,0.13,VWS V14.01,2013-03-10 00:49:00,
2013-03-09 18:50:00,35.5,32.9,29.94,SSE,149,4.0,7.0,90,0.06,,,0.13,VWS V14.01,2013-03-10 00:50:00,
2013-03-09 18:51:00,35.5,32.9,29.94,SSE,156,3.0,5.0,90,0.06,,,0.13,VWS V14.01,2013-03-10 00:51:00,
2013-03-09 18:52:00,35.5,32.9,29.94,South,186,4.0,5.0,90,0.06,,,0.13,VWS V14.01,2013-03-10 00:52:00,
2013-03-09 18:53:00,35.5,32.9,29.94,SSE,149,8.0,9.0,90,0.06,,,0.13,VWS V14.01,2013-03-10 00:53:00,
2013-03-09 18:54:00,35.6,33.0,29.94,East,81,5.0,8.0,90,0.06,,,0.13,VWS V14.01,2013-03-10 00:54:00,
2013-03-09 18:55:00,35.5,32.9,29.94,SSE,160,4.0,5.0,90,0.05,,,0.13,VWS V14.01,2013-03-10 00:55:00,
2013-03-09 18:56:00,35.5,32.9,29.94,SE,127,5.0,6.0,90,0.05,,,0.13,VWS V14.01,2013-03-10 00:56:00,
2013-03-09 18:57:00,35.5,32.9,29.94,SW,218,2.0,6.0,90,0.05,,,0.13,VWS V14.01,2013-03-10 00:57:00,
2013-03-09 18:58:00,35.5,32.9,29.94,ESE,108,3.0,5.0,90,0.05,,,0.13,VWS V14.01,2013-03-10 00:58:00,
2013-03-09 18:59:00,35.5,32.9,29.94,SSE,152,4.0,6.0,90,0.04,,,0.13,VWS V14.01,2013-03-10 00:59:00,
2013-03-09 19:00:00,35.5,32.9,29.93,SSE,148,2.0,4.0,90,0.04,,,0.13,VWS V14.01,2013-03-10 01:00:00,
2013-03-09 19:01:00,35.5,32.9,29.93,South,181,3.0,6.0,90,0.04,,,0.13,VWS V14.01,2013-03-10 01:01:00,
2013-03-09 19:02:00,35.5,32.9,29.93,East,100,3.0,3.0,90,0.03,,,0.13,VWS V14.01,2013-03-10 01:02:00,
2013-03-09 19:03:00,35.5,32.9,29.93,SE,128,7.0,7.0,90,0.03,,,0.13,VWS V14.01,2013-03-10 01:03:00,
2013-03-09 19:04:00,35.5,32.9,29.93,SSE,148,3.0,7.0,90,0.03,,,0.13,VWS V14.01,2013-03-10 01:04:00,
2013-03-09 19:05:00,35.5,32.9,29.93,SSE,163,3.0,3.0,90,0.03,,,0.13,VWS V14.01,2013-03-10 01:05:00,
2013-03-09 19:06:00,35.5,32.9,29.93,ESE,121,5.0,5.0,90,0.03,,,0.13,VWS V14.01,2013-03-10 01:06:00,
2013-03-09 19:07:00,35.5,32.9,29.93,SSW,205,4.0,7.0,90,0.03,,,0.13,VWS V14.01,2013-03-10 01:07:00,
2013-03-09 19:08:00,35.5,32.9,29.93,SE,139,3.0,5.0,90,0.01,,,0.13,VWS V14.01,2013-03-10 01:08:00,
2013-03-09 19:09:00,35.5,32.9,29.93,SE,145,8.0,8.0,90,0.01,,,0.13,VWS V14.01,2013-03-10 01:09:00,
2013-03-09 19:10:00,35.5,32.9,29.93,ESE,120,4.0,8.0,90,0.01,,,0.13,VWS V14.01,2013-03-10 01:10:00,
2013-03-09 19:11:00,35.5,32.9,29.93,SSE,166,3.0,7.0,90,0.01,,,0.13,VWS V14.01,2013-03-10 01:11:00,
2013-03-09 19:12:00,35.5,32.9,29.93,SSE,147,6.0,7.0,90,0.01,,,0.13,VWS V14.01,2013-03-10 01:12:00,
2013-03-09 19:13:00,35.5,32.9,29.93,SSE,165,5.0,6.0,90,0.01,,,0.13,VWS V14.01,2013-03-10 01:13:00,
2013-03-09 19:14:00,35.5,32.9,29.92,SE,125,6.0,8.0,90,0.01,,,0.13,VWS V14.01,2013-03-10 01:14:00,
2013-03-09 19:15:00,35.5,32.9,29.92,ESE,123,7.0,11.0,90,0.02,,,0.14,VWS V14.01,2013-03-10 01:15:00,
2013-03-09 19:16:00,35.5,32.9,29.92,East,91,5.0,7.0,90,0.02,,,0.14,VWS V14.01,2013-03-10 01:16:00,
2013-03-09 19:17:00,35.5,32.9,29.92,SE,126,6.0,7.0,90,0.02,,,0.14,VWS V14.01,2013-03-10 01:17:00,
2013-03-09 19:18:00,35.5,32.9,29.92,ESE,105,4.0,7.0,90,0.02,,,0.14,VWS V14.01,2013-03-10 01:18:00,
2013-03-09 19:19:00,35.4,32.8,29.92,East,96,6.0,7.0,90,0.02,,,0.14,VWS V14.01,2013-03-10 01:19:00,
2013-03-09 19:20:00,35.4,32.8,29.92,SSE,158,3.0,7.0,90,0.02,,,0.14,VWS V14.01,2013-03-10 01:20:00,
2013-03-09 19:21:00,35.4,32.8,29.92,SE,131,3.0,6.0,90,0.02,,,0.14,VWS V14.01,2013-03-10 01:21:00,
2013-03-09 19:22:00,35.5,32.9,29.91,SE,134,5.0,8.0,90,0.02,,,0.14,VWS V14.01,2013-03-10 01:22:00,
2013-03-09 19:23:00,35.4,32.8,29.91,SE,139,6.0,6.0,90,0.01,,,0.14,VWS V14.01,2013-03-10 01:23:00,
2013-03-09 19:24:00,35.4,32.8,29.91,ESE,105,5.0,6.0,90,0.01,,,0.14,VWS V14.01,2013-03-10 01:24:00,
2013-03-09 19:25:00,35.4,32.8,29.91,SE,129,6.0,7.0,90,0.01,,,0.14,VWS V14.01,2013-03-10 01:25:00,
2013-03-09 19:26:00,35.4,32.8,29.91,SSW,197,3.0,6.0,90,0.01,,,0.14,VWS V14.01,2013-03-10 01:26:00,
2013-03-09 19:27:00,35.4,32.8,29.91,SE,131,3.0,7.0,90,0.01,,,0.14,VWS V14.01,2013-03-10 01:27:00,
2013-03-09 19:28:00,35.4,32.8,29.91,SSE,148,8.0,10.0,90,0.01,,,0.14,VWS V14.01,2013-03-10 01:28:00,
2013-03-09 19:29:00,35.4,33.0,29.91,SE,144,5.0,9.0,91,0.01,,,0.14,VWS V14.01,2013-03-10 01:29:00,
2013-03-09 19:30:00,35.4,32.8,29.91,SE,143,6.0,8.0,90,0.01,,,0.14,VWS V14.01,2013-03-10 01:30:00,
2013-03-09 19:31:00,35.4,32.8,29.91,ESE,121,5.0,8.0,90,0.01,,,0.14,VWS V14.01,2013-03-10 01:31:00,
2013-03-09 19:32:00,35.5,32.9,29.91,SE,134,5.0,7.0,90,0.01,,,0.14,VWS V14.01,2013-03-10 01:32:00,
2013-03-09 19:33:00,35.5,32.9,29.91,SSE,158,5.0,7.0,90,0.01,,,0.14,VWS V14.01,2013-03-10 01:33:00,
2013-03-09 19:34:00,35.5,32.9,29.91,ESE,114,6.0,11.0,90,0.01,,,0.14,VWS V14.01,2013-03-10 01:34:00,
2013-03-09 19:35:00,35.5,32.9,29.91,ESE,108,5.0,8.0,90,0.01,,,0.14,VWS V14.01,2013-03-10 01:35:00,
2013-03-09 19:36:00,35.5,32.9,29.90,SSE,153,4.0,5.0,90,0.01,,,0.14,VWS V14.01,2013-03-10 01:36:00,
2013-03-09 19:37:00,35.5,32.9,29.90,East,98,6.0,9.0,90,0.01,,,0.14,VWS V14.01,2013-03-10 01:37:00,
2013-03-09 19:38:00,35.5,32.9,29.91,ESE,118,10.0,10.0,90,0.01,,,0.14,VWS V14.01,2013-03-10 01:38:00,
2013-03-09 19:39:00,35.5,32.9,29.91,ESE,121,7.0,10.0,90,0.01,,,0.14,VWS V14.01,2013-03-10 01:39:00,
2013-03-09 19:40:00,35.6,33.0,29.90,SE,129,5.0,8.0,90,0.01,,,0.14,VWS V14.01,2013-03-10 01:40:00,
2013-03-09 19:41:00,35.6,33.0,29.90,SSE,153,6.0,7.0,90,0.01,,,0.14,VWS V14.01,2013-03-10 01:41:00,
2013-03-09 19:42:00,35.6,33.0,29.90,SSE,167,5.0,6.0,90,0.01,,,0.14,VWS V14.01,2013-03-10 01:42:00,
2013-03-09 19:44:00,35.6,33.0,29.90,SSE,152,8.0,9.0,90,0.01,,,0.14,VWS V14.01,2013-03-10 01:44:00,
2013-03-09 19:45:00,35.6,33.0,29.90,ESE,122,5.0,11.0,90,0.01,,,0.14,VWS V14.01,2013-03-10 01:45:00,
2013-03-09 19:46:00,35.7,33.1,29.90,ESE,116,6.0,9.0,90,0.01,,,0.14,VWS V14.01,2013-03-10 01:46:00,
2013-03-09 19:47:00,35.7,33.1,29.90,SSE,160,6.0,7.0,90,0.01,,,0.14,VWS V14.01,2013-03-10 01:47:00,
2013-03-09 19:48:00,35.7,33.1,29.90,East,84,5.0,6.0,90,0.01,,,0.14,VWS V14.01,2013-03-10 01:48:00,
2013-03-09 19:49:00,35.7,33.1,29.90,ESE,117,4.0,6.0,90,0.01,,,0.14,VWS V14.01,2013-03-10 01:49:00,
2013-03-09 19:50:00,35.7,33.1,29.90,South,179,2.0,6.0,90,0.01,,,0.14,VWS V14.01,2013-03-10 01:50:00,
2013-03-09 19:51:00,35.7,33.1,29.90,ESE,108,2.0,6.0,90,0.01,,,0.14,VWS V14.01,2013-03-10 01:51:00,
2013-03-09 19:52:00,35.7,33.1,29.90,ESE,122,6.0,9.0,90,0.01,,,0.14,VWS V14.01,2013-03-10 01:52:00,
2013-03-09 19:53:00,35.8,33.2,29.90,SSE,152,3.0,6.0,90,0.01,,,0.14,VWS V14.01,2013-03-10 01:53:00,
2013-03-09 19:54:00,35.8,33.2,29.90,SSE,164,6.0,10.0,90,0.01,,,0.14,VWS V14.01,2013-03-10 01:54:00,
2013-03-09 19:55:00,35.8,33.2,29.90,SE,144,6.0,6.0,90,0.01,,,0.14,VWS V14.01,2013-03-10 01:55:00,
2013-03-09 19:56:00,35.8,33.2,29.90,SSE,148,5.0,8.0,90,0.01,,,0.14,VWS V14.01,2013-03-10 01:56:00,
2013-03-09 19:57:00,35.9,33.3,29.90,SE,127,6.0,8.0,90,0.01,,,0.14,VWS V14.01,2013-03-10 01:57:00,
2013-03-09 19:58:00,35.9,33.3,29.90,SE,127,5.0,6.0,90,0.01,,,0.14,VWS V14.01,2013-03-10 01:58:00,
2013-03-09 19:59:00,35.9,33.3,29.90,SE,133,4.0,8.0,90,0.01,,,0.14,VWS V14.01,2013-03-10 01:59:00,
2013-03-09 20:00:00,35.9,33.3,29.90,South,169,5.0,5.0,90,0.01,,,0.14,VWS V14.01,2013-03-10 02:00:00,
2013-03-09 20:01:00,35.9,33.3,29.90,SE,137,7.0,8.0,90,0.01,,,0.14,VWS V14.01,2013-03-10 02:01:00,
2013-03-09 20:02:00,36.0,33.4,29.91,SSE,153,4.0,8.0,90,0.01,,,0.14,VWS V14.01,2013-03-10 02:02:00,
2013-03-09 20:03:00,36.0,33.4,29.91,SE,138,6.0,9.0,90,0.01,,,0.14,VWS V14.01,2013-03-10 02:03:00,
2013-03-09 20:04:00,36.0,33.4,29.90,East,96,3.0,7.0,90,0.01,,,0.14,VWS V14.01,2013-03-10 02:04:00,
2013-03-09 20:05:00,36.0,33.4,29.90,SSE,150,4.0,7.0,90,0.01,,,0.14,VWS V14.01,2013-03-10 02:05:00,
2013-03-09 20:06:00,36.0,33.1,29.91,SE,141,7.0,10.0,89,0.01,,,0.14,VWS V14.01,2013-03-10 02:06:00,
2013-03-09 20:07:00,36.0,33.1,29.90,East,100,5.0,7.0,89,0.01,,,0.14,VWS V14.01,2013-03-10 02:07:00,
2013-03-09 20:08:00,36.1,33.2,29.90,ESE,108,6.0,7.0,89,0.01,,,0.14,VWS V14.01,2013-03-10 02:08:00,
2013-03-09 20:09:00,36.1,33.2,29.90,SSE,157,5.0,10.0,89,0.01,,,0.14,VWS V14.01,2013-03-10 02:09:00,
2013-03-09 20:10:00,36.1,33.2,29.90,SSE,155,7.0,7.0,89,0.01,,,0.14,VWS V14.01,2013-03-10 02:10:00,
2013-03-09 20:11:00,36.1,33.2,29.90,SE,139,4.0,7.0,89,0.01,,,0.14,VWS V14.01,2013-03-10 02:11:00,
2013-03-09 20:12:00,36.1,33.2,29.90,East,81,2.0,10.0,89,0.01,,,0.14,VWS V14.01,2013-03-10 02:12:00,
2013-03-09 20:13:00,36.1,33.2,29.90,SE,134,4.0,12.0,89,0.01,,,0.14,VWS V14.01,2013-03-10 02:13:00,
2013-03-09 20:14:00,36.1,33.2,29.90,East,100,7.0,10.0,89,0.01,,,0.14,VWS V14.01,2013-03-10 02:14:00,
2013-03-09 20:15:00,36.2,33.3,29.90,South,180,7.0,10.0,89,0.01,,,0.14,VWS V14.01,2013-03-10 02:15:00,
2013-03-09 20:16:00,36.2,33.3,29.90,SE,139,7.0,8.0,89,0.00,,,0.14,VWS V14.01,2013-03-10 02:16:00,
2013-03-09 20:17:00,36.2,33.3,29.90,SSW,192,3.0,7.0,89,0.00,,,0.14,VWS V14.01,2013-03-10 02:17:00,
2013-03-09 20:18:00,36.2,33.3,29.91,SSE,148,5.0,8.0,89,0.00,,,0.14,VWS V14.01,2013-03-10 02:18:00,
2013-03-09 20:19:00,36.2,33.3,29.91,SSE,153,5.0,5.0,89,0.00,,,0.14,VWS V14.01,2013-03-10 02:19:00,
2013-03-09 20:20:00,36.2,33.3,29.91,SE,129,2.0,7.0,89,0.00,,,0.14,VWS V14.01,2013-03-10 02:20:00,
2013-03-09 20:21:00,36.2,33.3,29.91,South,184,5.0,5.0,89,0.00,,,0.14,VWS V14.01,2013-03-10 02:21:00,
2013-03-09 20:22:00,36.2,33.3,29.91,South,183,3.0,9.0,89,0.00,,,0.14,VWS V14.01,2013-03-10 02:22:00,
2013-03-09 20:24:00,36.2,33.3,29.91,SSE,148,4.0,8.0,89,0.00,,,0.14,VWS V14.01,2013-03-10 02:24:00,
2013-03-09 20:32:00,36.2,33.3,29.90,SE,135,5.0,6.0,89,0.00,,,0.14,VWS V14.01,2013-03-10 02:32:00,
2013-03-09 20:41:00,36.3,33.4,29.90,East,94,6.0,8.0,89,0.00,,,0.14,VWS V14.01,2013-03-10 02:41:00,
2013-03-09 20:47:00,36.2,33.3,29.90,SSE,167,5.0,8.0,89,0.00,,,0.14,VWS V14.01,2013-03-10 02:47:00,
2013-03-09 20:52:00,36.3,33.4,29.90,ESE,104,5.0,7.0,89,0.00,,,0.14,VWS V14.01,2013-03-10 02:52:00,
2013-03-09 20:57:00,36.3,33.4,29.89,ESE,118,2.0,7.0,89,0.00,,,0.14,VWS V14.01,2013-03-10 02:57:00,
2013-03-09 21:02:00,36.3,33.4,29.89,SSE,147,1.0,5.0,89,0.00,,,0.14,VWS V14.01,2013-03-10 03:02:00,
2013-03-09 21:07:00,36.3,33.4,29.90,SE,141,4.0,7.0,89,0.00,,,0.14,VWS V14.01,2013-03-10 03:07:00,
2013-03-09 21:12:00,36.3,33.4,29.90,SSW,194,2.0,5.0,89,0.00,,,0.14,VWS V14.01,2013-03-10 03:12:00,
2013-03-09 21:18:00,36.3,33.4,29.90,South,181,5.0,7.0,89,0.00,,,0.14,VWS V14.01,2013-03-10 03:18:00,
2013-03-09 21:23:00,36.3,33.4,29.90,SSE,150,1.0,6.0,89,0.00,,,0.14,VWS V14.01,2013-03-10 03:23:00,
2013-03-09 21:28:00,36.3,33.4,29.90,SE,141,1.0,4.0,89,0.00,,,0.14,VWS V14.01,2013-03-10 03:28:00,
2013-03-09 21:34:00,36.3,33.4,29.90,SSW,203,2.0,4.0,89,0.00,,,0.14,VWS V14.01,2013-03-10 03:34:00,
2013-03-09 21:39:00,36.3,33.4,29.90,South,187,3.0,4.0,89,0.00,,,0.14,VWS V14.01,2013-03-10 03:39:00,
2013-03-09 21:45:00,36.3,33.4,29.90,SSW,206,1.0,2.0,89,0.00,,,0.14,VWS V14.01,2013-03-10 03:45:00,
2013-03-09 21:50:00,36.2,33.6,29.90,SSW,207,1.0,1.0,90,0.01,,,0.15,VWS V14.01,2013-03-10 03:50:00,
2013-03-09 21:55:00,36.1,33.5,29.90,South,188,0.0,1.0,90,0.02,,,0.16,VWS V14.01,2013-03-10 03:55:00,
2013-03-09 22:00:00,36.0,33.4,29.90,South,184,0.0,0.0,90,0.03,,,0.17,VWS V14.01,2013-03-10 04:00:00,
2013-03-09 22:05:00,35.9,33.5,29.90,SE,146,0.0,0.0,91,0.04,,,0.18,VWS V14.01,2013-03-10 04:05:00,
2013-03-09 22:10:00,35.8,33.4,29.90,SE,132,0.0,0.0,91,0.06,,,0.20,VWS V14.01,2013-03-10 04:10:00,
2013-03-09 22:16:00,35.8,33.4,29.90,SE,127,0.0,0.0,91,0.07,,,0.21,VWS V14.01,2013-03-10 04:16:00,
2013-03-09 22:21:00,35.7,33.3,29.89,ESE,118,0.0,0.0,91,0.07,,,0.21,VWS V14.01,2013-03-10 04:21:00,
2013-03-09 22:26:00,35.7,33.3,29.89,ESE,117,0.0,0.0,91,0.08,,,0.22,VWS V14.01,2013-03-10 04:26:00,
2013-03-09 22:31:00,35.7,33.3,29.89,ESE,116,0.0,0.0,91,0.09,,,0.23,VWS V14.01,2013-03-10 04:31:00,
2013-03-09 22:37:00,35.6,33.5,29.89,SE,131,0.0,0.0,92,0.09,,,0.23,VWS V14.01,2013-03-10 04:37:00,
2013-03-09 22:42:00,35.6,33.5,29.89,SE,131,0.0,0.0,92,0.10,,,0.24,VWS V14.01,2013-03-10 04:42:00,
2013-03-09 22:47:00,35.5,33.4,29.89,ESE,116,0.0,0.0,92,0.10,,,0.25,VWS V14.01,2013-03-10 04:47:00,
2013-03-09 22:52:00,35.5,33.4,29.89,ESE,113,0.0,0.0,92,0.10,,,0.25,VWS V14.01,2013-03-10 04:52:00,
2013-03-09 22:58:00,35.6,33.5,29.88,ESE,116,0.0,0.0,92,0.10,,,0.26,VWS V14.01,2013-03-10 04:58:00,
2013-03-09 23:00:00,35.6,33.5,29.88,ESE,115,0.0,0.0,92,0.10,,,0.26,VWS V14.01,2013-03-10 05:00:00,
2013-03-09 23:01:00,35.6,33.5,29.88,ESE,115,0.0,0.0,92,0.09,,,0.26,VWS V14.01,2013-03-10 05:01:00,
2013-03-09 23:02:00,35.6,33.5,29.88,ESE,115,0.0,0.0,92,0.09,,,0.26,VWS V14.01,2013-03-10 05:02:00,
2013-03-09 23:03:00,35.5,33.4,29.84,SE,124,0.0,0.0,92,0.02,,,0.00,VWS V14.01,2013-03-10 05:03:00,
2013-03-09 23:04:00,35.5,33.4,29.84,SE,124,0.0,0.0,92,0.02,,,0.00,VWS V14.01,2013-03-10 05:04:00,
2013-03-09 23:05:00,35.6,33.5,29.84,SE,124,0.0,0.0,92,0.02,,,0.00,VWS V14.01,2013-03-10 05:05:00,
2013-03-09 23:06:00,35.6,33.5,29.88,ESE,114,0.0,0.0,92,0.10,,,0.28,VWS V14.01,2013-03-10 05:06:00,
2013-03-09 23:07:00,35.6,33.5,29.84,SE,124,0.0,0.0,92,0.00,,,0.00,VWS V14.01,2013-03-10 05:07:00,
2013-03-09 23:08:00,35.6,33.5,29.84,SE,124,0.0,0.0,92,0.00,,,0.00,VWS V14.01,2013-03-10 05:08:00,
2013-03-09 23:09:00,35.6,33.5,29.84,SE,124,0.0,0.0,92,0.00,,,0.00,VWS V14.01,2013-03-10 05:09:00,
2013-03-09 23:10:00,35.6,33.5,29.84,SE,124,0.0,0.0,92,0.00,,,0.00,VWS V14.01,2013-03-10 05:10:00,
2013-03-09 23:11:00,35.6,33.5,29.88,ESE,115,0.0,0.0,92,0.08,,,0.28,VWS V14.01,2013-03-10 05:11:00,
2013-03-09 23:12:00,35.6,33.5,29.84,SE,124,0.0,0.0,92,0.00,,,0.00,VWS V14.01,2013-03-10 05:12:00,
2013-03-09 23:13:00,35.6,33.5,29.84,ESE,123,0.0,0.0,92,0.00,,,0.00,VWS V14.01,2013-03-10 05:13:00,
2013-03-09 23:14:00,35.6,33.5,29.84,ESE,113,0.0,0.0,92,0.00,,,0.00,VWS V14.01,2013-03-10 05:14:00,
2013-03-09 23:15:00,35.6,33.5,29.84,ESE,120,0.0,0.0,92,0.00,,,0.00,VWS V14.01,2013-03-10 05:15:00,
2013-03-09 23:16:00,35.6,33.5,29.88,ESE,114,0.0,0.0,92,0.08,,,0.28,VWS V14.01,2013-03-10 05:16:00,
2013-03-09 23:17:00,35.6,33.5,29.83,ESE,115,0.0,0.0,92,0.00,,,0.00,VWS V14.01,2013-03-10 05:17:00,
2013-03-09 23:18:00,35.6,33.5,29.83,ESE,111,0.0,0.0,92,0.00,,,0.00,VWS V14.01,2013-03-10 05:18:00,
2013-03-09 23:19:00,35.6,33.5,29.83,ESE,118,0.0,0.0,92,0.00,,,0.00,VWS V14.01,2013-03-10 05:19:00,
2013-03-09 23:20:00,35.6,33.5,29.83,SE,139,0.0,0.0,92,0.00,,,0.00,VWS V14.01,2013-03-10 05:20:00,
2013-03-09 23:21:00,35.5,33.4,29.88,ESE,108,0.0,0.0,92,0.07,,,0.28,VWS V14.01,2013-03-10 05:21:00,
2013-03-09 23:22:00,35.5,33.4,29.83,SE,142,0.0,0.0,92,0.00,,,0.00,VWS V14.01,2013-03-10 05:22:00,
2013-03-09 23:23:00,35.6,33.5,29.83,ESE,115,0.0,0.0,92,0.00,,,0.00,VWS V14.01,2013-03-10 05:23:00,
2013-03-09 23:24:00,35.6,33.5,29.83,ESE,118,0.0,0.0,92,0.00,,,0.00,VWS V14.01,2013-03-10 05:24:00,
2013-03-09 23:25:00,35.6,33.5,29.83,SE,141,0.0,0.0,92,0.00,,,0.00,VWS V14.01,2013-03-10 05:25:00,
2013-03-09 23:26:00,35.6,33.5,29.83,SSE,158,0.0,0.0,92,0.00,,,0.00,VWS V14.01,2013-03-10 05:26:00,
2013-03-09 23:27:00,35.4,33.3,29.87,ESE,116,0.0,0.0,92,0.06,,,0.28,VWS V14.01,2013-03-10 05:27:00,
2013-03-09 23:28:00,35.6,33.5,29.83,SE,146,0.0,0.0,92,0.00,,,0.00,VWS V14.01,2013-03-10 05:28:00,
2013-03-09 23:29:00,35.6,33.5,29.83,SSE,155,0.0,0.0,92,0.00,,,0.00,VWS V14.01,2013-03-10 05:29:00,
2013-03-09 23:30:00,35.6,33.5,29.83,SE,136,0.0,0.0,92,0.00,,,0.00,VWS V14.01,2013-03-10 05:30:00,
2013-03-09 23:31:00,35.6,33.5,29.83,South,177,0.0,0.0,92,0.00,,,0.00,VWS V14.01,2013-03-10 05:31:00,
2013-03-09 23:32:00,35.4,33.3,29.86,ESE,115,0.0,0.0,92,0.05,,,0.28,VWS V14.01,2013-03-10 05:32:00,
2013-03-09 23:33:00,35.6,33.5,29.83,SE,139,0.0,0.0,92,0.00,,,0.00,VWS V14.01,2013-03-10 05:33:00,
2013-03-09 23:34:00,35.6,33.5,29.83,South,180,0.0,0.0,92,0.00,,,0.00,VWS V14.01,2013-03-10 05:34:00,
2013-03-09 23:35:00,35.6,33.5,29.84,SSW,198,0.0,0.0,92,0.00,,,0.00,VWS V14.01,2013-03-10 05:35:00,
2013-03-09 23:36:00,35.6,33.5,29.84,South,174,0.0,0.0,92,0.00,,,0.00,VWS V14.01,2013-03-10 05:36:00,
2013-03-09 23:37:00,35.4,33.3,29.86,SE,125,0.0,0.0,92,0.05,,,0.28,VWS V14.01,2013-03-10 05:37:00,
2013-03-09 23:38:00,35.6,33.5,29.84,South,176,0.0,0.0,92,0.00,,,0.00,VWS V14.01,2013-03-10 05:38:00,
2013-03-09 23:39:00,35.6,33.5,29.83,South,180,0.0,0.0,92,0.00,,,0.00,VWS V14.01,2013-03-10 05:39:00,
2013-03-09 23:40:00,35.6,33.5,29.83,South,181,0.0,0.0,92,0.00,,,0.00,VWS V14.01,2013-03-10 05:40:00,
2013-03-09 23:41:00,35.6,33.5,29.83,South,179,0.0,0.0,92,0.00,,,0.00,VWS V14.01,2013-03-10 05:41:00,
2013-03-09 23:42:00,35.6,33.5,29.83,South,180,0.0,0.0,92,0.00,,,0.00,VWS V14.01,2013-03-10 05:42:00,
2013-03-09 23:43:00,35.4,33.3,29.85,East,100,0.0,0.0,92,0.04,,,0.28,VWS V14.01,2013-03-10 05:43:00,
2013-03-09 23:44:00,35.6,33.5,29.83,SE,136,0.0,0.0,92,0.00,,,0.00,VWS V14.01,2013-03-10 05:44:00,
2013-03-09 23:45:00,35.6,33.5,29.83,SSE,160,0.0,0.0,92,0.00,,,0.00,VWS V14.01,2013-03-10 05:45:00,
2013-03-09 23:46:00,35.6,33.5,29.83,ESE,116,0.0,0.0,92,0.00,,,0.00,VWS V14.01,2013-03-10 05:46:00,
2013-03-09 23:47:00,35.7,33.6,29.83,ESE,113,3.0,4.0,92,0.00,,,0.00,VWS V14.01,2013-03-10 05:47:00,
2013-03-09 23:48:00,35.7,33.6,29.83,SSE,150,2.0,4.0,92,0.00,,,0.00,VWS V14.01,2013-03-10 05:48:00,
2013-03-09 23:49:00,35.5,33.4,29.85,ESE,120,0.0,0.0,92,0.03,,,0.28,VWS V14.01,2013-03-10 05:49:00,
2013-03-09 23:50:00,35.7,33.6,29.83,SSE,148,3.0,4.0,92,0.00,,,0.00,VWS V14.01,2013-03-10 05:50:00,
2013-03-09 23:51:00,35.8,33.7,29.83,SSE,166,1.0,3.0,92,0.00,,,0.00,VWS V14.01,2013-03-10 05:51:00,
2013-03-09 23:52:00,35.8,33.7,29.83,SE,143,1.0,2.0,92,0.00,,,0.00,VWS V14.01,2013-03-10 05:52:00,
2013-03-09 23:53:00,35.8,33.7,29.83,SE,126,0.0,2.0,92,0.00,,,0.00,VWS V14.01,2013-03-10 05:53:00,
2013-03-09 23:54:00,35.9,33.8,29.83,South,179,0.0,0.0,92,0.00,,,0.00,VWS V14.01,2013-03-10 05:54:00,
2013-03-09 23:55:00,35.5,33.4,29.85,SSE,150,0.0,0.0,92,0.03,,,0.28,VWS V14.01,2013-03-10 05:55:00,
2013-03-09 23:56:00,35.9,33.8,29.83,South,172,2.0,2.0,92,0.00,,,0.00,VWS V14.01,2013-03-10 05:56:00,
2013-03-09 23:57:00,35.9,33.8,29.83,SE,145,1.0,3.0,92,0.00,,,0.00,VWS V14.01,2013-03-10 05:57:00,
2013-03-09 23:58:00,35.9,33.8,29.83,ESE,116,1.0,2.0,92,0.00,,,0.00,VWS V14.01,2013-03-10 05:58:00,
2013-03-09 23:59:00,35.9,33.8,29.83,SE,141,1.0,2.0,92,0.00,,,0.00,VWS V14.01,2013-03-10 05:59:00,